[[{"header":{"parameterUnit":"m.s-1","parameterCategory":1,"la1":30.6,"la2":29.2853,"lo1":-89.7004,"lo2":-87.6739,"dy":0.0162,"dx":0.0183,"nx":112,"ny":82,"refTime":"2024-04-25T12:00:00:Z","depth":0,"parameterNumber":2,"parameterNumberName":"U-component_of_WINDS"},"data":[0.0,0.0,0.0,0.0,0.0,0.0,0.0,0.0,0.0,0.0,0.0,0.0,0.0,0.0,0.0,0.0,0.0,0.0,0.0,0.0,0.0,0.0,0.0,0.0,0.0,0.0,0.0,0.0,0.0,0.0,0.0,0.0,0.0,0.0,0.0,0.0,0.0,0.0,0.0,0.0,0.0,0.0,0.0,0.0,0.0,0.0,0.0,0.0,0.0,0.0,0.0,0.0,0.0,0.0,0.0,0.0,0.0,0.0,0.0,0.0,0.0,0.0,0.0,0.0,0.0,0.0,0.0,0.0,0.0,0.0,0.0,0.0,0.0,0.0,0.0,0.0,0.0,0.0,0.0,0.0,0.0,0.0,0.0,0.0,0.0,0.0,0.0,0.0,0.0,0.0,-5.2152,-5.2008,-5.1449,-5.1081,-5.1099,-5.1207,-5.1282,-5.1295,0.0,0.0,0.0,0.0,0.0,0.0,0.0,0.0,0.0,0.0,0.0,0.0,0.0,0.0,0.0,0.0,0.0,0.0,0.0,0.0,0.0,0.0,0.0,0.0,0.0,0.0,0.0,0.0,0.0,0.0,0.0,0.0,0.0,0.0,0.0,0.0,0.0,0.0,0.0,0.0,0.0,0.0,0.0,0.0,0.0,0.0,0.0,0.0,0.0,0.0,0.0,0.0,0.0,0.0,0.0,0.0,0.0,0.0,0.0,0.0,0.0,0.0,0.0,0.0,0.0,0.0,0.0,0.0,0.0,0.0,0.0,0.0,0.0,0.0,0.0,0.0,0.0,0.0,0.0,0.0,0.0,0.0,0.0,0.0,0.0,0.0,0.0,0.0,0.0,0.0,0.0,0.0,0.0,0.0,0.0,0.0,0.0,0.0,0.0,0.0,0.0,0.0,0.0,0.0,-5.1912,-5.1177,-5.0999,-5.0976,-5.1093,-5.1114,-5.1174,-5.1293,0.0,0.0,0.0,0.0,0.0,0.0,0.0,0.0,0.0,0.0,0.0,0.0,0.0,0.0,0.0,0.0,0.0,0.0,0.0,0.0,0.0,0.0,0.0,0.0,0.0,0.0,0.0,0.0,0.0,0.0,0.0,0.0,0.0,0.0,0.0,0.0,0.0,0.0,0.0,0.0,0.0,0.0,0.0,0.0,0.0,0.0,0.0,0.0,0.0,0.0,0.0,0.0,0.0,0.0,0.0,0.0,0.0,0.0,0.0,0.0,0.0,0.0,0.0,0.0,0.0,0.0,0.0,0.0,0.0,0.0,0.0,0.0,0.0,0.0,0.0,0.0,0.0,0.0,0.0,0.0,0.0,0.0,0.0,0.0,0.0,0.0,0.0,0.0,0.0,0.0,0.0,0.0,0.0,0.0,0.0,0.0,0.0,0.0,0.0,0.0,0.0,0.0,0.0,-5.1992,-5.1351,-5.0937,-5.0898,-5.091,-5.0983,-5.1063,-5.1137,-5.1245,-5.1302,0.0,0.0,0.0,0.0,0.0,0.0,0.0,0.0,0.0,0.0,0.0,0.0,0.0,0.0,0.0,0.0,0.0,0.0,0.0,0.0,0.0,0.0,0.0,0.0,0.0,0.0,0.0,0.0,0.0,0.0,0.0,0.0,0.0,0.0,0.0,0.0,0.0,0.0,0.0,0.0,0.0,0.0,0.0,0.0,0.0,0.0,0.0,0.0,0.0,0.0,0.0,0.0,0.0,0.0,0.0,0.0,0.0,0.0,0.0,0.0,0.0,0.0,0.0,0.0,0.0,0.0,0.0,0.0,0.0,0.0,0.0,0.0,0.0,0.0,0.0,0.0,0.0,0.0,0.0,0.0,0.0,0.0,0.0,0.0,0.0,0.0,0.0,0.0,0.0,0.0,0.0,0.0,0.0,0.0,0.0,0.0,0.0,0.0,0.0,0.0,0.0,0.0,-5.0885,-5.0909,-5.0909,-5.0898,-5.0898,-5.0898,-5.099,-5.1092,-5.1165,-5.1245,0.0,0.0,0.0,0.0,0.0,0.0,0.0,0.0,0.0,0.0,0.0,0.0,0.0,0.0,0.0,0.0,0.0,0.0,0.0,0.0,0.0,0.0,0.0,0.0,0.0,0.0,0.0,0.0,0.0,0.0,0.0,0.0,0.0,0.0,0.0,0.0,0.0,0.0,0.0,0.0,0.0,0.0,0.0,0.0,0.0,0.0,0.0,0.0,0.0,0.0,0.0,0.0,0.0,0.0,0.0,0.0,0.0,0.0,0.0,0.0,0.0,0.0,0.0,0.0,0.0,0.0,0.0,0.0,0.0,0.0,0.0,0.0,0.0,0.0,0.0,0.0,0.0,0.0,0.0,0.0,0.0,0.0,0.0,0.0,0.0,0.0,0.0,0.0,0.0,0.0,0.0,0.0,0.0,0.0,0.0,0.0,0.0,0.0,0.0,0.0,0.0,0.0,-5.0863,-5.0908,-5.0908,-5.0901,-5.0898,-5.0898,-5.0914,-5.0969,-5.1105,-5.1161,0.0,0.0,0.0,0.0,0.0,0.0,0.0,0.0,0.0,0.0,0.0,0.0,0.0,0.0,0.0,0.0,0.0,0.0,0.0,0.0,0.0,0.0,0.0,0.0,0.0,0.0,0.0,0.0,0.0,0.0,0.0,0.0,0.0,0.0,0.0,0.0,0.0,0.0,0.0,0.0,0.0,0.0,0.0,0.0,0.0,0.0,0.0,0.0,0.0,0.0,0.0,0.0,0.0,0.0,0.0,0.0,0.0,0.0,0.0,0.0,0.0,0.0,0.0,0.0,0.0,0.0,0.0,0.0,0.0,0.0,0.0,0.0,0.0,0.0,0.0,0.0,0.0,0.0,0.0,0.0,0.0,0.0,0.0,0.0,0.0,0.0,0.0,0.0,0.0,0.0,0.0,0.0,0.0,0.0,0.0,0.0,0.0,0.0,0.0,0.0,0.0,0.0,-5.0793,-5.0846,-5.0846,-5.0836,-5.0844,-5.0844,-5.0888,-5.0937,-5.103,0.0,0.0,0.0,0.0,0.0,0.0,0.0,0.0,0.0,0.0,0.0,0.0,0.0,0.0,0.0,0.0,0.0,0.0,0.0,0.0,0.0,0.0,0.0,0.0,0.0,0.0,0.0,0.0,0.0,0.0,0.0,0.0,0.0,0.0,0.0,0.0,0.0,0.0,0.0,0.0,0.0,0.0,0.0,0.0,0.0,0.0,0.0,0.0,0.0,0.0,0.0,0.0,0.0,0.0,0.0,0.0,0.0,0.0,0.0,0.0,0.0,0.0,0.0,0.0,0.0,0.0,0.0,0.0,0.0,0.0,0.0,0.0,0.0,0.0,0.0,0.0,0.0,0.0,0.0,0.0,0.0,0.0,0.0,0.0,0.0,0.0,0.0,0.0,0.0,0.0,0.0,0.0,0.0,0.0,0.0,0.0,0.0,0.0,0.0,0.0,0.0,0.0,-5.0527,-5.0606,-5.0673,-5.0766,-5.0542,-5.0396,-5.0396,-5.0209,-5.009,-5.013,0.0,0.0,0.0,0.0,0.0,0.0,0.0,0.0,0.0,0.0,0.0,0.0,0.0,0.0,0.0,0.0,0.0,0.0,0.0,0.0,0.0,0.0,0.0,0.0,0.0,0.0,0.0,0.0,0.0,0.0,0.0,0.0,0.0,0.0,0.0,0.0,0.0,0.0,0.0,0.0,0.0,0.0,0.0,0.0,0.0,0.0,0.0,0.0,0.0,0.0,0.0,0.0,0.0,0.0,0.0,0.0,0.0,0.0,0.0,0.0,0.0,0.0,0.0,0.0,0.0,0.0,0.0,0.0,0.0,0.0,0.0,0.0,0.0,0.0,0.0,0.0,0.0,0.0,0.0,0.0,0.0,0.0,0.0,0.0,0.0,0.0,0.0,0.0,0.0,0.0,0.0,0.0,0.0,0.0,0.0,0.0,0.0,0.0,0.0,0.0,0.0,0.0,-5.0152,-5.0233,-5.0385,-5.0635,-4.9947,-4.9481,-4.9481,-4.8748,-4.829,0.0,0.0,0.0,0.0,0.0,0.0,0.0,0.0,0.0,0.0,0.0,0.0,0.0,0.0,0.0,0.0,0.0,0.0,0.0,0.0,0.0,0.0,0.0,0.0,0.0,0.0,0.0,0.0,0.0,0.0,0.0,0.0,0.0,0.0,0.0,0.0,0.0,0.0,0.0,0.0,0.0,0.0,0.0,0.0,0.0,0.0,0.0,0.0,0.0,0.0,0.0,0.0,0.0,0.0,0.0,0.0,0.0,0.0,0.0,0.0,0.0,0.0,0.0,0.0,0.0,0.0,0.0,0.0,0.0,0.0,0.0,0.0,0.0,0.0,0.0,0.0,0.0,0.0,0.0,0.0,0.0,0.0,0.0,0.0,0.0,0.0,0.0,0.0,0.0,0.0,0.0,0.0,0.0,0.0,0.0,0.0,0.0,0.0,0.0,0.0,0.0,0.0,0.0,-4.9138,-4.91,-4.889,-4.8357,-4.8094,-4.7953,-4.7953,-4.7956,-4.7952,-4.7953,0.0,0.0,0.0,0.0,0.0,0.0,0.0,0.0,0.0,0.0,0.0,0.0,0.0,0.0,0.0,0.0,0.0,0.0,0.0,0.0,0.0,0.0,0.0,0.0,0.0,0.0,0.0,0.0,0.0,0.0,0.0,0.0,0.0,0.0,0.0,0.0,0.0,0.0,0.0,0.0,0.0,0.0,0.0,0.0,0.0,0.0,0.0,0.0,0.0,0.0,0.0,0.0,0.0,0.0,0.0,0.0,0.0,0.0,0.0,0.0,0.0,0.0,0.0,0.0,0.0,0.0,0.0,0.0,0.0,0.0,0.0,0.0,0.0,0.0,0.0,0.0,0.0,0.0,0.0,0.0,0.0,0.0,0.0,0.0,0.0,0.0,0.0,0.0,0.0,0.0,0.0,0.0,0.0,0.0,0.0,0.0,0.0,0.0,0.0,0.0,0.0,0.0,-4.8012,-4.7913,-4.7759,-4.7327,-4.6999,-4.6828,-4.6828,-4.6968,-4.7102,-4.7125,0.0,0.0,0.0,0.0,0.0,0.0,0.0,0.0,0.0,0.0,0.0,0.0,0.0,0.0,0.0,0.0,0.0,0.0,0.0,0.0,0.0,0.0,0.0,0.0,0.0,0.0,0.0,0.0,0.0,0.0,0.0,0.0,0.0,0.0,0.0,0.0,0.0,0.0,0.0,0.0,0.0,0.0,0.0,0.0,0.0,0.0,0.0,0.0,0.0,0.0,0.0,0.0,0.0,0.0,0.0,0.0,0.0,0.0,0.0,0.0,0.0,0.0,0.0,0.0,0.0,0.0,0.0,0.0,0.0,0.0,0.0,0.0,0.0,0.0,0.0,0.0,0.0,0.0,0.0,0.0,0.0,0.0,0.0,0.0,0.0,0.0,0.0,0.0,0.0,0.0,0.0,0.0,0.0,0.0,0.0,0.0,0.0,0.0,0.0,0.0,0.0,0.0,-4.6825,-4.6757,-4.6817,-4.6972,-4.6398,-4.6038,-4.6038,-4.6063,-4.6108,-4.6171,0.0,0.0,0.0,0.0,0.0,0.0,0.0,0.0,0.0,0.0,0.0,0.0,0.0,0.0,0.0,0.0,0.0,0.0,0.0,0.0,0.0,0.0,0.0,0.0,0.0,0.0,0.0,0.0,0.0,0.0,0.0,0.0,0.0,0.0,0.0,0.0,0.0,0.0,0.0,0.0,0.0,0.0,0.0,0.0,0.0,0.0,0.0,0.0,0.0,0.0,0.0,0.0,0.0,0.0,0.0,0.0,0.0,0.0,0.0,0.0,-4.6281,-4.6977,0.0,0.0,0.0,0.0,0.0,0.0,0.0,0.0,0.0,0.0,0.0,0.0,0.0,0.0,0.0,0.0,0.0,0.0,0.0,0.0,0.0,0.0,0.0,0.0,0.0,0.0,0.0,0.0,0.0,0.0,0.0,0.0,0.0,0.0,0.0,0.0,0.0,0.0,0.0,0.0,-4.5751,-4.564,-4.5392,-4.4759,-4.5151,-4.5469,-4.5469,-4.6236,-4.6704,-4.6737,-4.6518,0.0,0.0,0.0,0.0,0.0,0.0,0.0,0.0,0.0,0.0,0.0,0.0,0.0,0.0,0.0,0.0,0.0,0.0,0.0,0.0,0.0,0.0,0.0,0.0,0.0,0.0,0.0,0.0,0.0,0.0,0.0,0.0,0.0,0.0,0.0,0.0,0.0,0.0,0.0,0.0,0.0,0.0,0.0,0.0,0.0,0.0,0.0,0.0,0.0,0.0,0.0,0.0,0.0,0.0,0.0,0.0,0.0,0.0,0.0,-4.5965,-4.6383,0.0,0.0,0.0,0.0,0.0,0.0,0.0,0.0,0.0,0.0,0.0,0.0,0.0,0.0,0.0,0.0,0.0,0.0,0.0,0.0,0.0,0.0,0.0,0.0,0.0,0.0,0.0,0.0,0.0,0.0,0.0,0.0,0.0,0.0,0.0,0.0,0.0,0.0,0.0,0.0,-4.4785,-4.4674,-4.4506,-4.4042,-4.4785,-4.5119,-4.4711,-4.591,-4.6526,-4.6168,-4.6318,0.0,0.0,0.0,0.0,0.0,0.0,0.0,0.0,0.0,0.0,0.0,0.0,0.0,0.0,0.0,0.0,0.0,0.0,0.0,0.0,0.0,0.0,0.0,0.0,0.0,0.0,0.0,0.0,0.0,0.0,0.0,0.0,0.0,0.0,0.0,0.0,0.0,0.0,0.0,0.0,0.0,0.0,0.0,0.0,0.0,0.0,0.0,0.0,0.0,0.0,0.0,0.0,0.0,-4.4615,-4.4814,-4.5161,-4.4786,-4.4814,-4.5214,-4.5815,-4.584,-4.5511,-4.6039,0.0,0.0,0.0,0.0,0.0,0.0,0.0,0.0,0.0,0.0,0.0,0.0,0.0,0.0,0.0,0.0,0.0,0.0,0.0,0.0,0.0,0.0,-4.6531,-4.643,-4.6465,-4.6595,-4.6895,0.0,0.0,0.0,0.0,0.0,0.0,0.0,0.0,0.0,0.0,0.0,-4.3853,-4.3744,-4.3777,-4.3825,-4.4636,-4.4909,-4.4252,-4.5605,-4.6215,-4.553,-4.6171,-4.657,0.0,0.0,0.0,0.0,0.0,0.0,0.0,0.0,0.0,0.0,0.0,0.0,0.0,0.0,0.0,0.0,0.0,0.0,0.0,0.0,0.0,0.0,0.0,0.0,0.0,0.0,0.0,0.0,0.0,0.0,0.0,0.0,-4.2968,-4.241,0.0,0.0,0.0,0.0,0.0,0.0,0.0,0.0,0.0,0.0,0.0,0.0,0.0,-4.4649,-4.475,-4.4649,-4.4615,-4.4615,-4.4615,-4.4626,-4.4692,-4.4626,-4.4626,-4.4692,-4.4786,0.0,-4.5329,-4.5545,0.0,0.0,0.0,0.0,0.0,0.0,0.0,0.0,0.0,0.0,0.0,0.0,0.0,0.0,0.0,0.0,0.0,0.0,0.0,0.0,0.0,0.0,-4.5111,-4.4587,-4.4776,-4.494,-4.45,-4.5263,-4.5842,-4.5096,-4.5057,-4.4991,0.0,0.0,0.0,0.0,0.0,0.0,-4.2772,-4.2697,-4.2829,-4.3176,-4.4051,-4.4686,-4.4936,-4.5888,-4.6405,-4.6173,-4.5649,-4.5298,-4.5251,-4.4598,0.0,0.0,0.0,0.0,0.0,0.0,0.0,0.0,0.0,0.0,0.0,0.0,0.0,0.0,0.0,0.0,0.0,0.0,0.0,0.0,0.0,0.0,0.0,0.0,0.0,0.0,0.0,0.0,0.0,-4.2892,-4.297,-4.3155,-4.335,-4.3486,0.0,0.0,0.0,0.0,0.0,0.0,0.0,0.0,0.0,-4.3152,-4.3896,-4.4367,-4.4473,-4.5278,-4.5718,-4.585,-4.585,-4.585,-4.585,-4.585,-4.585,-4.5805,-4.5399,-4.532,-4.5503,-4.5142,-4.5115,-4.5354,0.0,0.0,0.0,0.0,-4.5735,-4.545,-4.5856,-4.5735,-4.5399,-4.5399,0.0,0.0,0.0,0.0,0.0,0.0,0.0,-4.5302,-4.5302,-4.4868,-4.4321,-4.4059,-4.3812,-4.3481,-4.276,-4.3071,-4.3594,-4.3864,-4.4005,-4.3881,-4.3248,-4.3221,0.0,0.0,0.0,-4.2697,-4.2523,-4.2503,-4.2562,-4.2736,-4.3554,-4.394,-4.367,-4.4419,-4.4711,-4.4199,-4.3835,-4.3743,-4.3921,-4.3378,-4.3195,0.0,0.0,0.0,0.0,0.0,0.0,0.0,0.0,0.0,0.0,0.0,0.0,0.0,0.0,0.0,0.0,0.0,0.0,0.0,0.0,0.0,0.0,0.0,0.0,0.0,0.0,0.0,0.0,-4.2205,-4.238,-4.2833,-4.2738,-4.2724,0.0,0.0,0.0,0.0,0.0,0.0,-4.2269,-4.2429,-4.2493,-4.2493,-4.3525,-4.4136,-4.4311,-4.5324,-4.5932,-4.6071,-4.6071,-4.6071,-4.6088,-4.6135,-4.6166,-4.6132,-4.5628,-4.5429,-4.5404,-4.5037,-4.4874,-4.4874,-4.4874,-4.4874,-4.4925,-4.528,-4.506,-4.4682,-4.5229,-4.5043,-4.4615,-4.4615,-4.4682,-4.4765,-4.4765,0.0,0.0,0.0,0.0,-4.4579,-4.4579,-4.4034,-4.3447,-4.3285,-4.2825,-4.2236,-4.1484,-4.1405,-4.1729,-4.2555,-4.2782,-4.2676,-4.219,-4.2183,0.0,-4.2244,-4.2244,-4.2203,-4.2101,-4.208,-4.2121,-4.2223,-4.2803,-4.2992,-4.248,-4.3025,-4.3115,-4.25,-4.2464,-4.2491,-4.2576,-4.2312,-4.2185,-4.2341,0.0,0.0,0.0,0.0,0.0,0.0,0.0,0.0,0.0,0.0,0.0,0.0,0.0,0.0,0.0,0.0,0.0,0.0,0.0,0.0,0.0,0.0,0.0,0.0,0.0,0.0,0.0,0.0,0.0,-3.9702,-4.0789,0.0,0.0,0.0,0.0,-4.1756,-4.2508,-4.2957,-4.2957,-4.3547,-4.388,-4.388,-4.398,-4.3996,-4.3996,-4.4111,-4.4127,-4.4127,-4.4127,-4.4127,-4.4161,-4.4327,-4.4425,-4.4443,-4.4592,-4.4656,-4.4702,-4.5375,-4.5652,-4.5652,-4.5652,-4.5652,-4.5568,-4.4919,-4.4632,-4.4615,-4.4649,-4.4632,-4.4615,-4.4615,-4.4598,-4.4598,-4.4598,-4.4598,0.0,0.0,-4.4073,-4.347,-4.347,-4.2939,-4.2247,-4.1665,-4.1503,-4.1291,-4.069,-4.0561,-4.061,-4.0796,-4.0922,-4.1146,-4.149,0.0,-4.1561,-4.1561,-4.1561,-4.1401,-4.1018,-4.0989,-4.1117,-4.1494,-4.1705,-4.1941,-4.2286,-4.2462,-4.248,-4.2327,-4.2306,-4.1982,-4.1225,-4.1169,-4.087,-4.0253,-4.018,0.0,0.0,0.0,0.0,0.0,0.0,0.0,0.0,0.0,0.0,0.0,0.0,0.0,0.0,0.0,0.0,0.0,0.0,0.0,0.0,0.0,0.0,0.0,0.0,0.0,0.0,0.0,0.0,-4.0737,-4.0805,0.0,-4.1719,-4.1616,-4.1685,-4.2116,-4.2042,-4.1981,-4.1981,-4.2211,-4.2333,-4.2333,-4.3221,-4.3747,-4.3874,-4.4776,-4.5279,-4.5437,-4.5437,-4.5437,-4.5437,-4.5488,-4.5523,-4.5507,-4.5092,-4.4924,-4.4917,-4.474,-4.4787,-4.4976,-4.4976,-4.4976,-4.501,-4.5229,-4.4993,-4.4682,-4.5128,-4.4993,-4.4615,-4.4615,-4.4615,-4.4615,-4.4615,-4.4615,-4.4496,-4.3978,-4.3639,-4.3274,-4.2828,-4.2134,-4.143,-4.0836,-4.0643,-4.0392,-3.9781,-4.0045,-4.0404,-4.0412,-4.0624,-4.0817,-4.0971,-4.1065,-4.1117,-4.1117,-4.1117,-4.1065,-4.0935,-4.0912,-4.0965,-4.1111,-4.1157,-4.1237,-4.1401,-4.0972,-4.0674,-4.0631,-4.018,-3.9919,-3.9944,-3.9656,-3.9515,-3.958,-3.8822,-3.8579,0.0,0.0,0.0,0.0,0.0,0.0,0.0,0.0,0.0,0.0,0.0,0.0,0.0,0.0,0.0,0.0,0.0,0.0,0.0,0.0,0.0,0.0,0.0,0.0,0.0,-4.0111,-4.0397,-4.1047,-4.0747,-4.0918,-4.2023,-4.1694,-4.1568,-4.2041,-4.1867,-4.1752,-4.1752,-4.1923,-4.2043,-4.2043,-4.297,-4.351,-4.363,-4.4549,-4.5085,-4.5217,-4.5217,-4.5217,-4.5217,-4.5306,-4.5358,-4.5327,-4.4923,-4.4737,-4.4716,-4.4325,-4.4172,-4.4134,-4.4181,-4.424,-4.4319,-4.4553,-4.4319,-4.3969,-4.4469,-4.4302,-4.3902,-4.3902,-4.3902,-4.3902,-4.3902,-4.3902,-4.3785,-4.3256,-4.291,-4.261,-4.211,-4.1288,-4.0446,-4.0072,-3.9702,-3.9375,-3.8984,-3.9269,-3.9627,-3.9627,-4.0154,-4.0648,-4.0648,-4.0704,-4.0776,-4.084,-4.084,-4.0864,-4.0894,-4.0912,-4.0912,-4.0912,-4.067,-4.0515,-4.0515,-3.9767,-3.9319,-3.9319,-3.887,-3.8629,-3.8692,-3.8391,-3.8248,-3.829,-3.7507,-3.7226,-3.7484,0.0,0.0,0.0,0.0,0.0,0.0,0.0,0.0,0.0,0.0,0.0,0.0,0.0,0.0,0.0,0.0,0.0,0.0,0.0,0.0,0.0,0.0,0.0,-3.9454,-3.9454,-3.9694,-4.0352,-4.0427,-4.0681,-4.1392,-4.1467,-4.1444,-4.1474,-4.2111,-4.2485,-4.2455,-4.3015,-4.3319,-4.329,-4.329,-4.329,-4.329,-4.329,-4.329,-4.329,-4.329,-4.329,-4.329,-4.3557,-4.369,-4.369,-4.391,-4.3998,-4.3987,-4.4153,-4.3816,-4.32,-4.3347,-4.3493,-4.3556,-4.278,-4.2489,-4.2489,-4.252,-4.252,-4.252,-4.252,-4.252,-4.252,-4.252,-4.252,-4.252,-4.2488,-4.194,-4.1376,-4.136,-4.0356,-3.9321,-3.9321,-3.8816,-3.8327,-3.8327,-3.8294,-3.8306,-3.8306,-3.9463,-4.0419,-4.0444,-4.0444,-4.0485,-4.0624,-4.0648,0.0,-4.0823,-4.083,-4.0813,-4.0813,-4.0129,-3.9664,-3.9664,-3.8974,-3.856,-3.8543,-3.8543,-3.8198,-3.7473,-3.7461,-3.7116,-3.6318,-3.6301,-3.6301,-3.6301,0.0,0.0,0.0,0.0,0.0,0.0,0.0,0.0,0.0,0.0,0.0,0.0,0.0,0.0,0.0,0.0,0.0,0.0,0.0,0.0,0.0,-3.9704,-4.0127,-4.0127,-4.0127,-4.0367,-4.104,-4.1115,-4.1407,-4.2066,-4.2521,-4.2985,-4.3479,-4.4107,-4.4272,-4.3793,-4.3943,-4.3783,-4.3305,-4.329,-4.329,-4.329,-4.329,-4.329,-4.329,-4.329,-4.329,-4.329,-4.3384,-4.3423,-4.3423,-4.3463,-4.35,-4.3454,-4.3099,-4.2848,-4.2781,-4.3186,-4.3073,-4.2638,-4.2269,-4.2221,-4.2363,-4.2458,-4.252,-4.252,-4.252,-4.252,-4.252,-4.252,-4.252,-4.2376,-4.1843,-4.1569,-4.1263,-4.0746,-4.0326,-3.99,-3.9479,-3.9207,-3.8911,-3.8474,-3.8335,-3.8306,-3.8306,-3.864,-3.8941,-3.9022,-3.9113,-3.9219,-3.9246,-3.9246,-3.9272,-3.9308,-3.904,-3.895,-3.9223,-3.8806,-3.8608,-3.8734,-3.8086,-3.7612,-3.7518,-3.7092,-3.6762,-3.6573,-3.6586,-3.6525,-3.6301,-3.6301,-3.6301,0.0,0.0,0.0,0.0,0.0,0.0,0.0,0.0,0.0,0.0,0.0,0.0,0.0,0.0,0.0,0.0,0.0,0.0,0.0,0.0,0.0,0.0,-3.9294,-3.9934,-4.1062,-4.0995,-4.1055,-4.1752,-4.2028,-4.2462,-4.312,-4.3778,-4.4317,-4.4691,-4.508,-4.5125,-4.4751,-4.4721,-4.4421,-4.3723,-4.3708,-4.3574,-4.329,-4.329,-4.329,-4.329,-4.329,-4.329,-4.329,-4.329,-4.329,-4.329,-4.329,-4.329,-4.326,-4.3058,-4.2805,-4.2576,0.0,0.0,0.0,0.0,-4.1227,-4.136,-4.1426,-4.1525,-4.1591,-4.1591,-4.1624,-4.1641,-4.1641,-4.1641,-4.1561,-4.1133,-4.1022,-4.0927,-4.0483,-4.0167,-3.9898,-3.9546,-3.9188,-3.8807,-3.8153,-3.7991,-3.7882,-3.761,-3.7562,0.0,-3.765,-3.8165,-3.8569,-3.8624,-3.8624,-3.8652,-3.869,-3.8492,-3.8325,-3.8227,-3.7769,-3.7364,-3.7219,-3.651,0.0,0.0,0.0,-3.5549,-3.5766,-3.5599,0.0,0.0,0.0,-3.5963,-3.6174,-3.5963,0.0,0.0,-3.644,-3.6542,0.0,0.0,0.0,0.0,0.0,0.0,0.0,0.0,0.0,0.0,0.0,0.0,0.0,0.0,0.0,0.0,-3.8521,-3.9277,-4.1834,-4.1742,-4.1716,-4.2506,-4.315,-4.3738,-4.4362,-4.502,-4.5409,-4.5409,-4.5484,-4.5484,-4.5409,-4.5409,0.0,0.0,0.0,-4.3992,-4.3409,-4.3334,-4.329,-4.329,-4.329,-4.329,-4.329,-4.329,-4.329,-4.329,-4.329,-4.329,-4.3329,-4.3557,-4.3229,-4.2438,-4.1188,-4.0801,-4.0834,-4.0218,-3.996,-3.996,-3.9996,0.0,0.0,-4.0277,-4.0331,-4.042,-4.042,-4.042,-4.0455,-4.0455,-4.0489,-4.0489,-4.0489,-4.0043,-3.9598,-3.9598,-3.909,-3.8462,-3.7861,-3.7677,-3.7415,-3.6738,-3.6599,-3.6584,-3.6507,-3.7385,-3.8137,-3.8266,-3.8278,-3.8334,-3.8442,-3.8416,-3.8144,-3.7523,-3.6771,0.0,-3.5406,-3.4743,-3.4358,-3.4358,-3.4358,-3.46,-3.5081,-3.4648,-3.4854,-3.5805,-3.5351,-3.5351,-3.5827,-3.5351,-3.5237,-3.547,-3.592,-3.6156,0.0,0.0,0.0,0.0,0.0,0.0,0.0,0.0,0.0,0.0,0.0,0.0,0.0,0.0,0.0,-3.8047,-3.8658,-3.9466,-4.0703,-4.1241,-4.2091,-4.3752,-4.4511,-4.496,-4.5095,-4.5723,-4.6127,-4.6127,-4.6621,-4.6681,-4.6157,-4.6127,-4.5813,-4.5125,-4.4586,-4.4257,-4.4122,-4.3559,-4.329,-4.329,-4.329,0.0,-4.329,-4.329,-4.329,-4.329,-4.329,-4.329,-4.329,-4.3384,-4.2995,-4.2338,-4.1166,-4.0603,-4.0469,-3.9938,-3.9768,-3.9768,-3.9925,-4.0046,-4.0066,-4.0066,-4.0081,-4.0101,-4.0101,-4.0101,0.0,-4.0296,-4.0331,-4.0331,-4.0331,-4.0328,-4.027,-4.0182,-3.9729,-3.9259,-3.9154,-3.8708,-3.8123,-3.7446,-3.7307,-3.7138,-3.6584,-3.6693,-3.6861,-3.6892,-3.6892,-3.6922,-3.6937,-3.6646,-3.6292,-3.5883,-3.5407,-3.4943,-3.4496,-3.4317,-3.4186,-3.4095,-3.4178,-3.4333,-3.4552,-3.4455,-3.4503,-3.4712,-3.46,-3.46,-3.4712,-3.46,-3.4576,-3.464,-3.4948,-3.5197,0.0,0.0,0.0,0.0,0.0,0.0,0.0,0.0,0.0,0.0,0.0,-3.6191,-3.6031,0.0,-3.7002,-3.7556,-3.8086,-3.898,-4.0562,-4.0982,-4.1639,-4.3127,-4.3864,-4.4487,-4.4976,-4.5215,-4.5521,-4.602,-4.6359,-4.6403,-4.6078,-4.6528,-4.6352,-4.5334,-4.4975,-4.4481,-4.3823,-4.3454,-4.329,-4.329,-4.329,-4.329,-4.329,-4.329,-4.329,-4.329,-4.329,-4.329,-4.329,-4.329,-4.3135,-4.2716,-4.1513,-4.0793,-4.0322,-3.9757,-3.9553,-3.9553,-3.9676,-3.9783,-3.9839,-3.9839,-3.9925,-4.0011,-4.0011,-4.0011,-4.0031,-4.0101,-4.0137,-4.0137,-4.0137,-4.0207,-4.0226,-4.0172,-4.0017,-3.9803,-3.945,-3.9097,-3.8668,-3.8106,-3.7658,-3.7288,-3.7046,-3.6722,-3.6492,-3.6492,-3.6492,-3.6492,-3.6492,-3.6337,-3.5993,-3.5498,-3.498,-3.4439,-3.3847,-3.3493,-3.3277,-3.3214,-3.3251,-3.3443,-3.3786,-3.3531,-3.3649,-3.4178,-3.3937,-3.3937,-3.4202,-3.3937,-3.3878,-3.4052,-3.391,-3.421,0.0,0.0,0.0,0.0,0.0,0.0,0.0,-3.5571,-3.5408,-3.5115,-3.55,-3.5704,-3.5151,-3.5871,-3.6728,-3.7252,-3.7466,-3.8299,-4.0377,-4.0613,-4.0911,-4.175,-4.2743,-4.3701,-4.4595,-4.4478,-4.4638,-4.5463,-4.5508,-4.5508,-4.5508,-4.627,-4.6237,-4.5206,-4.5099,-4.4515,-4.3499,-4.3364,-4.329,-4.329,-4.329,-4.329,-4.329,-4.329,-4.329,-4.329,-4.329,-4.329,-4.329,-4.329,-4.3215,-4.303,-4.1848,-4.098,-4.0322,-3.9664,-3.9388,-3.9388,-3.9388,-3.9517,-3.9661,-3.9661,-3.9732,-3.9889,-3.9889,-3.9889,-3.9889,-3.9925,-3.9925,-3.9925,-3.9925,-3.996,-3.9996,-3.996,-4.0101,-4.0089,-3.9474,-3.9352,-3.9203,-3.8714,-3.8017,-3.7525,-3.7442,-3.6982,-3.6614,-3.6507,-3.6492,-3.6492,-3.6492,-3.6492,-3.623,-3.5553,-3.5028,-3.4321,-3.3475,-3.2782,-3.2398,-3.2398,-3.2398,-3.2586,-3.3013,-3.2614,-3.2803,-3.3665,-3.3251,-3.3251,-3.3707,-3.3251,-3.3161,-3.3435,-3.3,-3.3314,-3.6063,-3.6228,-3.6405,-3.6405,-3.5994,-3.5696,0.0,-3.5893,-3.5621,-3.6094,-3.5873,-3.5684,-3.6128,-3.5923,-3.6088,-3.7371,-3.7591,-3.7942,-3.8945,-3.966,-4.0135,-4.0305,-4.2158,-4.3614,-4.4283,-4.4317,-4.4359,-4.4452,-4.4452,-4.4452,-4.4452,-4.4591,-4.4678,-4.4836,-4.4269,-4.4026,-4.4172,-4.3589,-4.329,-4.329,-4.329,-4.329,-4.329,-4.329,-4.329,-4.329,-4.329,-4.329,-4.329,-4.329,-4.2985,-4.244,-4.1707,-4.098,-4.0322,-3.9664,-3.9388,-3.9388,-3.9388,-3.9409,-3.9424,-3.9424,-3.946,-3.946,-3.946,-3.946,-3.9481,-3.9696,-3.9732,-3.9732,-3.9732,-3.9889,-3.996,-3.9768,-3.9889,-4.0016,-3.994,-3.9925,-3.9727,-3.9059,-3.8861,-3.8454,-3.7418,-3.7175,-3.6995,-3.6553,-3.6492,-3.6492,-3.6492,-3.6492,-3.623,-3.5553,-3.5414,-3.4829,-3.3521,-3.2782,-3.2398,-3.2398,-3.2398,-3.2425,-3.2492,-3.2437,-3.2453,-3.2574,-3.252,-3.252,-3.2574,-3.252,-3.2492,-3.2547,-3.248,-3.2807,-3.6228,-3.6323,-3.6405,-3.6405,-3.6194,-3.6081,-3.6355,-3.6182,-3.6094,-3.6367,-3.6182,-3.6094,-3.6367,-3.6169,-3.6329,-3.7205,-3.7608,-3.811,-3.8976,-3.9355,-3.9773,-4.0495,-4.1068,-4.1936,-4.33,-4.2902,-4.2819,-4.3355,-4.3402,-4.3402,-4.3402,-4.3984,-4.4047,-4.3462,-4.3192,-4.2739,-4.2159,-4.1885,-4.1713,-4.1755,-4.2278,-4.2537,-4.2578,-4.309,-4.329,-4.329,-4.329,-4.312,-4.2776,-4.2776,-4.2387,-4.1767,-4.107,-4.0651,-4.0322,-3.9664,-3.9388,-3.9388,-3.9388,-3.9388,-3.9388,-3.9388,-3.9388,-3.9388,-3.9388,-3.9388,-3.9424,-3.9517,-3.9517,-3.9517,-3.9517,-3.9604,-3.964,-3.9553,-3.9661,-3.9839,-3.9839,-3.9839,-3.9763,-3.9596,-3.9163,-3.8588,-3.7801,-3.7414,-3.7007,-3.6412,-3.6414,-3.6492,-3.6492,-3.6492,-3.623,-3.5553,-3.5506,-3.4922,-3.3521,-3.3136,-3.2813,-3.2413,-3.2398,-3.2398,-3.2398,-3.2398,-3.2398,-3.2398,-3.2398,-3.2398,-3.2398,-3.2398,-3.2598,-3.2982,-3.2982,-3.3354,-3.6358,-3.6405,-3.6405,-3.6405,-3.6405,-3.6405,-3.6405,-3.6405,-3.6405,-3.6405,-3.6405,-3.6405,-3.6405,-3.6405,-3.6631,-3.7299,-3.7613,-3.8089,-3.9082,-3.9221,-3.9562,-4.0461,-4.038,-4.0814,-4.2244,-4.1733,-4.1597,-4.2333,-4.2382,-4.2382,-4.2382,-4.2931,-4.2874,-4.2109,-4.19,-4.1435,-4.0603,-4.0603,-4.0603,-4.0603,-4.1296,-4.1603,-4.1645,-4.2263,-4.2563,-4.2548,-4.2628,-4.2421,-4.2015,-4.1822,-4.1492,-4.1055,-4.0338,-4.0092,-4.0068,-3.9589,-3.9388,-3.9388,-3.9388,-3.9388,-3.9388,-3.9388,-3.9388,-3.9388,-3.9388,-3.9388,-3.9388,-3.9388,-3.9388,-3.9388,-3.9388,-3.9388,-3.9388,-3.9388,-3.9517,-3.9625,-3.9625,-3.9625,-3.9661,-3.9818,-3.932,-3.8727,-3.8285,-3.7737,-3.7136,-3.6498,-3.638,-3.6367,-3.6414,-3.6414,-3.6199,-3.5677,-3.5492,-3.5,-3.3943,-3.3638,-3.3317,-3.2826,-3.2698,-3.2619,-3.2619,-3.2462,-3.2398,-3.2398,-3.2582,-3.2675,-3.2675,-3.2875,-3.3213,-3.369,-3.369,-3.4075,-3.6323,-3.6405,-3.6405,-3.6405,-3.6405,-3.6405,-3.6405,-3.6405,-3.6405,-3.6405,-3.6405,-3.6405,-3.6405,-3.6405,-3.6769,-3.7801,-3.755,-3.76,-3.8768,-3.9133,-3.9397,-3.9684,-4.0396,-4.0971,-4.1311,-4.1311,-4.1311,-4.1361,-4.1361,-4.1361,-4.1361,-4.0811,-4.068,-4.1042,-4.0472,-4.0296,-4.0603,-4.0603,-4.0603,-4.0603,-4.0646,-4.0646,-4.0646,-4.0689,-4.0689,-4.0703,-4.0956,-4.1062,-4.0989,-4.0415,-4.0268,-4.0338,-3.9475,-3.9245,-3.9454,-3.9388,-3.9388,-3.9388,-3.9388,-3.9388,-3.9388,-3.9388,-3.9388,-3.9388,-3.9388,-3.9388,-3.9388,-3.9388,-3.9388,-3.9388,-3.9388,-3.9388,-3.9388,-3.9388,-3.9409,-3.9424,-3.9424,-3.9424,-3.9424,-3.9424,-3.9409,-3.9206,-3.8742,-3.8129,-3.7533,-3.7049,-3.6446,-3.6068,-3.6179,-3.6211,-3.6133,-3.6006,-3.5507,-3.5126,-3.4988,-3.4288,-3.3894,-3.3863,-3.3418,-3.3169,-3.3169,-3.2668,-3.2398,-3.2398,-3.3044,-3.3367,-3.3367,-3.4104,-3.4459,-3.4474,-3.4474,-3.4828,-3.6358,-3.6405,-3.6405,-3.6405,-3.6405,-3.6405,-3.6405,-3.6405,-3.6405,-3.6405,-3.6405,-3.6518,-3.6883,-3.6656,-3.6895,-3.8341,-3.7789,-3.7701,-3.9207,-3.9209,-3.926,-3.9905,-4.0211,-4.0491,-4.0757,-4.111,-4.1311,-4.1311,-4.1311,-4.1141,-4.0736,-4.0527,-4.0123,-3.9481,-3.9303,-3.9057,-3.8787,-3.8832,-3.8832,-3.8832,-3.9401,-3.9986,-4.0603,-4.0603,-4.0378,-4.0027,-4.0108,-3.9678,-3.8951,-3.8723,-3.841,-3.8031,-3.7748,-3.803,-3.8612,-3.8612,-3.8922,-3.9388,-3.9388,-3.9388,-3.9388,-3.9388,-3.9388,-3.9388,-3.9388,-3.9388,-3.9388,-3.9388,-3.9388,-3.9388,-3.9388,-3.9388,-3.9388,-3.9388,-3.9388,-3.9388,-3.9388,-3.9388,-3.9388,-3.9388,-3.9388,-3.92,-3.8617,-3.8075,-3.733,-3.6313,-3.6061,-3.6005,-3.6068,-3.6068,-3.6053,-3.6005,-3.5839,-3.5551,-3.5048,-3.4759,-3.4425,-3.3925,-3.3757,-3.3649,-3.3649,-3.3495,-3.3403,-3.3403,-3.3764,-3.3945,-3.3945,-3.4323,-3.4736,-3.5167,-3.5167,-3.5537,-3.6405,-3.6405,-3.6405,-3.6405,-3.6405,-3.6405,-3.6405,-3.6405,-3.6405,-3.6405,-3.6405,-3.6518,-3.687,-3.6644,-3.6895,-3.8316,-3.7626,-3.7475,-3.917,-3.8919,-3.8869,-3.9728,-3.9956,-4.0236,-4.0453,-4.0808,-4.106,-4.1147,-4.1161,-4.095,-4.0448,-4.0239,-3.969,-3.8736,-3.8514,-3.8253,-3.79,-3.79,-3.79,-3.79,-3.8472,-3.906,-3.9621,-3.9401,-3.9086,-3.8745,-3.8588,-3.813,-3.738,-3.7212,-3.7023,-3.688,-3.6582,-3.6986,-3.7744,-3.7744,-3.8046,-3.8583,-3.9177,-3.9388,-3.9388,-3.9388,-3.9388,-3.9388,-3.9388,-3.9388,-3.9388,-3.9388,-3.9388,-3.9388,-3.9388,-3.9388,-3.9388,-3.9388,-3.9388,-3.9388,-3.9388,-3.9388,-3.9388,-3.9388,-3.9388,-3.9239,-3.8841,-3.8122,-3.7154,-3.5817,-3.5718,-3.5829,-3.5829,-3.5846,-3.5863,-3.5829,-3.5878,-3.5696,-3.5225,-3.5163,-3.4967,-3.4514,-3.4288,-3.4182,-3.4182,-3.4001,-3.3894,-3.3894,-3.4273,-3.45,-3.456,-3.494,-3.5384,-3.5845,-3.5845,-3.6076,-3.6405,-3.6405,-3.6405,-3.6405,-3.6405,-3.6405,-3.6405,-3.6405,-3.6405,-3.6405,-3.6405,-3.6417,-3.6443,-3.643,-3.6782,-3.7864,-3.7098,-3.6996,-3.868,-3.8366,-3.8328,-3.917,-3.9753,-4.0185,-4.0453,-4.0453,-4.0542,-4.0833,-4.0857,-4.0685,-4.036,-3.986,-3.9285,-3.8697,-3.8174,-3.79,-3.79,-3.79,-3.79,-3.79,-3.79,-3.7887,-3.7835,-3.726,-3.6972,-3.6899,-3.6561,-3.6413,-3.6346,-3.5859,-3.6082,-3.6699,-3.5923,-3.6122,-3.6841,-3.6841,-3.6841,-3.7127,-3.8708,-3.9301,-3.9352,-3.9388,-3.9388,-3.9388,-3.9388,-3.9388,-3.9388,-3.9388,-3.9388,-3.9388,-3.9388,-3.9388,-3.9388,-3.9388,-3.9388,-3.9388,-3.9388,-3.9388,-3.9388,-3.9388,-3.9388,-3.9322,-3.9247,-3.8152,-3.6869,-3.5618,-3.5407,-3.5407,-3.5504,-3.5589,-3.5574,-3.5457,-3.5524,-3.5542,-3.5457,-3.5439,-3.5472,-3.5504,-3.4986,-3.4704,-3.4736,-3.4197,-3.394,-3.397,-3.4683,-3.5079,-3.5187,-3.5859,-3.6274,-3.6429,-3.646,-3.6492,-3.6405,-3.6405,-3.6405,-3.6405,-3.6405,-3.6405,-3.6405,-3.6405,-3.6405,-3.6405,-3.6405,-3.6531,-3.6945,-3.6681,-3.6908,-3.8404,-3.741,-3.6996,-3.868,-3.8366,-3.8278,-3.8907,-3.946,-3.9839,-3.9903,-3.989,-4.0044,-4.0275,-4.0245,-4.0003,-3.9531,-3.9151,-3.8684,-3.8122,-3.7978,-3.79,-3.79,-3.79,-3.79,-3.79,-3.79,-3.7665,-3.722,-3.7077,-3.6541,-3.5717,-3.5618,-3.535,-3.4914,-3.4782,-3.4868,-3.5019,-3.4827,-3.5264,-3.6016,-3.6016,-3.6399,-3.6958,-3.7396,-3.7971,-3.8612,-3.9192,-3.9388,-3.9388,-3.9388,-3.9388,-3.9388,-3.9388,-3.9388,-3.9388,-3.9388,-3.9388,-3.9388,-3.9388,-3.9388,-3.9388,-3.9388,-3.9388,-3.9388,-3.9388,-3.8922,-3.8194,-3.7178,-3.6295,-3.5432,-3.4699,-3.4138,-3.4187,-3.5359,-3.5004,-3.4647,-3.461,-3.4143,-3.4056,-3.4562,-3.461,-3.4872,-3.5472,-3.4824,-3.4673,-3.5282,-3.4576,-3.4472,-3.5076,-3.5371,-3.5272,-3.4741,-3.5644,-3.5799,-3.5317,-3.5975,-3.6274,-3.6405,-3.6405,-3.6405,-3.6405,-3.6405,-3.6405,-3.6405,-3.6405,-3.6405,-3.6405,-3.6405,-3.6505,-3.6807,-3.6619,-3.6795,-3.7939,-3.7184,-3.682,-3.8014,-3.7852,-3.7852,-3.8429,-3.8981,-3.9433,-3.9672,-3.9697,-3.9636,-3.9588,-3.9725,-3.9586,-3.9068,-3.8834,-3.8415,-3.7729,-3.7854,-3.79,-3.79,-3.79,-3.79,-3.79,-3.79,-3.7586,-3.6998,-3.6737,-3.6136,-3.5286,-3.5012,-3.4711,-3.4397,-3.4397,-3.4397,-3.4397,-3.4397,-3.4716,-3.5114,-3.5114,-3.5413,-3.5883,-3.6227,-3.6674,-3.7246,-3.8046,-3.8308,-3.8383,-3.876,-3.8885,-3.8958,-3.9301,-3.9156,-3.8885,-3.8885,-3.8598,-3.8397,-3.876,-3.8885,-3.8958,-3.9301,-3.9388,-3.9301,-3.8922,-3.8211,-3.7214,-3.5933,-3.539,-3.482,-3.3954,-3.3457,-3.3506,-3.439,-3.409,-3.3837,-3.3837,-3.3457,-3.3353,-3.3768,-3.3837,-3.4022,-3.4471,-3.4056,-3.4022,-3.4471,-3.4056,-3.4022,-3.4471,-3.4562,-3.4447,-3.4124,-3.4629,-3.4909,-3.4909,-3.5415,-3.5816,-3.6392,-3.6405,-3.6405,-3.6405,-3.6405,-3.6405,-3.6405,-3.6405,-3.6405,-3.6405,-3.6405,-3.6405,-3.6405,-3.6405,-3.6593,-3.7098,-3.6769,-3.6606,-3.7111,-3.7186,-3.7387,-3.7939,-3.8517,-3.9057,-3.9534,-3.9584,-3.9358,-3.8793,-3.9105,-3.9135,-3.8649,-3.8528,-3.8184,-3.7472,-3.7657,-3.7808,-3.7808,-3.7808,-3.7808,-3.7854,-3.7776,-3.7423,-3.6867,-3.6266,-3.5704,-3.5142,-3.462,-3.4397,-3.4397,-3.4397,-3.4397,-3.4397,-3.4397,-3.4397,-3.4397,-3.4397,-3.4397,-3.4522,-3.5264,-3.5548,-3.5655,-3.6621,-3.688,-3.7049,-3.7796,-3.8037,-3.8188,-3.887,-3.8575,-3.8037,-3.8037,-3.7462,-3.7088,-3.7834,-3.8037,-3.8225,-3.8922,-3.9068,-3.8833,-3.8037,-3.7271,-3.6375,-3.5218,-3.4892,-3.4409,-3.3345,-3.3023,-3.2911,-3.2911,-3.3003,-3.3038,-3.3038,-3.2981,-3.2946,-3.3052,-3.3038,-3.3108,-3.3178,-3.3108,-3.3108,-3.3178,-3.3108,-3.3108,-3.3178,-3.3178,-3.3248,-3.3332,-3.3402,-3.3851,-3.4528,-3.4677,-3.5121,-3.6279,-3.6405,-3.6405,-3.6405,-3.6405,-3.6405,-3.6405,-3.6405,-3.6405,-3.6405,-3.6405,-3.6405,-3.6405,-3.6405,-3.6593,-3.7098,-3.6769,-3.6606,-3.7111,-3.7186,-3.7387,-3.7939,-3.8517,-3.8957,-3.9057,-3.9057,-3.8781,-3.8203,-3.8032,-3.7934,-3.7833,-3.751,-3.7304,-3.7168,-3.7201,-3.7261,-3.7261,-3.7261,-3.7353,-3.7551,-3.7059,-3.6649,-3.624,-3.5691,-3.5116,-3.4554,-3.445,-3.4397,-3.4397,-3.4397,-3.4397,-3.4397,-3.4397,-3.4397,-3.4397,-3.4397,-3.4397,-3.4439,-3.4551,-3.4634,-3.4868,-3.6425,-3.688,-3.6919,-3.7088,-3.7127,-3.7165,-3.7281,-3.7242,-3.7127,-3.7127,-3.7011,-3.6919,-3.7088,-3.7127,-3.7165,-3.7319,-3.7319,-3.7088,-3.6294,-3.6016,-3.5678,-3.4903,-3.3842,-3.31,-3.303,-3.2072,-3.1371,-3.1371,-3.1919,-3.229,-3.229,-3.175,-3.1653,-3.2232,-3.229,-3.2541,-3.3143,-3.2613,-3.2541,-3.3178,-3.2613,-3.2577,-3.3178,-3.3178,-3.2932,-3.2326,-3.2932,-3.3038,-3.2599,-3.3388,-3.4158,-3.5868,-3.6144,-3.6405,-3.6405,-3.6405,-3.6405,-3.6405,-3.6405,-3.6405,-3.6405,-3.6405,-3.6405,-3.6405,-3.6405,-3.6493,-3.6757,-3.6581,-3.6505,-3.6769,-3.6807,-3.696,-3.7513,-3.7826,-3.8103,-3.8391,-3.8417,-3.8191,-3.7626,-3.7482,-3.7392,-3.7392,-3.7086,-3.6968,-3.7108,-3.7108,-3.7108,-3.7108,-3.7108,-3.7014,-3.6869,-3.6573,-3.6083,-3.5492,-3.5232,-3.4832,-3.4397,-3.4272,-3.4243,-3.423,-3.4105,-3.4105,-3.4243,-3.4105,-3.4105,-3.4243,-3.4243,-3.4243,-3.4243,-3.4243,-3.4314,-3.4522,-3.521,-3.5521,-3.5682,-3.6162,-3.6281,-3.6346,-3.6763,-3.6582,-3.6281,-3.6281,-3.5963,-3.5722,-3.6162,-3.6582,-3.688,-3.688,-3.6582,-3.6162,-3.5776,-3.5345,-3.4818,-3.4246,-3.3567,-3.2975,-3.2454,-3.183,-3.1326,-3.1026,-3.1296,-3.1529,-3.1529,-3.1222,-3.1161,-3.1505,-3.1529,-3.1676,-3.2028,-3.1713,-3.1676,-3.2028,-3.1713,-3.1676,-3.2028,-3.2078,-3.1896,-3.1529,-3.1896,-3.2064,-3.211,-3.2541,-3.3178,-3.5433,-3.5868,-3.6267,-3.638,-3.6405,-3.6405,-3.6405,-3.6317,-3.6194,-3.6194,-3.6141,-3.6044,-3.6216,-3.6194,-3.6267,-3.6392,-3.6405,-3.6405,-3.6405,-3.6405,-3.6619,-3.7123,-3.7186,-3.7362,-3.7789,-3.7839,-3.76,-3.7048,-3.701,-3.701,-3.701,-3.6773,-3.6722,-3.6922,-3.6968,-3.6968,-3.6968,-3.6968,-3.6688,-3.6217,-3.6102,-3.5615,-3.4844,-3.4715,-3.449,-3.423,-3.4076,-3.4021,-3.3992,-3.381,-3.381,-3.3992,-3.3768,-3.3852,-3.4021,-3.4021,-3.4034,-3.4076,-3.4034,-3.416,-3.4314,-3.416,-3.4243,-3.4522,-3.5196,-3.5426,-3.5548,-3.6188,-3.5923,-3.5426,-3.5426,-3.4909,-3.4551,-3.5264,-3.5883,-3.6385,-3.6385,-3.5883,-3.5426,-3.5426,-3.4868,-3.4267,-3.3835,-3.3679,-3.3273,-3.2319,-3.1967,-3.1641,-3.1222,-3.1065,-3.0986,-3.0986,-3.0986,-3.0986,-3.0986,-3.0986,-3.0986,-3.0986,-3.0986,-3.0986,-3.0986,-3.0986,-3.0986,-3.0986,-3.0986,-3.0986,-3.0986,-3.0986,-3.1296,-3.1882,-3.1882,-3.2268,-3.5232,-3.5533,-3.5683,-3.6279,-3.6405,-3.6405,-3.6405,-3.5981,-3.5571,-3.5571,-3.5182,-3.5027,-3.5483,-3.5571,-3.578,-3.6329,-3.6405,-3.6405,-3.6405,-3.6405,-3.6619,-3.7123,-3.7186,-3.7199,-3.7262,-3.7262,-3.7023,-3.6518,-3.648,-3.648,-3.648,-3.643,-3.6452,-3.6452,-3.6452,-3.6452,-3.6452,-3.6452,-3.6315,-3.593,-3.5448,-3.5035,-3.4627,-3.4033,-3.3806,-3.3755,-3.3755,-3.3755,-3.3713,-3.3713,-3.3713,-3.3713,-3.3713,-3.3725,-3.3755,-3.3755,-3.3894,-3.4076,-3.381,-3.3894,-3.4118,-3.4118,-3.4243,-3.4397,-3.4522,-3.4522,-3.4509,-3.4592,-3.4592,-3.4522,-3.4522,-3.4481,-3.4439,-3.4522,-3.4592,-3.4634,-3.4634,-3.4551,-3.4522,-3.4522,-3.4439,-3.4384,-3.4332,-3.3914,-3.3548,-3.3443,-3.2489,-3.1784,-3.1732,-3.1313,-3.0986,-3.0986,-3.0986,-3.0986,-3.0986,-3.0986,-3.0986,-3.0986,-3.0986,-3.0986,-3.0986,-3.0986,-3.0986,-3.0986,-3.0986,-3.0986,-3.0986,-3.0986,-3.1011,-3.1086,-3.1086,-3.1505,-3.4437,-3.4756,-3.5132,-3.573,-3.5868,-3.5868,-3.5868,-3.5658,-3.5408,-3.5069,-3.4831,-3.4788,-3.4969,-3.527,-3.5571,-3.583,-3.6144,-3.6405,-3.6405,-3.6405,-3.6493,-3.6707,-3.6732,-3.6732,-3.6732,-3.6732,-3.6644,-3.643,-3.6405,-3.6405,-3.6405,-3.6405,-3.6405,-3.6405,-3.6405,-3.6405,-3.6405,-3.6031,-3.5638,-3.5163,-3.4621,-3.4199,-3.3857,-3.3628,-3.3598,-3.367,-3.3556,-3.3513,-3.3513,-3.3398,-3.3398,-3.3513,-3.3398,-3.3398,-3.3513,-3.3513,-3.3611,-3.3654,-3.3556,-3.3683,-3.3852,-3.3738,-3.381,-3.4021,-3.4314,-3.4314,-3.4243,-3.4243,-3.4243,-3.4243,-3.4243,-3.4314,-3.4397,-3.4397,-3.4397,-3.4397,-3.4397,-3.4314,-3.4243,-3.4243,-3.4243,-3.4243,-3.4243,-3.4061,-3.376,-3.3422,-3.294,-3.2395,-3.1708,-3.1525,-3.1365,-3.1013,-3.0986,-3.0986,-3.0986,-3.0986,-3.0986,-3.0986,-3.0986,-3.0986,-3.0986,-3.0986,-3.0986,-3.0986,-3.0986,-3.0986,-3.0986,-3.0986,-3.0986,-3.0986,-3.0986,-3.1161,-3.3859,-3.4186,-3.4568,-3.5119,-3.5257,-3.5257,-3.5257,-3.5132,-3.4906,-3.4562,-3.4349,-3.4286,-3.4449,-3.4881,-3.5307,-3.547,-3.6006,-3.6405,-3.6405,-3.6405,-3.6405,-3.6405,-3.6405,-3.6405,-3.6405,-3.6405,-3.6405,-3.6405,-3.6405,-3.6405,-3.6405,-3.6405,-3.6405,-3.6405,-3.6405,-3.6405,-3.6405,-3.5818,-3.5219,-3.4668,-3.4161,-3.3683,-3.3313,-3.3313,-3.3398,-3.3513,-3.3356,-3.3313,-3.3313,-3.3154,-3.3197,-3.3313,-3.3154,-3.3197,-3.3313,-3.3313,-3.3356,-3.3398,-3.3313,-3.3441,-3.3598,-3.3441,-3.3484,-3.3598,-3.4063,-3.4105,-3.3992,-3.3992,-3.3992,-3.3992,-3.3992,-3.4105,-3.4189,-3.4189,-3.4272,-3.4272,-3.423,-3.4147,-3.4076,-3.3992,-3.3992,-3.3992,-3.3992,-3.3992,-3.385,-3.3408,-3.3215,-3.2828,-3.2041,-3.1746,-3.1487,-3.1173,-3.0927,-3.0874,-3.0986,-3.0949,-3.0949,-3.0986,-3.0986,-3.0986,-3.0986,-3.0986,-3.0986,-3.0986,-3.0986,-3.0986,-3.0986,-3.0986,-3.0986,-3.0986,-3.0986,-3.0986,-3.3759,-3.3909,-3.4035,-3.4587,-3.4726,-3.4726,-3.4726,-3.4311,-3.3922,-3.3909,-3.347,-3.3257,-3.3809,-3.4361,-3.4868,-3.5408,-3.6006,-3.6405,-3.6405,-3.6405,-3.6405,-3.6405,-3.6405,-3.6405,-3.6405,-3.6405,-3.6405,-3.6405,-3.6405,-3.6405,-3.6405,-3.6405,-3.6405,-3.6405,-3.6405,-3.6405,-3.6405,-3.5818,-3.5219,-3.4668,-3.4161,-3.3608,-3.3124,-3.3124,-3.3124,-3.3124,-3.3124,-3.3124,-3.3124,-3.3124,-3.3124,-3.3124,-3.3124,-3.3124,-3.3124,-3.3124,-3.324,-3.3356,-3.3154,-3.324,-3.3398,-3.3398,-3.3283,-3.3197,-3.3598,-3.3725,-3.3713,-3.3713,-3.3713,-3.3713,-3.3713,-3.3725,-3.3713,-3.3713,-3.3894,-3.4034,-3.3755,-3.3894,-3.4034,-3.3768,-3.3713,-3.3713,-3.3713,-3.3713,-3.3713,-3.3713,-3.3264,-3.2877,-3.2877,-3.1906,-3.1292,-3.1461,-3.0817,-3.0558,-3.0986,-3.0811,-3.0811,-3.0986,-3.0986,-3.0986,-3.0986,-3.0986,-3.0986,-3.0986,-3.0986,-3.0986,-3.0986,-3.0986,-3.0986,-3.0986,-3.0986,-3.0986,-3.3294,-3.3332,-3.347,-3.4022,-3.4161,-3.4161,-3.4161,-3.4022,-3.3796,-3.342,-3.3206,-3.3174,-3.3307,-3.4098,-3.4776,-3.4906,-3.5755,-3.6405,-3.6405,-3.5763,-3.5319,-3.5319,-3.5319,-3.5319,-3.5319,-3.5966,-3.6405,-3.6405,-3.6405,-3.6405,-3.6405,-3.6405,-3.6405,-3.6405,-3.6405,-3.6182,-3.5805,-3.5207,-3.4655,-3.4161,-3.3608,-3.3244,-3.3124,-3.3124,-3.3124,-3.3124,-3.3124,-3.3124,-3.3124,-3.3124,-3.3124,-3.3124,-3.3124,-3.3124,-3.3124,-3.3124,-3.3154,-3.3197,-3.3124,-3.3154,-3.3197,-3.3197,-3.3154,-3.3124,-3.324,-3.3398,-3.3471,-3.3471,-3.3471,-3.3471,-3.3471,-3.3598,-3.3713,-3.3713,-3.3755,-3.381,-3.3725,-3.3641,-3.3611,-3.3513,-3.3471,-3.3471,-3.3471,-3.3471,-3.3471,-3.3471,-3.3331,-3.3089,-3.2666,-3.2475,-3.2226,-3.1869,-3.1173,-3.0765,-3.0799,-3.0609,-3.0571,-3.0761,-3.0811,-3.0836,-3.0986,-3.0986,-3.0986,-3.0986,-3.0986,-3.0986,-3.0986,-3.0986,-3.0986,-3.0986,-3.0986,-3.0986,-3.3124,-3.3124,-3.3156,-3.3508,-3.3583,-3.3583,-3.3583,-3.3583,-3.3483,-3.3156,-3.2797,-3.2537,-3.2537,-3.3089,-3.3582,-3.3582,-3.4481,-3.5174,-3.5174,-3.4629,-3.419,-3.419,-3.419,-3.419,-3.419,-3.5174,-3.581,-3.581,-3.6156,-3.6405,-3.6405,-3.6405,-3.6317,-3.6056,-3.6056,-3.5893,-3.5495,-3.4788,-3.4236,-3.3884,-3.3345,-3.3124,-3.3124,-3.3124,-3.3124,-3.3124,-3.3124,-3.3124,0.0,-3.3124,-3.3124,-3.3124,-3.3124,-3.3124,-3.3124,-3.3124,-3.3124,-3.3124,-3.3124,-3.3124,-3.3124,-3.3124,-3.3124,-3.3124,-3.3124,-3.3197,-3.3283,-3.3283,-3.3283,-3.3283,-3.3283,-3.3398,-3.3471,-3.3471,-3.3513,-3.3556,-3.3471,-3.3441,-3.3398,-3.3313,-3.3283,-3.3283,-3.3283,-3.3283,-3.3283,-3.3283,-3.3283,-3.3156,-3.276,-3.2659,-3.2517,-3.2202,-3.1546,-3.0988,-3.0791,-3.0471,-3.0381,-3.0571,-3.0584,-3.0647,-3.0748,-3.0748,-3.0748,-3.0748,-3.0836,-3.0874,-3.0874,-3.0949,-3.0986,-3.0986,-3.0986,-3.0986,0.0,-3.3124,-3.3124,-3.3124,-3.3124,-3.3124,-3.3124,-3.3124,0.0,-3.3025,-3.2264,-3.1581,-3.1492,-3.161,-3.1685,-3.1685,-3.2535,-3.3201,-3.3201,-3.3151,-3.3051,-3.3001,-3.3051,-3.3101,-3.3101,-3.4141,-3.4775,-3.4775,-3.581,-3.6405,-3.6405,-3.6367,-3.6069,-3.552,-3.542,-3.5382,-3.5382,-3.4412,-3.3884,-3.3834,-3.3319,-3.3124,-3.3124,-3.3124,-3.3124,-3.3124,-3.3124,-3.3124,-3.3124,-3.3124,-3.3124,-3.3124,-3.3124,-3.3124,-3.3124,-3.3124,-3.3124,-3.3124,-3.3124,-3.3124,-3.3124,-3.3124,-3.3124,-3.3124,-3.3124,-3.3124,-3.3124,-3.3124,-3.3124,-3.3124,-3.3124,-3.3124,-3.3124,-3.3124,-3.324,-3.3313,-3.3154,-3.324,-3.3313,-3.3154,-3.3124,-3.3124,-3.3124,-3.3124,-3.3124,-3.3124,-3.3124,-3.3124,-3.3124,-3.2604,-3.2319,-3.2499,-3.187,-3.1329,-3.1025,-3.0481,-3.0203,-3.0368,-3.0368,-3.0406,-3.0406,-3.0406,-3.0406,-3.0406,-3.0571,-3.0698,-3.0698,-3.0874,-3.0986,-3.0986,-3.0986,-3.0986,-3.3124,0.0,-3.3124,-3.3124,-3.3124,-3.3124,0.0,-3.3124,-3.2896,-3.212,-3.1757,-3.1403,-3.0666,-3.1182,-3.1685,-3.1685,-3.2535,-3.3201,-3.3201,-3.2488,-3.1688,-3.0847,-3.1494,-3.1982,-3.1982,-3.3674,-3.4775,-3.4775,-3.581,-3.6405,-3.6405,-3.5968,-3.5633,-3.5495,-3.468,-3.4286,-3.4286,-3.4035,-3.3684,-3.3269,-3.3144,-3.3124,-3.3124,-3.3124,-3.3124,-3.3124,-3.3124,-3.3124,-3.3124,-3.3124,-3.3124,-3.3124,-3.3124,-3.3124,-3.3124,-3.3124,-3.3124,-3.3124,-3.3124,-3.3124,-3.3124,-3.3124,-3.3124,-3.3124,-3.3124,-3.3124,-3.3124,-3.3124,-3.3124,-3.3124,-3.3124,-3.3124,-3.3124,-3.3124,-3.3154,-3.3154,-3.3124,-3.3154,-3.3154,-3.3124,-3.3124,-3.3124,-3.3124,-3.3124,-3.3124,-3.3124,-3.3124,-3.3124,-3.3124,-3.2998,-3.2923,-3.2965,-3.2407,-3.1964,-3.1879,-3.1052,-3.0388,-3.0177,-3.019,-3.0228,-3.0406,-3.0406,-3.0406,-3.0406,-3.0444,-3.0533,-3.0698,-3.0736,-3.0849,-3.0986,-3.0986,-3.0986,-3.3124,-3.3124,-3.3124,-3.3124,-3.3124,-3.3124,-3.3124,-3.2754,-3.2264,-3.1713,-3.0902,-3.0205,-2.9882,-3.0083,-3.0367,-3.0548,-3.1267,-3.175,-3.175,-3.1238,-3.064,-3.0047,-3.0495,-3.0888,-3.0888,-3.2376,-3.3327,-3.3327,-3.4775,-3.5556,-3.531,-3.5413,-3.527,-3.4756,-3.4211,-3.3897,-3.3897,-3.3646,-3.337,-3.3124,-3.3124,-3.3124,-3.3124,-3.3124,-3.3124,-3.3124,-3.3124,-3.3124,-3.3124,-3.3124,-3.3124,-3.3124,-3.3124,-3.3124,-3.3124,-3.3124,-3.3124,-3.3124,-3.3124,-3.3124,-3.3124,-3.3124,-3.3124,-3.3124,-3.3124,-3.3124,-3.3124,-3.3124,-3.3124,-3.3124,-3.3124,-3.3124,-3.3124,-3.3124,-3.3124,-3.3124,-3.3124,-3.3124,-3.3124,-3.3124,-3.3124,-3.3124,-3.3124,-3.3124,-3.3124,-3.3124,-3.3124,-3.3124,-3.3124,-3.3124,-3.3124,-3.3124,-3.2805,-3.2503,-3.224,-3.1687,-3.105,-3.0363,-3.0111,-3.0011,-3.0113,-3.0113,-3.019,-3.0254,-3.0254,-3.0381,-3.0571,-3.0571,-3.0685,-3.0836,-3.0836,-3.0911,-3.3038,-3.3038,-3.3038,-3.3081,-3.3124,-3.3081,-3.2896,-3.2208,-3.1492,-3.1169,-2.9806,-2.8726,-2.9083,-2.8779,-2.8712,-2.9228,-2.9694,-2.9994,-2.9994,-2.9994,-2.9994,-2.9994,-2.9994,-2.9994,-2.9994,-3.0981,-3.1575,-3.1575,-3.3357,-3.427,-3.3827,-3.4554,-3.4624,-3.3689,-3.3721,-3.3771,-3.3771,-3.3307,-3.3124,-3.3124,-3.3124,-3.3124,-3.3124,-3.3124,-3.3124,-3.3124,-3.3124,-3.3124,-3.3124,-3.3124,-3.3124,-3.3124,-3.3124,-3.3124,-3.3124,-3.3124,-3.3124,-3.3124,-3.3124,-3.3124,-3.3124,-3.3124,-3.3124,-3.3124,-3.3124,-3.3124,-3.3124,-3.3124,-3.3124,-3.3124,-3.3124,-3.3124,-3.3124,-3.3124,-3.3124,-3.3124,-3.3124,-3.3124,-3.3124,-3.3124,-3.3124,-3.3124,-3.3124,-3.3124,-3.3124,-3.3124,-3.3124,-3.3124,-3.3124,-3.3124,-3.3124,-3.3124,-3.3124,-3.288,-3.239,-3.2265,-3.1825,-3.0922,-3.0269,-2.988,-2.9792,-2.9792,-2.9869,-3.0049,-3.0049,-3.0152,-3.0368,-3.0368,-3.0457,-3.066,-3.066,-3.0773,-3.2754,-3.2754,-3.281,-3.3025,-3.3124,-3.2896,-3.2033,-3.1713,-3.108,-2.9189,-2.8552,-2.8246,-2.7928,-2.8089,-2.8501,-2.9177,-2.9694,-2.9994,-2.9994,-2.9994,-2.9994,-2.9994,-2.9994,-2.9994,-2.9994,-3.0981,-3.1575,-3.1575,-3.2392,-3.2816,-3.2734,-3.2826,-3.2823,-3.2653,-3.3027,-3.3206,-3.3206,-3.3162,-3.3124,-3.3124,-3.3124,-3.3124,-3.3124,-3.3124,-3.3124,-3.3124,-3.3124,-3.3124,-3.3124,-3.3124,-3.3124,-3.3124,-3.3124,-3.3124,-3.3124,-3.3124,-3.3124,-3.3124,-3.3124,-3.3124,-3.3124,-3.3124,-3.3124,-3.3124,-3.3124,-3.3124,-3.3124,-3.3124,-3.3124,-3.3124,-3.3124,-3.3124,-3.3124,-3.3124,-3.3124,-3.3124,-3.3124,-3.3124,-3.3124,-3.3124,-3.3124,-3.3124,-3.3124,-3.3124,-3.3124,-3.3124,-3.3124,-3.3124,-3.3124,-3.3124,-3.3124,-3.3124,-3.3124,-3.3043,-3.2955,-3.2491,-3.2139,-3.1976,-3.1035,-3.0281,-2.9817,-2.9792,-2.9792,-2.9869,-2.9869,-2.9934,-3.0152,-3.0152,-3.0267,-3.0444,-3.0444,-3.0571,-3.2562,-3.2562,-3.2419,-3.2033,-3.1977,-3.1777,-3.0654,-3.0,-2.9304,-2.8297,-2.7862,-2.7679,-2.772,-2.8066,-2.8512,-2.9124,-2.9369,-2.9564,-2.9774,-2.9774,-2.9827,-2.9994,-2.9994,-2.9994,-2.9994,-3.0443,-3.0627,-3.0372,-3.1135,-3.1412,-3.0849,-3.1356,-3.1752,-3.1973,-3.2198,-3.2525,-3.3068,-3.3124,-3.3124,-3.3124,-3.3124,-3.3124,-3.3124,-3.3124,-3.3124,-3.3124,-3.3124,-3.3124,-3.3124,-3.3124,-3.3124,-3.3124,-3.3124,-3.3124,-3.3124,-3.3124,-3.3124,-3.3124,-3.3124,-3.3124,-3.3124,-3.3124,-3.3124,-3.3124,-3.3124,-3.3124,-3.3124,-3.3124,-3.3124,-3.3124,-3.3124,-3.3124,-3.3124,-3.3124,-3.3124,-3.3124,-3.3124,-3.3124,-3.3124,-3.3124,-3.3124,-3.3124,-3.3124,-3.3124,-3.3124,-3.3124,-3.3124,-3.3124,-3.3124,-3.3124,-3.3124,-3.3124,-3.3124,-3.3124,-3.3124,-3.283,-3.2416,-3.1813,-3.1035,-3.0507,-3.0244,-2.9942,-2.9792,-2.9792,-2.9792,-2.9869,-2.9934,-2.9934,-3.0049,-3.0228,-3.0228,-3.0343,-3.23,-3.2113,-3.1693,-3.0666,-3.0744,-3.0777,-2.935,-2.8426,-2.7861,-2.7694,-2.7316,-2.7212,-2.7763,-2.8286,-2.8739,-2.9029,-2.9079,-2.9185,-2.9448,-2.9554,-2.9659,-2.9879,-2.9942,-2.9994,-2.9994,-2.9891,-2.9684,-2.9332,-2.987,-2.9867,-2.9106,-2.9938,-3.0618,-3.0913,-3.1347,-3.1989,-3.2754,-3.2982,-3.3124,-3.3124,-3.3124,-3.3124,-3.3124,-3.3124,-3.3124,-3.3124,-3.3124,-3.3124,-3.3124,-3.3124,-3.3124,-3.3124,-3.3124,-3.3124,-3.3124,-3.3124,-3.3124,-3.3124,-3.3124,-3.3124,-3.3124,-3.3124,-3.3124,-3.3124,-3.3124,-3.3124,-3.3124,-3.3124,-3.3124,-3.3124,-3.3124,-3.3124,-3.3124,-3.3124,-3.3124,-3.3124,-3.3124,-3.3124,-3.3124,-3.3124,-3.3124,-3.3124,-3.3124,-3.3124,-3.3124,-3.3124,-3.3124,-3.3124,-3.3124,-3.3124,-3.3124,-3.3124,-3.3124,-3.3124,-3.3124,-3.3124,-3.2747,-3.1838,-3.1286,-3.0871,-3.062,-3.0218,-2.993,-2.9792,-2.9792,-2.9792,-2.9792,-2.9792,-2.9869,-3.0049,-3.0049,-3.0152,-3.2038,-3.1339,-3.0351,-2.9143,-2.9875,-3.0429,-2.8426,-2.797,-2.772,-2.6999,-2.6834,-2.7062,-2.7907,-2.8623,-2.9092,-2.9122,-2.9079,-2.9132,-2.9132,-2.9396,-2.9606,-2.9606,-2.9837,-2.9994,-2.9994,-2.9611,-2.9342,-2.9301,-2.8554,-2.8084,-2.8022,-2.8548,-2.8896,-2.891,-3.0678,-3.1625,-3.1713,-3.2624,-3.3124,-3.3124,-3.3124,-3.3124,-3.3124,-3.3124,-3.3124,-3.3124,-3.3124,-3.3124,-3.3124,-3.3124,-3.3124,-3.3124,-3.3124,-3.3124,-3.3124,-3.3124,-3.3124,-3.3124,-3.3124,-3.3124,-3.3124,-3.3124,-3.3124,-3.3124,-3.3124,-3.3124,-3.3124,-3.3124,-3.3124,-3.3124,-3.3124,-3.3124,-3.3124,-3.3124,-3.3124,-3.3124,-3.3124,-3.3124,-3.3124,-3.3124,-3.3124,-3.3124,-3.3124,-3.3124,-3.3124,-3.3124,-3.3124,-3.3124,-3.3124,-3.3124,-3.3124,-3.3124,-3.3124,-3.3124,-3.3124,-3.3124,-3.3043,-3.2998,-3.2416,-3.165,-3.0658,-3.057,-3.0319,-2.9804,-2.9792,-2.9792,-2.9792,-2.9792,-2.9792,-2.983,-2.983,-2.9934,-3.1048,-3.0588,-2.9886,-2.8215,-2.8215,-2.8262,-2.6829,-2.6774,-2.688,-2.6586,-2.7009,-2.756,-2.8098,-2.8439,-2.8601,-2.8601,-2.8601,-2.8664,-2.8834,-2.893,-2.9195,-2.9554,-2.9669,-2.9713,-2.9591,-2.9404,-2.9063,-2.8483,-2.8121,-2.78,-2.7521,-2.7715,-2.8081,-2.8678,-3.0034,-3.0991,-3.1581,-3.2581,-3.3124,-3.3124,-3.3124,-3.3124,-3.3124,-3.3124,-3.3124,-3.3124,-3.3124,-3.3124,-3.3124,-3.3124,-3.3124,-3.3124,-3.3124,-3.3124,-3.3124,-3.3124,-3.3124,-3.3124,-3.3124,-3.3124,-3.3124,-3.3124,-3.3124,-3.3124,-3.3124,-3.3124,-3.3124,-3.3124,-3.3124,-3.3124,-3.3124,-3.3124,-3.3124,-3.3124,-3.3124,-3.3124,-3.3124,-3.3124,-3.3124,-3.3124,-3.3124,-3.3124,-3.3124,-3.3124,-3.3124,-3.3124,-3.3124,-3.3124,-3.3124,-3.3124,-3.3124,-3.3124,-3.3124,-3.3124,-3.3124,-3.3124,-3.3124,-3.3124,-3.2528,-3.2026,-3.1625,-3.0972,-3.052,-3.0306,-2.9967,-2.9792,-2.9792,-2.9792,-2.9792,-2.9792,-2.9792,-2.983,-3.0407,-2.9749,-2.8912,-2.7558,-2.6962,-2.6592,-2.6045,-2.6172,-2.6426,-2.6562,-2.7266,-2.7949,-2.8242,-2.8291,-2.8291,-2.8291,-2.8291,-2.8344,-2.8568,-2.8631,-2.8834,-2.9248,-2.9396,-2.938,-2.9199,-2.9024,-2.8672,-2.7937,-2.779,-2.7583,-2.732,-2.7309,-2.7584,-2.8222,-2.9222,-3.017,-3.1169,-3.212,-3.281,-3.3124,-3.3124,-3.3124,-3.3124,-3.3124,-3.3124,-3.3124,-3.3124,-3.3124,-3.3124,-3.3124,-3.3124,-3.3124,-3.3124,-3.3124,-3.3124,-3.3124,-3.3124,-3.3124,-3.3124,-3.3124,-3.3124,-3.3124,-3.3124,-3.3124,-3.3124,-3.3124,-3.3124,-3.3124,-3.3124,-3.3124,-3.3124,-3.3124,-3.3124,-3.3124,-3.3124,-3.3124,-3.3124,-3.3124,-3.3124,-3.3124,-3.3124,-3.3124,-3.3124,-3.3124,-3.3124,-3.3124,-3.3124,-3.3124,-3.3124,-3.3124,-3.3124,-3.3124,-3.3124,-3.3124,-3.3124,-3.3124,-3.3124,-3.3124,-3.2704,-3.2403,-3.2227,-3.1512,-3.1035,-3.0871,-3.0331,-3.0055,-3.0055,-2.988,-2.9792,-2.9792,-2.9792,-2.9792,-3.017,-2.8716,-2.7189,-2.7189,-2.6418,-2.5801,-2.6289,-2.6396,-2.6514,-2.6943,-2.7705,-2.8291,-2.8291,-2.8291,-2.8291,-2.8291,-2.8291,-2.8291,-2.8291,-2.8514,-2.8684,-2.8684,-2.893,-2.9066,-2.89,-2.8442,-2.8133,-2.7906,-2.751,-2.7309,-2.7309,-2.7309,-2.7309,-2.7309,-2.8222,-2.9176,-3.017,-3.1125,-3.212,-3.3081,-3.3124,-3.3124,-3.3124,-3.3124,-3.3124,-3.3124,-3.3124,-3.3124,-3.3124,-3.3124,-3.3124,-3.3124,-3.3124,-3.3124,-3.3124,-3.3124,-3.3124,-3.3124,-3.3124,-3.3124,-3.3124,-3.3124,-3.3124,-3.3124,-3.3124,-3.3124,-3.3124,-3.3124,-3.3124,-3.3124,-3.3124,-3.3124,-3.3124,-3.3124,-3.3124,-3.3124,-3.3124,-3.3124,-3.3124,-3.3124,-3.3124,-3.3124,-3.3124,-3.3124,-3.3124,-3.3124,-3.3124,-3.3124,-3.3124,-3.3124,-3.3124,-3.3124,-3.3124,-3.3124,-3.3124,-3.3124,-3.3124,-3.3124,-3.3124,-3.2817,-3.224,-3.2215,-3.1951,-3.1411,-3.0884,-3.062,-3.062,-3.0068,-2.9817,-2.9817,-2.9817,-2.9817,-2.9326,-2.8215,-2.7047,-2.6322,-2.5917,-2.5801,-2.6289,-2.6621,-2.7031,-2.7764,-2.8115,-2.8291,-2.8291,-2.8291,-2.8291,-2.8291,-2.8291,-2.8291,-2.8291,-2.8354,-2.8514,-2.8684,-2.8503,-2.8343,-2.8157,-2.7913,-2.7613,-2.7221,-2.7239,-2.7309,-2.7309,-2.7309,-2.7309,-2.7309,-2.8222,-2.8852,-2.913,-3.0767,-3.1757,-3.2033,-3.2754,-3.3124,-3.3124,-3.3124,-3.3124,-3.3124,-3.3124,-3.3124,-3.3124,-3.3124,-3.3124,-3.3124,-3.3124,-3.3124,-3.3124,-3.3124,-3.3124,-3.3124,-3.3124,-3.3124,-3.3124,-3.3124,-3.3124,-3.3124,-3.3124,-3.3124,-3.3124,-3.3124,-3.3124,-3.3124,-3.3124,-3.3124,-3.3124,-3.3124,-3.3124,-3.3124,-3.3124,-3.3124,-3.3124,-3.3124,-3.3124,-3.3124,-3.3124,-3.3124,-3.3124,-3.3124,-3.3124,-3.3124,-3.3124,-3.3124,-3.3124,-3.3124,-3.3124,-3.3124,-3.3124,-3.3124,-3.3124,-3.3124,-3.3124,-3.3006,-3.283,-3.2428,-3.2139,-3.1976,-3.1436,-3.116,-3.116,-3.0997,-3.0922,-3.0922,-3.0922,-3.0922,-2.8866,-2.7662,-2.6466,-2.5868,-2.5693,-2.5849,-2.6494,-2.6973,-2.7471,-2.8154,-2.8291,-2.8291,-2.8291,-2.8291,-2.8291,-2.8291,-2.8291,-2.8291,-2.8291,-2.8291,-2.8344,-2.8514,-2.8173,-2.7843,-2.7652,-2.7402,-2.7116,-2.6787,-2.6986,-2.7129,-2.7129,-2.7262,-2.7309,-2.7309,-2.7857,-2.8315,-2.8678,-2.9852,-3.0857,-3.1625,-3.2208,-3.2711,-3.3124,-3.3124,-3.3124,-3.3124,-3.3124,-3.3124,-3.3124,-3.3124,-3.3124,-3.3124,-3.3124,-3.3124,-3.3124,-3.3124,-3.3124,-3.3124,-3.3124,-3.3124,-3.3124,-3.3124,-3.3124,-3.3124,-3.3124,-3.3124,-3.3124,-3.3124,-3.3124,-3.3124,-3.3124,-3.3124,-3.3124,-3.3124,-3.2797,-3.2481,-3.2481,-3.2208,-3.1933,-3.1933,-3.1933,-3.2077,-3.2438,-3.2481,-3.2624,-3.3025,-3.3124,-3.3124,-3.3124,-3.3124,-3.2939,-3.2537,-3.2481,-3.2481,-3.2481,-3.2481,-3.2667,-3.3068,-3.3124,-3.3124,-3.3124,-3.2742,-3.2554,-3.2554,-3.2001,-3.1725,-3.1725,-3.1499,-3.1386,-3.1386,-3.1386,-3.1386,-2.868,-2.721,-2.5693,-2.5693,-2.5742,-2.6005,-2.6836,-2.7383,-2.7885,-2.8213,-2.8291,-2.8291,-2.8291,-2.8291,-2.8291,-2.8291,-2.8291,-2.8291,-2.8291,-2.8291,-2.8281,-2.8242,-2.7861,-2.7535,-2.7329,-2.6943,-2.6684,-2.6478,-2.6699,-2.6853,-2.6853,-2.7129,-2.7262,-2.7262,-2.7309,-2.7715,-2.8538,-2.8678,-2.9624,-3.1492,-3.1581,-3.212,-3.3081,-3.3081,-3.3124,-3.3124,-3.3124,-3.3124,-3.3124,-3.3124,-3.3124,-3.3124,-3.3124,-3.3124,-3.3124,-3.3068,-3.3081,-3.3124,-3.3068,-3.3081,-3.3124,-3.3124,-3.3124,-3.3124,-3.3124,-3.3124,-3.3124,-3.3124,-3.3124,-3.3068,-3.3068,-3.2982,-3.2939,-3.2939,-3.2264,-3.1581,-3.1581,-3.0857,-3.0215,-3.0215,-3.0215,-3.0486,-3.1315,-3.1492,-3.1801,-3.2797,-3.2939,-3.2939,-3.2939,-3.3025,-3.2667,-3.1581,-3.1536,-3.1581,-3.1492,-3.1492,-3.1901,-3.2896,-3.2939,-3.2982,-3.3124,-3.3124,-3.3124,-3.3124,-3.2554,-3.229,-3.229,-3.1788,-3.1537,-3.1537,-3.1537,-3.1537,-2.868,-2.721,-2.5693,-2.5693,-2.6191,-2.6787,-2.6973,-2.7607,-2.8184,-2.8271,-2.8291,-2.8291,-2.8291,-2.8291,-2.8291,-2.8291,-2.8291,-2.8291,-2.8291,-2.8291,-2.8174,-2.7894,-2.7422,-2.6982,-2.6663,-2.6409,-2.6248,-2.6207,-2.6448,-2.6602,-2.6602,-2.6842,-2.6996,-2.6996,-2.7167,-2.7404,-2.7584,-2.8305,-2.9314,-3.0486,-3.1258,-3.2033,-3.281,-3.2982,-3.3124,-3.3124,-3.3124,-3.3124,-3.3124,-3.3124,-3.3124,-3.3124,-3.3124,-3.3124,-3.3068,-3.2853,-3.2896,-3.3068,-3.2853,-3.2939,-3.3124,-3.3124,-3.3124,-3.3124,-3.3124,-3.3124,-3.3124,-3.3124,-3.3124,-3.3038,-3.2853,-3.2196,-3.1645,-3.1657,-3.1625,-3.1581,-3.1581,-3.0857,-3.0215,-3.0215,-3.0215,-3.026,-3.0486,-3.0486,-3.08,-3.1769,-3.1945,-3.1945,-3.1945,-3.2624,-3.2438,-3.0666,-3.1169,-3.1303,-3.0576,-3.0486,-3.0902,-3.1857,-3.1945,-3.2264,-3.3068,-3.3124,-3.3124,-3.3124,-3.2955,-3.2893,-3.2893,-3.2767,-3.2717,-3.2717,-3.2717,-3.2717,-2.8819,-2.7568,-2.6284,-2.583,-2.623,-2.6709,-2.6709,-2.7217,-2.7744,-2.7949,-2.8154,-2.8291,-2.8291,-2.8291,-2.8291,-2.8291,-2.8291,-2.8291,-2.8291,-2.8125,-2.791,-2.7748,-2.7109,-2.6631,-2.6406,-2.6084,-2.5917,-2.5917,-2.6159,-2.6304,-2.6304,-2.6544,-2.6699,-2.6699,-2.6986,-2.7023,-2.6928,-2.7668,-2.862,-2.9829,-3.0441,-3.1359,-3.255,-3.281,-3.2982,-3.3124,-3.3124,-3.3124,-3.3124,-3.3124,-3.3124,-3.3124,-3.3124,-3.3025,-3.2896,-3.2754,-3.2723,-3.2779,-3.2723,-3.281,-3.2939,-3.3081,-3.3025,-3.2939,-3.3081,-3.3025,-3.2939,-3.3081,-3.3025,-3.2754,-3.2152,-3.1512,-3.0923,-3.0519,-3.0204,-3.0068,-3.017,-2.9486,-2.8806,-2.8806,-2.8806,-2.8945,-2.9395,-2.9897,-3.0351,-3.0857,-3.1315,-3.1581,-3.1581,-3.2494,-3.2351,-3.0396,-3.0621,-3.0531,-2.9578,-2.9498,-2.9897,-3.0857,-3.1359,-3.1857,-3.2351,-3.2853,-3.3124,-3.3124,-3.3124,-3.3124,-3.3124,-3.3124,-3.3124,-3.3124,-3.3124,-3.3124,-2.9189,-2.8121,-2.6962,-2.5965,-2.6064,-2.6387,-2.6387,-2.6709,-2.7119,-2.748,-2.7891,-2.8203,-2.8281,-2.8291,-2.8291,-2.8291,-2.8232,-2.8184,-2.8184,-2.7822,-2.7529,-2.7451,-2.6816,-2.6357,-2.6279,-2.5947,-2.5693,-2.5693,-2.5917,-2.6052,-2.6052,-2.6304,-2.6448,-2.6448,-2.6747,-2.6747,-2.6496,-2.6976,-2.7882,-2.9131,-2.9658,-3.0779,-3.24,-3.2506,-3.2723,-3.2995,-3.3038,-3.3025,-3.2995,-3.3038,-3.3025,-3.3025,-3.3025,-3.2896,-3.2667,-3.2593,-3.2506,-3.2431,-3.255,-3.2593,-3.268,-3.2909,-3.281,-3.268,-3.2896,-3.281,-3.268,-3.2909,-3.281,-3.2394,-3.1368,-3.0833,-3.0339,-2.9315,-2.8495,-2.8049,-2.8527,-2.7893,-2.7262,-2.7309,-2.7262,-2.7489,-2.8315,-2.913,-2.9715,-2.9897,-3.0576,-3.108,-3.108,-3.1989,-3.1845,-2.9897,-2.9852,-2.9532,-2.8538,-2.8445,-2.8899,-2.9897,-3.0678,-3.1258,-3.1581,-3.2394,-3.2939,-3.3124,-3.3124,-3.3124,-3.3124,-3.3124,-3.3124,-3.3124,-3.3124,-3.3124,-3.0034,-2.8634,-2.6962,-2.5965,-2.6064,-2.6387,-2.6387,-2.6709,-2.7031,-2.709,-2.7441,-2.7914,-2.8223,-2.8291,-2.8291,-2.8291,-2.7988,-2.7806,-2.7806,-2.7373,-2.6963,-2.6602,-2.6455,-2.624,-2.581,-2.5723,-2.5693,-2.5693,-2.5732,-2.5732,-2.5732,-2.6014,-2.6149,-2.6149,-2.6651,-2.6747,-2.6496,-2.6794,-2.7336,-2.81,-2.9658,-3.1104,-3.2388,-3.2213,-3.2257,-3.2519,-3.268,-3.2636,-3.2531,-3.268,-3.2754,-3.2754,-3.2754,-3.2723,-3.2624,-3.2245,-3.2213,-3.2344,-3.2169,-3.2257,-3.2444,-3.2475,-3.2475,-3.2431,-3.2475,-3.2475,-3.2431,-3.2475,-3.2475,-3.2157,-3.0902,-2.9932,-2.9004,-2.8049,-2.7115,-2.6744,-2.8049,-2.762,-2.7034,-2.7262,-2.7129,-2.7081,-2.7441,-2.7404,-2.7726,-2.8724,-2.9002,-2.9084,-2.9084,-2.9943,-2.9852,-2.7893,-2.8398,-2.8538,-2.7584,-2.7489,-2.7904,-2.8863,-2.9037,-2.9852,-3.1536,-3.1725,-3.2208,-3.3068,-3.3124,-3.3124,-3.3124,-3.3124,-3.3124,-3.3124,-3.3124,-3.3124,-3.0351,-2.8727,-2.7094,-2.6638,-2.6298,-2.6025,-2.6025,-2.6162,-2.6367,-2.6611,-2.6816,-2.708,-2.75,-2.7578,-2.7578,-2.7578,-2.7422,-2.7305,-2.7305,-2.6934,-2.6592,-2.6406,-2.6172,-2.5947,-2.5703,-2.5693,-2.5693,-2.5693,-2.5693,-2.5693,-2.5693,-2.583,-2.5868,-2.5868,-2.6255,-2.6304,-2.6072,-2.7013,-2.8175,-2.9429,-3.0588,-3.1472,-3.2025,-3.1981,-3.2169,-3.24,-3.2475,-3.2475,-3.2431,-3.2636,-3.2711,-3.2711,-3.2711,-3.2636,-3.2463,-3.2113,-3.1981,-3.2025,-3.1994,-3.2081,-3.2125,-3.1693,-3.146,-3.1282,-3.0845,-3.0621,-3.0531,-3.0666,-3.0621,-3.0249,-2.9154,-2.8459,-2.7757,-2.6754,-2.6197,-2.61,-2.6887,-2.686,-2.6699,-2.6832,-2.6747,-2.6699,-2.6832,-2.6736,-2.689,-2.7584,-2.8117,-2.8516,-2.8678,-2.9589,-2.9669,-2.8222,-2.8445,-2.8315,-2.7394,-2.7309,-2.7489,-2.7904,-2.8409,-2.936,-3.0756,-3.1303,-3.2077,-3.3068,-3.3124,-3.3124,-3.3124,-3.3124,-3.3124,-3.3124,-3.3124,-3.3124,-3.0453,-2.9096,-2.784,-2.7321,-2.6648,-2.6004,-2.5781,-2.5693,-2.5781,-2.6162,-2.6221,-2.6318,-2.6631,-2.6865,-2.7012,-2.7012,-2.6924,-2.6855,-2.6855,-2.6494,-2.6221,-2.6221,-2.5937,-2.5693,-2.5693,-2.5693,-2.5693,-2.5693,-2.5693,-2.5693,-2.5693,-2.5693,-2.5693,-2.5693,-2.5955,-2.5965,-2.5693,-2.6822,-2.8211,-2.9726,-3.0317,-3.0812,-3.1327,-3.1472,-3.1793,-3.2213,-3.2257,-3.2257,-3.2257,-3.2419,-3.2494,-3.2494,-3.2494,-3.2419,-3.2257,-3.2038,-3.1849,-3.1705,-3.1849,-3.1761,-3.1472,-3.0902,-3.0396,-2.9932,-2.9407,-2.9085,-2.8958,-2.9177,-2.9096,-2.868,-2.7767,-2.7342,-2.6962,-2.5965,-2.5693,-2.5781,-2.6052,-2.6294,-2.6496,-2.6496,-2.6448,-2.64,-2.6496,-2.6448,-2.6496,-2.6747,-2.7373,-2.7919,-2.8222,-2.8899,-2.9084,-2.8398,-2.8351,-2.8034,-2.7357,-2.7309,-2.7309,-2.7309,-2.7951,-2.8899,-3.017,-3.0633,-3.1448,-3.2711,-3.2711,-3.2853,-3.3124,-3.3124,-3.3124,-3.3124,-3.3124,-3.3124,-3.0453,-3.0125,-2.9612,-2.7699,-2.7142,-2.6867,-2.5917,-2.5693,-2.5693,-2.5713,-2.5723,-2.5732,-2.5752,-2.6415,-2.7012,-2.7012,-2.668,-2.6426,-2.6426,-2.6045,-2.5723,-2.5723,-2.5703,-2.5693,-2.5693,-2.5693,-2.5693,-2.5693,-2.5693,-2.5693,-2.5693,-2.5693,-2.5693,-2.5693,-2.5955,-2.5965,-2.5693,-2.5781,-2.6332,-2.7379,-2.7426,-2.8448,-3.026,-3.0306,-3.0824,-3.1761,-3.1937,-3.1893,-3.1749,-3.1937,-3.2038,-3.2038,-3.2038,-3.2038,-3.1994,-3.1805,-3.1705,-3.1705,-3.1705,-3.1104,-3.0306,-3.026,-2.9555,-2.8773,-2.8773,-2.8727,-2.8727,-2.8727,-2.8727,-2.8484,-2.7474,-2.7237,-2.6962,-2.5965,-2.5693,-2.5781,-2.6052,-2.6294,-2.6496,-2.6496,-2.6294,-2.6197,-2.6448,-2.6304,-2.6197,-2.6496,-2.6544,-2.6688,-2.6948,-2.7034,-2.7129,-2.7347,-2.7357,-2.7347,-2.7309,-2.7309,-2.7309,-2.7309,-2.7357,-2.8211,-3.0125,-2.9314,-2.9715,-3.1625,-3.1669,-3.2176,-3.3124,-3.3124,-3.3124,-3.3124,-3.3124,-3.3124,-3.1294,-3.0678,-3.0034,-2.9326,-2.8157,-2.7094,-2.6733,-2.6139,-2.5693,-2.5693,-2.5693,-2.5693,-2.5693,-2.5937,-2.6152,-2.6152,-2.6015,-2.5967,-2.5967,-2.5791,-2.5693,-2.5693,-2.5693,-2.5693,-2.5693,-2.5693,-2.5693,-2.5693,-2.5693,-2.5693,-2.5693,-2.5693,-2.5693,-2.5693,-2.5781,-2.61,-2.6648,-2.6638,-2.7152,-2.8168,-2.8168,-2.8866,-3.0215,-3.0215,-3.0767,-3.1705,-3.1761,-3.1761,-3.1705,-3.1906,-3.1994,-3.1994,-3.1994,-3.1994,-3.1994,-3.1749,-3.1705,-3.1705,-3.1705,-3.1048,-3.0068,-2.9464,-2.8541,-2.7615,-2.6972,-2.6744,-2.6744,-2.6744,-2.6744,-2.6696,-2.6332,-2.6235,-2.6149,-2.5781,-2.5693,-2.5732,-2.583,-2.5927,-2.5975,-2.5975,-2.5927,-2.5878,-2.5975,-2.5927,-2.5965,-2.6448,-2.6496,-2.6602,-2.6853,-2.7034,-2.7129,-2.7034,-2.7225,-2.7309,-2.7309,-2.7309,-2.7309,-2.7309,-2.7309,-2.7904,-2.9176,-2.8899,-2.9314,-3.0666,-3.0711,-3.1169,-3.212,-3.281,-3.3124,-3.3124,-3.3124,-3.3124,-3.1749,-3.1193,-3.0633,-3.026,-2.9189,-2.8028,-2.7332,-2.6686,-2.61,-2.5781,-2.5693,-2.5693,-2.5693,-2.5693,-2.5693,-2.5693,-2.5693,-2.5693,-2.5693,-2.5693,-2.5693,-2.5693,-2.5693,-2.5693,-2.5693,-2.5693,-2.5693,-2.5693,-2.5693,-2.5693,-2.5693,-2.5693,-2.5693,-2.5693,-2.5693,-2.6004,-2.6686,-2.6686,-2.702,-2.7709,-2.7709,-2.8226,-2.9189,-2.9567,-3.026,-3.1238,-3.1572,-3.1705,-3.1705,-3.1849,-3.1893,-3.1893,-3.1893,-3.1893,-3.1893,-3.1761,-3.1705,-3.1661,-3.1294,-3.0543,-2.9521,-2.8541,-2.7521,-2.6552,-2.5917,-2.5693,-2.5693,-2.5693,-2.5693,-2.5693,-2.5693,-2.5693,-2.5693,-2.5693,-2.5693,-2.5693,-2.5693,-2.5693,-2.5693,-2.5693,-2.5693,-2.5693,-2.5693,-2.5693,-2.583,-2.6304,-2.6352,-2.6496,-2.6853,-2.6986,-2.7023,-2.7034,-2.7129,-2.7214,-2.7309,-2.7309,-2.7309,-2.7309,-2.7309,-2.7715,-2.8678,-2.8409,-2.8852,-3.017,-3.0215,-3.0666,-3.1581,-3.2264,-3.2754,-3.3124,-3.3124,-3.3124,0.0,0.0,0.0,-3.0498,-3.0215,-2.9704,-2.7746,-2.7237,-2.6914,-2.5965,-2.5732,-2.5693,-2.5693,-2.5693,-2.5693,-2.5693,-2.5693,-2.5693,-2.5693,-2.5693,-2.5693,-2.5693,-2.5693,-2.5693,-2.5693,-2.5693,-2.5693,-2.5693,-2.5693,-2.5693,-2.5693,-2.5693,-2.5693,-2.5693,-2.5693,-2.5693,-2.5693,-2.5693,-2.5693,-2.5693,-2.5693,-2.6235,-2.7237,-2.8215,-2.9189,-3.0215,-3.1193,-3.1617,-3.1617,-3.1661,-3.1661,-3.1617,-3.1617,-3.1617,-3.1661,-3.1661,-3.1661,-3.1516,-3.0543,-2.951,-2.8495,-2.751,-2.6504,-2.5693,-2.5693,-2.5693,-2.5693,-2.5693,-2.5693,-2.5693,-2.5693,-2.5693,-2.5693,-2.5693,-2.5693,-2.5693,-2.5693,-2.5693,-2.5693,-2.5693,-2.5693,-2.5693,-2.5693,-2.5693,-2.5781,-2.6052,-2.61,-2.6304,-2.6805,-2.6651,-2.6688,-2.7214,-2.7034,-2.6996,-2.7262,-2.7309,-2.7309,-2.7309,-2.7309,-2.7715,-2.8631,-2.7762,-2.8222,-3.0125,-3.017,-3.0621,-3.1581,-3.1625,-3.2176,-3.3124,-3.3124,-3.3124,-3.1805,0.0,0.0,0.0,0.0,0.0,-2.9521,-2.8251,-2.7094,-2.6819,-2.6187,-2.5693,-2.5693,-2.5693,-2.5693,-2.5693,-2.5693,-2.5693,-2.5693,-2.5693,-2.5693,-2.5693,-2.5693,-2.5693,-2.5693,-2.5693,-2.5693,-2.5693,-2.5693,-2.5693,-2.5693,-2.5693,-2.5693,-2.5693,-2.5693,-2.5693,-2.5693,-2.5693,-2.5693,-2.5693,-2.5693,-2.6235,-2.7237,-2.7463,-2.8168,-2.9143,-2.9418,-2.9521,-2.9612,-3.0306,-3.017,-2.9521,-2.9521,-2.9977,-3.0633,-3.0633,-3.0633,-3.0588,-3.0306,-2.905,-2.7558,-2.7284,-2.6504,-2.5693,-2.5693,-2.5693,-2.5693,-2.5693,-2.5693,-2.5693,-2.5693,-2.5693,-2.5693,-2.5693,-2.5693,-2.5693,-2.5693,-2.5693,-2.5693,-2.5693,-2.5693,-2.5693,-2.5693,-2.5693,-2.5781,-2.6052,-2.61,-2.6149,-2.6294,-2.6448,-2.6544,-2.6688,-2.6842,-2.6996,-2.7262,-2.7309,-2.7309,-2.7309,-2.7309,-2.7404,-2.7678,-2.7441,-2.7857,-2.9084,-2.913,-2.9943,-3.1581,-3.2351,-3.2853,-3.3124,-3.3124,-3.3124,-3.2201,-3.1893,-3.1849,-3.1849,0.0,0.0,-3.0306,-2.928,-2.8344,-2.7887,-2.7342,-2.6839,-2.6418,-2.6332,-2.6187,-2.5781,-2.5693,-2.5693,-2.5693,-2.5693,-2.5693,-2.5693,-2.5693,-2.5693,-2.5693,-2.5693,-2.5693,-2.5693,-2.5693,-2.5693,-2.5693,-2.5693,-2.5693,-2.5693,-2.5693,-2.5693,-2.5693,-2.5693,-2.5693,-2.5693,-2.5693,-2.6004,-2.66,-2.701,-2.751,-2.8121,-2.8541,-2.8448,-2.8121,-2.8727,-2.8866,-2.868,-2.868,-2.905,-2.9567,-2.9567,-2.9567,-2.951,-2.9096,-2.8168,-2.7142,-2.6686,-2.6187,-2.5693,-2.5693,-2.5693,-2.5693,-2.5693,-2.5693,-2.5693,-2.5693,-2.5693,-2.5693,-2.5693,-2.5693,-2.5693,-2.5693,-2.5693,-2.5693,-2.5693,-2.5693,-2.5693,-2.5693,-2.5693,-2.5781,-2.6052,-2.61,-2.6149,-2.6245,-2.6304,-2.64,-2.6496,-2.6651,-2.6842,-2.7129,-2.7214,-2.7309,-2.7309,-2.7309,-2.7309,-2.7309,-2.7309,-2.7762,-2.8678,-2.8678,-2.9681,-3.1581,-3.2176,-3.2711,-3.3124,-3.3124,-3.3124,-3.2667,-3.2213,-3.2038,-3.2038,-3.1893,0.0,-3.0633,-3.0351,-2.9977,-2.9096,-2.8773,-2.8448,-2.751,-2.7284,-2.6914,-2.6004,-2.5781,-2.5693,-2.5693,-2.5693,-2.5693,-2.5693,-2.5693,-2.5693,-2.5693,-2.5693,-2.5693,-2.5693,-2.5693,-2.5693,-2.5693,-2.5693,-2.5693,-2.5693,-2.5693,-2.5693,-2.5693,-2.5693,-2.5693,-2.5693,-2.5693,-2.5693,-2.5732,-2.6648,-2.7047,-2.7094,-2.7981,-2.784,-2.7047,-2.7047,-2.7568,-2.8355,-2.8355,-2.8448,-2.8541,-2.8541,-2.8541,-2.8402,-2.751,-2.7142,-2.6867,-2.6014,-2.5693,-2.5693,-2.5693,-2.5693,-2.5693,-2.5693,-2.5693,-2.5693,-2.5693,-2.5693,-2.5693,-2.5693,-2.5693,-2.5693,-2.5693,-2.5693,-2.5693,-2.5693,-2.5693,-2.5693,-2.5693,-2.5693,-2.5801,-2.6073,-2.6121,-2.6238,-2.654,-2.6346,-2.6278,-2.6528,-2.6518,-2.6605,-2.6853,-2.7081,-2.7214,-2.7262,-2.7262,-2.7262,-2.7309,-2.7309,-2.7762,-2.8678,-2.8817,-2.9715,-3.1448,-3.1669,-3.222,-3.3124,-3.3124,-3.3124,-3.2667,-3.2344,-3.23,-3.23,-3.23,0.0,-3.2025,-3.1193,-3.0407,-3.017,-2.9372,-2.8634,-2.8437,-2.7746,-2.7142,-2.6962,-2.6235,-2.5693,-2.5693,-2.5693,-2.5693,-2.5693,-2.5693,-2.5693,-2.5693,-2.5693,-2.5693,-2.5693,-2.5693,-2.5693,-2.5693,-2.5693,-2.5693,-2.5693,-2.5693,-2.5693,-2.5693,-2.5693,-2.5693,-2.5693,-2.5693,-2.5693,-2.5693,-2.5917,-2.6014,-2.6004,-2.6197,-2.6197,-2.6014,-2.6014,-2.61,-2.6294,-2.6294,-2.6791,-2.751,-2.751,-2.751,-2.7463,-2.7274,-2.6696,-2.5965,-2.5781,-2.5693,-2.5693,-2.5693,-2.5693,-2.5693,-2.5693,-2.5693,-2.5693,-2.5693,-2.5693,-2.5693,-2.5693,-2.5693,-2.5693,-2.5693,-2.5693,-2.5693,-2.5693,-2.5693,-2.5693,-2.5693,-2.5693,-2.5859,-2.63,-2.6359,-2.6476,-2.687,-2.6869,-2.6822,-2.6764,-2.6734,-2.6683,-2.6575,-2.6651,-2.6747,-2.6948,-2.6996,-2.7081,-2.7309,-2.7309,-2.7762,-2.8678,-2.9486,-3.0079,-3.0486,-3.2033,-3.2896,-3.3124,-3.3124,-3.3124,-3.3628,-3.297,-3.255,-3.255,-3.2475,0.0,0.0,-3.1925,-3.146,-3.146,-3.0857,-3.0215,-2.9704,-2.9096,-2.8541,-2.8028,-2.7531,-2.702,-2.6504,-2.6014,-2.5693,-2.5693,-2.5693,-2.5693,-2.5693,-2.5693,-2.5693,-2.5693,-2.5693,-2.5693,-2.5693,-2.5693,-2.5693,-2.5693,-2.5693,-2.5693,-2.5693,-2.5693,-2.5693,-2.5693,-2.5693,-2.5693,-2.5693,-2.5693,-2.5693,-2.5693,-2.5693,-2.5693,-2.5693,-2.5693,-2.5693,-2.5693,-2.5693,-2.6004,-2.6466,-2.6466,-2.6466,-2.6466,-2.6466,-2.61,-2.5693,-2.5693,-2.5693,-2.5693,-2.5693,-2.5693,-2.5693,-2.5693,-2.5693,-2.5693,-2.5693,-2.5693,-2.5693,-2.5693,-2.5693,-2.5693,-2.5693,-2.5693,-2.5693,-2.5693,-2.5869,-2.6064,-2.6064,-2.6153,-2.6389,-2.6822,-2.7051,-2.7231,-2.7399,-2.7429,-2.734,-2.7102,-2.7322,-2.7291,-2.6858,-2.7061,-2.7163,-2.7092,-2.7081,-2.7177,-2.7309,-2.7309,-2.7536,-2.7998,-2.8945,-2.9441,-2.9452,-3.1392,-3.2351,-3.2351,-3.2853,-3.3124,-3.4384,-3.3471,-3.2766,-3.2766,-3.2636,-3.2519,0.0,0.0,0.0,-3.24,-3.2169,-3.1705,-3.0869,-3.0453,-2.9897,-2.8975,-2.8754,-2.8369,-2.7442,-2.6549,-2.5917,-2.5732,-2.5693,-2.5693,-2.5693,-2.5693,-2.5693,-2.5693,-2.5693,-2.5693,-2.5693,-2.5693,-2.5693,-2.5693,-2.5693,-2.5693,-2.5693,-2.5693,-2.5693,-2.5693,-2.5693,-2.5693,-2.5693,-2.5693,-2.5693,-2.5693,-2.5693,-2.5693,-2.5693,-2.5693,-2.5693,-2.5693,-2.5693,-2.5693,-2.5693,-2.5693,-2.5693,-2.5693,-2.5693,-2.5693,-2.5693,-2.5693,-2.5693,-2.5693,-2.5693,-2.5693,-2.5693,-2.5693,-2.5693,-2.5693,-2.5693,-2.5693,-2.5693,-2.5693,-2.5693,-2.5693,-2.5693,-2.5693,-2.5713,-2.5801,-2.6143,-2.6387,-2.6387,-2.6635,-2.6982,-2.7408,-2.7742,-2.7944,-2.8035,-2.8096,-2.7994,-2.764,-2.7975,-2.8005,-2.7311,-2.7666,-2.7726,-2.7369,-2.7338,-2.7355,-2.7309,-2.7309,-2.7309,-2.7309,-2.8034,-2.8538,-2.8678,-3.0453,-3.1403,-3.1625,-3.2624,-3.3124,-3.3484,-3.3154,-3.3068,-3.3068,-3.3038,-3.3038,-3.3038,0.0,-3.24,-3.24,0.0,-3.1705,-3.1572,0.0,0.0,-2.944,-2.8956,-2.8481,-2.792,-2.7352,-2.6686,-2.583,-2.5693,-2.5693,-2.5693,-2.5693,-2.5693,-2.5693,-2.5693,-2.5693,-2.5693,-2.5693,-2.5693,-2.5693,-2.5693,-2.5693,-2.5693,-2.5693,-2.5693,-2.5693,-2.5693,-2.5693,-2.5693,-2.5693,-2.5693,-2.5693,-2.5693,-2.5693,-2.5693,-2.5693,-2.5693,-2.5693,-2.5693,-2.5693,-2.5693,-2.5693,-2.5693,-2.5693,-2.5693,-2.5693,-2.5693,-2.5693,-2.5693,-2.5693,-2.5693,-2.5693,-2.5693,-2.5693,-2.5693,-2.5693,-2.5693,-2.5693,-2.5693,-2.5693,-2.5693,-2.5693,-2.5693,-2.5693,-2.5801,-2.624,-2.6357,-2.6387,-2.6387,-2.674,-2.7141,-2.7581,-2.789,-2.8237,-2.8582,-2.8833,-2.8788,-2.8396,-2.8408,-2.8288,-2.7854,-2.7864,-2.7812,-2.759,-2.7559,-2.7482,-2.732,-2.7309,-2.7309,-2.7309,-2.7404,-2.7857,-2.8678,-2.9806,-3.0812,-3.1625,-3.2624,-3.3124,-3.3937,-3.3496,-3.3124,-3.3124,-3.3124,-3.3124,-3.3124,-3.2952,-3.2779,-3.2593,0.0,0.0,0.0,0.0,0.0,0.0,-3.0582,-3.0146,-2.9376,-2.9055,-2.8355,-2.6733,-2.6052,-2.5693,-2.5693,-2.5693,-2.5693,-2.5693,-2.5693,-2.5693,-2.5693,-2.5693,-2.5693,-2.5693,-2.5693,-2.5693,-2.5693,-2.5693,-2.5693,-2.5693,-2.5693,-2.5693,-2.5693,-2.5693,-2.5693,-2.5693,-2.5693,-2.5693,-2.5693,-2.5693,-2.5693,-2.5693,-2.5693,-2.5693,-2.5693,-2.5693,-2.5693,-2.5693,-2.5693,-2.5693,-2.5693,-2.5693,-2.5693,-2.5693,-2.5693,-2.5693,-2.5693,-2.5693,-2.5693,-2.5693,-2.5693,-2.5693,-2.5693,-2.5693,-2.5693,-2.5693,-2.5693,-2.5888,-2.6172,-2.6357,-2.6787,-2.7129,-2.7129,-2.742,-2.7789,-2.8242,-2.8493,-2.8763,-2.89,-2.9185,-2.9272,-2.888,-2.9174,-2.9115,-2.8523,-2.8625,-2.8573,-2.82,-2.8179,-2.8146,-2.8048,-2.779,-2.7645,-2.7645,-2.7444,-2.7762,-2.8678,-2.9715,-3.0666,-3.1625,-3.2624,-3.3124,-3.3937,-3.3484,-3.3025,-3.3068,-3.3124,-3.3124,-3.3124,-3.3025,-3.2896,-3.268,-3.2419,0.0,0.0,0.0,-3.1657,-3.1512,0.0,-3.138,-3.0536,-3.027,-2.9464,-2.7416,-2.6322,-2.5693,-2.5693,-2.5693,-2.5693,-2.5693,-2.5693,-2.5693,-2.5693,-2.5693,-2.5693,-2.5693,-2.5693,-2.5693,-2.5693,-2.5693,-2.5693,-2.5693,-2.5693,-2.5693,-2.5693,-2.5693,-2.5693,-2.5693,-2.5693,-2.5693,-2.5693,-2.5693,-2.5693,-2.5693,-2.5693,-2.5693,-2.5693,-2.5693,-2.5693,-2.5693,-2.5693,-2.5693,-2.5693,-2.5693,-2.5693,-2.5693,-2.5693,-2.5693,-2.5693,-2.5693,-2.5693,-2.5693,-2.5693,-2.5693,-2.5693,-2.5693,-2.5693,-2.5723,-2.584,-2.6162,-2.6455,-2.6689,-2.7297,-2.7757,-2.7875,-2.8032,-2.8246,-2.8572,-2.8824,-2.8983,-2.8983,-2.929,-2.9396,-2.9132,-2.9564,-2.9651,-2.9125,-2.9343,-2.9301,-2.8835,-2.868,-2.8618,-2.8618,-2.8297,-2.811,-2.811,-2.807,-2.855,-2.9529,-3.0537,-3.1539,-3.2471,-3.3053,-3.3307,-3.2711,-3.2711,-3.2766,-3.3038,-3.3124,-3.3124,-3.3124,-3.2896,-3.268,-3.2431,-3.2213,-3.1937,-3.1761,-3.1705,-3.1536,-3.1031,-3.138,0.0,0.0,-3.0507,-2.9464,-2.7416,-2.6322,-2.5693,-2.5693,-2.5693,-2.5693,-2.5693,-2.5693,-2.5693,-2.5693,-2.5693,-2.5693,-2.5693,-2.5693,-2.5693,-2.5693,-2.5693,-2.5693,-2.5693,-2.5693,-2.5693,-2.5693,-2.5693,-2.5693,-2.5693,-2.5693,-2.5693,-2.5693,-2.5693,-2.5693,-2.5693,-2.5693,-2.5693,-2.5693,-2.5693,-2.5693,-2.5693,-2.5693,-2.5693,-2.5693,-2.5693,-2.5693,-2.5693,-2.5693,-2.5693,-2.5693,-2.5693,-2.5693,-2.5693,-2.5693,-2.5693,-2.5693,-2.5693,-2.5693,-2.5801,-2.6279,-2.6377,-2.6631,-2.7513,-2.7699,-2.7793,-2.8203,-2.8271,-2.8271,-2.8291,-2.8514,-2.8727,-2.8727,-2.893,-2.9132,-2.9079,-2.9396,-2.9606,-2.9586,-2.9806,-2.9777,-2.9311,-2.8856,-2.8618,-2.8618,-2.8597,-2.8587,-2.8587,-2.9563,-3.0611,-3.1592,-3.2663,-3.3671,-3.4605,-3.4123,-3.3872,-3.2475,-3.2519,-3.2562,-3.2766,-3.2736,-3.2736,-3.3038,-3.2896,-3.268,-3.2593,-3.2431,-3.2169,-3.1937,-3.1805,-3.1657,-3.1476,-3.1585,-3.1645,0.0,-3.0707,-2.9932,-2.928,-2.7709,-2.6418,-2.5781,-2.5693,-2.5693,-2.5693,-2.5693,-2.5693,-2.5693,-2.5693,-2.5693,-2.5693,-2.5693,-2.5693,-2.5693,-2.5693,-2.5693,-2.5693,-2.5693,-2.5693,-2.5693,-2.5693,-2.5693,-2.5693,-2.5693,-2.5693,-2.5693,-2.5693,-2.5693,-2.5693,-2.5693,-2.5693,-2.5693,-2.5693,-2.5693,-2.5693,-2.5693,-2.5693,-2.5693,-2.5693,-2.5693,-2.5693,-2.5693,-2.5693,-2.5693,-2.5693,-2.5693,-2.5693,-2.5693,-2.5693,-2.5693,-2.5693,-2.5693,-2.581,-2.6299,-2.6602,-2.6973,-2.7559,-2.7891,-2.8125,-2.8271,-2.8291,-2.8291,-2.8291,-2.8398,-2.8461,-2.8461,-2.8674,-2.8834,-2.8834,-2.9089,-2.929,-2.929,-2.9554,-2.966,-2.9496,-2.9508,-2.9528,-2.9528,-2.9239,-2.9073,-2.9073,-2.9103,-2.9998,-3.1685,-3.2065,-3.3107,-3.468,-3.4856,-3.4756,-3.2257,-3.2257,-3.23,-3.2562,-3.2519,-3.2475,-3.2779,-3.2723,-3.255,-3.2463,-3.2431,-3.2313,-3.195,-3.1849,-3.1793,-3.1705,-3.1705,-3.1705,0.0,-3.1149,-3.0588,-3.026,-2.8437,-2.6962,-2.6284,-2.5917,-2.5693,-2.5693,-2.5693,-2.5693,-2.5693,-2.5693,-2.5693,-2.5693,-2.5693,-2.5693,-2.5693,-2.5693,-2.5693,-2.5693,-2.5693,-2.5693,-2.5693,-2.5693,-2.5693,-2.5693,-2.5693,-2.5693,-2.5693,-2.5693,-2.5693,-2.5693,-2.5693,-2.5693,-2.5693,-2.5693,-2.5693,-2.5693,-2.5693,-2.5693,-2.5693,-2.5693,-2.5693,-2.5693,-2.5693,-2.5693,-2.5713,-2.5879,-2.581,-2.5723,-2.5928,-2.581,-2.5693,-2.5693,-2.581,-2.6084,-2.6514,-2.6943,-2.7373,-2.7803,-2.8105,-2.8291,-2.8291,-2.8291,-2.8291,-2.8291,-2.8291,-2.8291,-2.8291,-2.8451,-2.8568,-2.8684,-2.893,-2.9185,-2.9396,-2.9617,-2.9722,-2.9722,-2.9889,-2.9994,-2.9994,-2.9704,-2.9549,-2.9549,-2.9646,-3.032,-3.169,-3.2031,-3.3089,-3.4737,-3.5095,-3.5258]},{"header":{"parameterUnit":"m.s-1","parameterCategory":1,"la1":30.6,"la2":29.2853,"lo1":-89.7004,"lo2":-87.6739,"dy":0.0162,"dx":0.0183,"nx":112,"ny":82,"refTime":"2024-04-25T12:00:00:Z","depth":0,"parameterNumber":3,"parameterNumberName":"V-component_of_WINDS"},"data":[0.0,0.0,0.0,0.0,0.0,0.0,0.0,0.0,0.0,0.0,0.0,0.0,0.0,0.0,0.0,0.0,0.0,0.0,0.0,0.0,0.0,0.0,0.0,0.0,0.0,0.0,0.0,0.0,0.0,0.0,0.0,0.0,0.0,0.0,0.0,0.0,0.0,0.0,0.0,0.0,0.0,0.0,0.0,0.0,0.0,0.0,0.0,0.0,0.0,0.0,0.0,0.0,0.0,0.0,0.0,0.0,0.0,0.0,0.0,0.0,0.0,0.0,0.0,0.0,0.0,0.0,0.0,0.0,0.0,0.0,0.0,0.0,0.0,0.0,0.0,0.0,0.0,0.0,0.0,0.0,0.0,0.0,0.0,0.0,0.0,0.0,0.0,0.0,0.0,0.0,0.7271,0.7309,0.6317,0.5594,0.5427,0.3525,0.2183,0.1847,0.0,0.0,0.0,0.0,0.0,0.0,0.0,0.0,0.0,0.0,0.0,0.0,0.0,0.0,0.0,0.0,0.0,0.0,0.0,0.0,0.0,0.0,0.0,0.0,0.0,0.0,0.0,0.0,0.0,0.0,0.0,0.0,0.0,0.0,0.0,0.0,0.0,0.0,0.0,0.0,0.0,0.0,0.0,0.0,0.0,0.0,0.0,0.0,0.0,0.0,0.0,0.0,0.0,0.0,0.0,0.0,0.0,0.0,0.0,0.0,0.0,0.0,0.0,0.0,0.0,0.0,0.0,0.0,0.0,0.0,0.0,0.0,0.0,0.0,0.0,0.0,0.0,0.0,0.0,0.0,0.0,0.0,0.0,0.0,0.0,0.0,0.0,0.0,0.0,0.0,0.0,0.0,0.0,0.0,0.0,0.0,0.0,0.0,0.0,0.0,0.0,0.0,0.0,0.0,0.7296,0.7192,0.7054,0.6485,0.5483,0.5091,0.3971,0.1903,0.0,0.0,0.0,0.0,0.0,0.0,0.0,0.0,0.0,0.0,0.0,0.0,0.0,0.0,0.0,0.0,0.0,0.0,0.0,0.0,0.0,0.0,0.0,0.0,0.0,0.0,0.0,0.0,0.0,0.0,0.0,0.0,0.0,0.0,0.0,0.0,0.0,0.0,0.0,0.0,0.0,0.0,0.0,0.0,0.0,0.0,0.0,0.0,0.0,0.0,0.0,0.0,0.0,0.0,0.0,0.0,0.0,0.0,0.0,0.0,0.0,0.0,0.0,0.0,0.0,0.0,0.0,0.0,0.0,0.0,0.0,0.0,0.0,0.0,0.0,0.0,0.0,0.0,0.0,0.0,0.0,0.0,0.0,0.0,0.0,0.0,0.0,0.0,0.0,0.0,0.0,0.0,0.0,0.0,0.0,0.0,0.0,0.0,0.0,0.0,0.0,0.0,0.0,0.7423,0.7217,0.7215,0.721,0.6985,0.6429,0.5761,0.4643,0.291,0.1623,0.0,0.0,0.0,0.0,0.0,0.0,0.0,0.0,0.0,0.0,0.0,0.0,0.0,0.0,0.0,0.0,0.0,0.0,0.0,0.0,0.0,0.0,0.0,0.0,0.0,0.0,0.0,0.0,0.0,0.0,0.0,0.0,0.0,0.0,0.0,0.0,0.0,0.0,0.0,0.0,0.0,0.0,0.0,0.0,0.0,0.0,0.0,0.0,0.0,0.0,0.0,0.0,0.0,0.0,0.0,0.0,0.0,0.0,0.0,0.0,0.0,0.0,0.0,0.0,0.0,0.0,0.0,0.0,0.0,0.0,0.0,0.0,0.0,0.0,0.0,0.0,0.0,0.0,0.0,0.0,0.0,0.0,0.0,0.0,0.0,0.0,0.0,0.0,0.0,0.0,0.0,0.0,0.0,0.0,0.0,0.0,0.0,0.0,0.0,0.0,0.0,0.0,0.7435,0.7268,0.7268,0.721,0.721,0.721,0.6374,0.5314,0.4083,0.291,0.0,0.0,0.0,0.0,0.0,0.0,0.0,0.0,0.0,0.0,0.0,0.0,0.0,0.0,0.0,0.0,0.0,0.0,0.0,0.0,0.0,0.0,0.0,0.0,0.0,0.0,0.0,0.0,0.0,0.0,0.0,0.0,0.0,0.0,0.0,0.0,0.0,0.0,0.0,0.0,0.0,0.0,0.0,0.0,0.0,0.0,0.0,0.0,0.0,0.0,0.0,0.0,0.0,0.0,0.0,0.0,0.0,0.0,0.0,0.0,0.0,0.0,0.0,0.0,0.0,0.0,0.0,0.0,0.0,0.0,0.0,0.0,0.0,0.0,0.0,0.0,0.0,0.0,0.0,0.0,0.0,0.0,0.0,0.0,0.0,0.0,0.0,0.0,0.0,0.0,0.0,0.0,0.0,0.0,0.0,0.0,0.0,0.0,0.0,0.0,0.0,0.0,0.7715,0.7551,0.7551,0.7324,0.721,0.721,0.7099,0.6541,0.5371,0.4139,0.0,0.0,0.0,0.0,0.0,0.0,0.0,0.0,0.0,0.0,0.0,0.0,0.0,0.0,0.0,0.0,0.0,0.0,0.0,0.0,0.0,0.0,0.0,0.0,0.0,0.0,0.0,0.0,0.0,0.0,0.0,0.0,0.0,0.0,0.0,0.0,0.0,0.0,0.0,0.0,0.0,0.0,0.0,0.0,0.0,0.0,0.0,0.0,0.0,0.0,0.0,0.0,0.0,0.0,0.0,0.0,0.0,0.0,0.0,0.0,0.0,0.0,0.0,0.0,0.0,0.0,0.0,0.0,0.0,0.0,0.0,0.0,0.0,0.0,0.0,0.0,0.0,0.0,0.0,0.0,0.0,0.0,0.0,0.0,0.0,0.0,0.0,0.0,0.0,0.0,0.0,0.0,0.0,0.0,0.0,0.0,0.0,0.0,0.0,0.0,0.0,0.0,0.8045,0.7826,0.7826,0.7768,0.7712,0.7712,0.7549,0.6932,0.5701,0.0,0.0,0.0,0.0,0.0,0.0,0.0,0.0,0.0,0.0,0.0,0.0,0.0,0.0,0.0,0.0,0.0,0.0,0.0,0.0,0.0,0.0,0.0,0.0,0.0,0.0,0.0,0.0,0.0,0.0,0.0,0.0,0.0,0.0,0.0,0.0,0.0,0.0,0.0,0.0,0.0,0.0,0.0,0.0,0.0,0.0,0.0,0.0,0.0,0.0,0.0,0.0,0.0,0.0,0.0,0.0,0.0,0.0,0.0,0.0,0.0,0.0,0.0,0.0,0.0,0.0,0.0,0.0,0.0,0.0,0.0,0.0,0.0,0.0,0.0,0.0,0.0,0.0,0.0,0.0,0.0,0.0,0.0,0.0,0.0,0.0,0.0,0.0,0.0,0.0,0.0,0.0,0.0,0.0,0.0,0.0,0.0,0.0,0.0,0.0,0.0,0.0,0.9251,0.8923,0.8537,0.8211,0.8005,0.7926,0.7926,0.7728,0.7207,0.6322,0.0,0.0,0.0,0.0,0.0,0.0,0.0,0.0,0.0,0.0,0.0,0.0,0.0,0.0,0.0,0.0,0.0,0.0,0.0,0.0,0.0,0.0,0.0,0.0,0.0,0.0,0.0,0.0,0.0,0.0,0.0,0.0,0.0,0.0,0.0,0.0,0.0,0.0,0.0,0.0,0.0,0.0,0.0,0.0,0.0,0.0,0.0,0.0,0.0,0.0,0.0,0.0,0.0,0.0,0.0,0.0,0.0,0.0,0.0,0.0,0.0,0.0,0.0,0.0,0.0,0.0,0.0,0.0,0.0,0.0,0.0,0.0,0.0,0.0,0.0,0.0,0.0,0.0,0.0,0.0,0.0,0.0,0.0,0.0,0.0,0.0,0.0,0.0,0.0,0.0,0.0,0.0,0.0,0.0,0.0,0.0,0.0,0.0,0.0,0.0,0.0,0.0,1.0832,1.0449,0.9794,0.8644,0.8134,0.7837,0.7837,0.7721,0.7487,0.0,0.0,0.0,0.0,0.0,0.0,0.0,0.0,0.0,0.0,0.0,0.0,0.0,0.0,0.0,0.0,0.0,0.0,0.0,0.0,0.0,0.0,0.0,0.0,0.0,0.0,0.0,0.0,0.0,0.0,0.0,0.0,0.0,0.0,0.0,0.0,0.0,0.0,0.0,0.0,0.0,0.0,0.0,0.0,0.0,0.0,0.0,0.0,0.0,0.0,0.0,0.0,0.0,0.0,0.0,0.0,0.0,0.0,0.0,0.0,0.0,0.0,0.0,0.0,0.0,0.0,0.0,0.0,0.0,0.0,0.0,0.0,0.0,0.0,0.0,0.0,0.0,0.0,0.0,0.0,0.0,0.0,0.0,0.0,0.0,0.0,0.0,0.0,0.0,0.0,0.0,0.0,0.0,0.0,0.0,0.0,0.0,0.0,0.0,0.0,0.0,0.0,0.0,1.1684,1.1505,1.1287,1.0721,1.0552,1.0466,1.0466,0.9593,0.8996,0.8888,0.0,0.0,0.0,0.0,0.0,0.0,0.0,0.0,0.0,0.0,0.0,0.0,0.0,0.0,0.0,0.0,0.0,0.0,0.0,0.0,0.0,0.0,0.0,0.0,0.0,0.0,0.0,0.0,0.0,0.0,0.0,0.0,0.0,0.0,0.0,0.0,0.0,0.0,0.0,0.0,0.0,0.0,0.0,0.0,0.0,0.0,0.0,0.0,0.0,0.0,0.0,0.0,0.0,0.0,0.0,0.0,0.0,0.0,0.0,0.0,0.0,0.0,0.0,0.0,0.0,0.0,0.0,0.0,0.0,0.0,0.0,0.0,0.0,0.0,0.0,0.0,0.0,0.0,0.0,0.0,0.0,0.0,0.0,0.0,0.0,0.0,0.0,0.0,0.0,0.0,0.0,0.0,0.0,0.0,0.0,0.0,0.0,0.0,0.0,0.0,0.0,0.0,1.2641,1.2558,1.2296,1.169,1.1555,1.1513,1.1513,1.0843,1.0335,1.0232,0.0,0.0,0.0,0.0,0.0,0.0,0.0,0.0,0.0,0.0,0.0,0.0,0.0,0.0,0.0,0.0,0.0,0.0,0.0,0.0,0.0,0.0,0.0,0.0,0.0,0.0,0.0,0.0,0.0,0.0,0.0,0.0,0.0,0.0,0.0,0.0,0.0,0.0,0.0,0.0,0.0,0.0,0.0,0.0,0.0,0.0,0.0,0.0,0.0,0.0,0.0,0.0,0.0,0.0,0.0,0.0,0.0,0.0,0.0,0.0,0.0,0.0,0.0,0.0,0.0,0.0,0.0,0.0,0.0,0.0,0.0,0.0,0.0,0.0,0.0,0.0,0.0,0.0,0.0,0.0,0.0,0.0,0.0,0.0,0.0,0.0,0.0,0.0,0.0,0.0,0.0,0.0,0.0,0.0,0.0,0.0,0.0,0.0,0.0,0.0,0.0,0.0,1.3704,1.3518,1.3093,1.1984,1.1784,1.1692,1.1692,1.1752,1.1656,1.1405,0.0,0.0,0.0,0.0,0.0,0.0,0.0,0.0,0.0,0.0,0.0,0.0,0.0,0.0,0.0,0.0,0.0,0.0,0.0,0.0,0.0,0.0,0.0,0.0,0.0,0.0,0.0,0.0,0.0,0.0,0.0,0.0,0.0,0.0,0.0,0.0,0.0,0.0,0.0,0.0,0.0,0.0,0.0,0.0,0.0,0.0,0.0,0.0,0.0,0.0,0.0,0.0,0.0,0.0,0.0,0.0,0.0,0.0,0.0,0.0,2.2013,2.0487,0.0,0.0,0.0,0.0,0.0,0.0,0.0,0.0,0.0,0.0,0.0,0.0,0.0,0.0,0.0,0.0,0.0,0.0,0.0,0.0,0.0,0.0,0.0,0.0,0.0,0.0,0.0,0.0,0.0,0.0,0.0,0.0,0.0,0.0,0.0,0.0,0.0,0.0,0.0,0.0,1.448,1.4445,1.4257,1.3791,1.3912,1.401,1.401,1.3422,1.3062,1.3016,1.1868,0.0,0.0,0.0,0.0,0.0,0.0,0.0,0.0,0.0,0.0,0.0,0.0,0.0,0.0,0.0,0.0,0.0,0.0,0.0,0.0,0.0,0.0,0.0,0.0,0.0,0.0,0.0,0.0,0.0,0.0,0.0,0.0,0.0,0.0,0.0,0.0,0.0,0.0,0.0,0.0,0.0,0.0,0.0,0.0,0.0,0.0,0.0,0.0,0.0,0.0,0.0,0.0,0.0,0.0,0.0,0.0,0.0,0.0,0.0,2.2667,2.1752,0.0,0.0,0.0,0.0,0.0,0.0,0.0,0.0,0.0,0.0,0.0,0.0,0.0,0.0,0.0,0.0,0.0,0.0,0.0,0.0,0.0,0.0,0.0,0.0,0.0,0.0,0.0,0.0,0.0,0.0,0.0,0.0,0.0,0.0,0.0,0.0,0.0,0.0,0.0,0.0,1.4552,1.4515,1.4461,1.431,1.4552,1.466,1.4527,1.4365,1.4225,1.406,1.3063,0.0,0.0,0.0,0.0,0.0,0.0,0.0,0.0,0.0,0.0,0.0,0.0,0.0,0.0,0.0,0.0,0.0,0.0,0.0,0.0,0.0,0.0,0.0,0.0,0.0,0.0,0.0,0.0,0.0,0.0,0.0,0.0,0.0,0.0,0.0,0.0,0.0,0.0,0.0,0.0,0.0,0.0,0.0,0.0,0.0,0.0,0.0,0.0,0.0,0.0,0.0,0.0,0.0,2.5693,2.5226,2.4393,2.5274,2.5226,2.4295,2.2968,2.2918,2.3692,2.2517,0.0,0.0,0.0,0.0,0.0,0.0,0.0,0.0,0.0,0.0,0.0,0.0,0.0,0.0,0.0,0.0,0.0,0.0,0.0,0.0,0.0,0.0,2.1574,2.1466,2.1298,2.0867,1.9785,0.0,0.0,0.0,0.0,0.0,0.0,0.0,0.0,0.0,0.0,0.0,1.4939,1.4956,1.486,1.4717,1.4881,1.4863,1.4485,1.4873,1.5016,1.4849,1.4116,1.3739,0.0,0.0,0.0,0.0,0.0,0.0,0.0,0.0,0.0,0.0,0.0,0.0,0.0,0.0,0.0,0.0,0.0,0.0,0.0,0.0,0.0,0.0,0.0,0.0,0.0,0.0,0.0,0.0,0.0,0.0,0.0,0.0,2.797,2.8808,0.0,0.0,0.0,0.0,0.0,0.0,0.0,0.0,0.0,0.0,0.0,0.0,0.0,2.5713,2.5771,2.5713,2.5693,2.5693,2.5693,2.5635,2.5479,2.5635,2.5635,2.5479,2.5274,0.0,2.4038,2.3583,0.0,0.0,0.0,0.0,0.0,0.0,0.0,0.0,0.0,0.0,0.0,0.0,0.0,0.0,0.0,0.0,0.0,0.0,0.0,0.0,0.0,0.0,2.4239,2.3645,2.2815,2.1919,2.1166,2.0449,1.9814,1.9375,1.9068,1.8464,0.0,0.0,0.0,0.0,0.0,0.0,1.739,1.7522,1.7196,1.6304,1.6306,1.5989,1.509,1.5076,1.519,1.5393,1.5053,1.4992,1.5196,1.4868,0.0,0.0,0.0,0.0,0.0,0.0,0.0,0.0,0.0,0.0,0.0,0.0,0.0,0.0,0.0,0.0,0.0,0.0,0.0,0.0,0.0,0.0,0.0,0.0,0.0,0.0,0.0,0.0,0.0,2.8121,2.8038,2.7825,2.7484,2.7305,0.0,0.0,0.0,0.0,0.0,0.0,0.0,0.0,0.0,2.7757,2.7496,2.7255,2.712,2.6804,2.6595,2.6405,2.6405,2.6405,2.6405,2.6405,2.6405,2.6445,2.6211,2.5837,2.5353,2.4958,2.4559,2.4115,0.0,0.0,0.0,0.0,2.419,2.3976,2.4254,2.419,2.3949,2.3949,0.0,0.0,0.0,0.0,0.0,0.0,0.0,2.4214,2.4214,2.4361,2.4505,2.4172,2.3603,2.2937,2.2378,2.1946,2.1203,1.9702,1.9191,1.8739,1.808,1.7737,0.0,0.0,0.0,1.7522,1.794,1.7987,1.7848,1.7375,1.7487,1.7364,1.6763,1.6884,1.694,1.6911,1.6772,1.6518,1.6095,1.6489,1.6419,0.0,0.0,0.0,0.0,0.0,0.0,0.0,0.0,0.0,0.0,0.0,0.0,0.0,0.0,0.0,0.0,0.0,0.0,0.0,0.0,0.0,0.0,0.0,0.0,0.0,0.0,0.0,0.0,2.9143,2.8923,2.8283,2.8355,2.8412,0.0,0.0,0.0,0.0,0.0,0.0,2.9597,2.9709,2.9823,2.9823,2.9427,2.9144,2.8914,2.8528,2.8216,2.8025,2.8025,2.8025,2.8036,2.7995,2.7945,2.7925,2.7551,2.7162,2.6745,2.6133,2.5908,2.5908,2.5908,2.5908,2.5937,2.6143,2.6016,2.5732,2.6113,2.6006,2.5693,2.5693,2.5538,2.5391,2.5391,0.0,0.0,0.0,0.0,2.4965,2.4965,2.466,2.4269,2.4117,2.386,2.3472,2.2936,2.2715,2.2071,2.0298,1.9723,1.9392,1.895,1.8726,0.0,1.8588,1.8588,1.868,1.891,1.8956,1.8864,1.8634,1.8722,1.8582,1.8141,1.8208,1.8246,1.8095,1.8079,1.7763,1.6986,1.7634,1.7635,1.6679,0.0,0.0,0.0,0.0,0.0,0.0,0.0,0.0,0.0,0.0,0.0,0.0,0.0,0.0,0.0,0.0,0.0,0.0,0.0,0.0,0.0,0.0,0.0,0.0,0.0,0.0,0.0,0.0,0.0,3.2655,3.1158,0.0,0.0,0.0,0.0,2.9715,2.9972,3.0148,3.0148,3.0633,3.094,3.094,3.0866,3.0878,3.0878,3.0815,3.0826,3.0826,3.0826,3.0826,3.0778,3.0607,3.0533,3.0473,3.0219,2.9278,2.7865,2.6794,2.6357,2.6357,2.6357,2.6357,2.6309,2.5869,2.5703,2.5693,2.5713,2.5703,2.5693,2.5693,2.5684,2.5684,2.5684,2.5684,0.0,0.0,2.5382,2.5098,2.5098,2.4729,2.4208,2.3573,2.3422,2.3242,2.2555,2.2426,2.2337,2.2036,2.1759,2.1248,2.0348,0.0,2.0158,2.0158,2.0158,2.0529,2.141,2.1508,2.1177,2.0294,1.9948,1.9446,1.8442,1.8133,1.8141,1.8349,1.8395,1.8309,1.8139,1.8168,1.7877,1.719,1.7211,0.0,0.0,0.0,0.0,0.0,0.0,0.0,0.0,0.0,0.0,0.0,0.0,0.0,0.0,0.0,0.0,0.0,0.0,0.0,0.0,0.0,0.0,0.0,0.0,0.0,0.0,0.0,0.0,3.1258,3.1169,0.0,3.1224,3.136,3.1626,3.2026,3.2699,3.3095,3.3095,3.3276,3.3373,3.3373,3.309,3.2816,3.2613,3.2308,3.2074,3.1815,3.1815,3.1815,3.1815,3.1777,3.1727,3.1716,3.1354,3.0876,3.0297,2.9613,2.7986,2.5967,2.5967,2.5967,2.5986,2.6113,2.5977,2.5732,2.6055,2.5977,2.5693,2.5693,2.5693,2.5693,2.5693,2.5693,2.5625,2.5391,2.5195,2.5047,2.4727,2.4326,2.41,2.4415,2.3821,2.332,2.3667,2.3178,2.2627,2.2574,2.223,2.1874,2.1499,2.132,2.1177,2.1177,2.1177,2.132,2.1651,2.1696,2.1553,2.123,2.1141,2.0898,2.0529,2.0205,2.0058,2.0147,1.9869,1.947,1.8785,1.9341,1.9273,1.8456,1.8778,1.8608,0.0,0.0,0.0,0.0,0.0,0.0,0.0,0.0,0.0,0.0,0.0,0.0,0.0,0.0,0.0,0.0,0.0,0.0,0.0,0.0,0.0,0.0,0.0,0.0,0.0,3.212,3.1918,3.1496,3.1978,3.2329,3.2245,3.2795,3.3362,3.3741,3.4512,3.4956,3.4956,3.5177,3.5278,3.5278,3.4952,3.4687,3.4473,3.4183,3.3897,3.3688,3.3688,3.3688,3.3688,3.3601,3.3563,3.354,3.3166,3.2727,3.2191,3.1763,2.9794,2.7112,2.7074,2.6977,2.696,2.7102,2.696,2.6747,2.7051,2.695,2.6706,2.6706,2.6706,2.6706,2.6706,2.6706,2.6635,2.6378,2.6231,2.6048,2.5742,2.5178,2.4907,2.5467,2.4809,2.4188,2.4776,2.436,2.381,2.381,2.295,2.2185,2.2185,2.2043,2.1909,2.183,2.183,2.1785,2.1687,2.1696,2.1696,2.1696,2.1568,2.1485,2.1485,2.1145,2.0906,2.0906,2.0668,2.0162,1.9396,1.9985,1.9964,1.9195,1.9525,1.943,1.8842,0.0,0.0,0.0,0.0,0.0,0.0,0.0,0.0,0.0,0.0,0.0,0.0,0.0,0.0,0.0,0.0,0.0,0.0,0.0,0.0,0.0,0.0,0.0,3.3106,3.3106,3.3307,3.3859,3.3922,3.4135,3.4655,3.4718,3.4776,3.4801,3.5257,3.5571,3.5545,3.6094,3.643,3.6405,3.6405,3.6405,3.6405,3.6405,3.6405,3.6405,3.6405,3.6405,3.6405,3.6146,3.6015,3.6015,3.5716,3.4763,3.3373,3.3121,3.1834,3.0039,2.9792,2.9544,2.9241,2.8855,2.8727,2.8727,2.868,2.868,2.868,2.868,2.868,2.868,2.868,2.868,2.868,2.8659,2.8422,2.8106,2.8095,2.7349,2.6647,2.6647,2.6244,2.5852,2.5852,2.583,2.5777,2.5777,2.4006,2.252,2.2476,2.2476,2.2441,2.223,2.2185,0.0,2.182,2.1767,2.1758,2.1758,2.1337,2.1089,2.1089,2.0723,2.0503,2.0493,2.0493,2.031,1.9925,1.9866,1.9683,1.9311,1.9301,1.9301,1.9301,0.0,0.0,0.0,0.0,0.0,0.0,0.0,0.0,0.0,0.0,0.0,0.0,0.0,0.0,0.0,0.0,0.0,0.0,0.0,0.0,0.0,3.3537,3.3671,3.3671,3.3671,3.3872,3.4437,3.45,3.4668,3.5219,3.568,3.6069,3.6483,3.701,3.7149,3.6747,3.6872,3.682,3.6417,3.6405,3.6405,3.6405,3.6405,3.6405,3.6405,3.6405,3.6405,3.6405,3.6323,3.6275,3.6275,3.6228,3.5939,3.5503,3.4979,3.4389,3.3499,3.0804,2.9465,2.9099,2.9187,2.9085,2.8912,2.8773,2.868,2.868,2.868,2.868,2.868,2.868,2.868,2.865,2.8357,2.817,2.8029,2.7678,2.7393,2.7359,2.803,2.7262,2.6556,2.7253,2.6532,2.5777,2.5777,2.5274,2.4808,2.4681,2.45,2.4329,2.4286,2.4286,2.4243,2.4147,2.3574,2.3001,2.2532,2.1844,2.1236,2.0922,2.0518,2.0369,2.0583,2.0139,1.9805,1.9703,1.9556,1.9421,1.9301,1.9301,1.9301,0.0,0.0,0.0,0.0,0.0,0.0,0.0,0.0,0.0,0.0,0.0,0.0,0.0,0.0,0.0,0.0,0.0,0.0,0.0,0.0,0.0,0.0,3.4994,3.5331,3.4684,3.4399,3.4449,3.4956,3.5265,3.5629,3.6182,3.6734,3.7186,3.75,3.7826,3.7864,3.755,3.7525,3.7274,3.6769,3.6757,3.6644,3.6405,3.6405,3.6405,3.6405,3.6405,3.6405,3.6405,3.6405,3.6405,3.6405,3.6405,3.6405,3.638,3.589,3.5522,3.4941,0.0,0.0,0.0,0.0,3.0576,3.0396,3.0306,3.017,3.0079,3.0079,3.0034,2.9977,2.9977,2.9977,2.992,2.968,2.96,2.9531,2.9278,2.9049,2.8987,2.9531,2.8866,2.813,2.849,2.7856,2.7208,2.6951,2.6917,0.0,2.6794,2.5986,2.5347,2.5263,2.5263,2.5221,2.5126,2.464,2.4065,2.3483,2.2806,2.2229,2.1706,2.1292,0.0,0.0,0.0,2.0576,2.0235,2.045,0.0,0.0,0.0,1.9883,1.9539,1.9883,0.0,0.0,1.958,1.943,0.0,0.0,0.0,0.0,0.0,0.0,0.0,0.0,0.0,0.0,0.0,0.0,0.0,0.0,0.0,0.0,3.7037,3.7518,3.6126,3.5573,3.5393,3.5667,3.6207,3.6782,3.7224,3.7776,3.8103,3.8103,3.8165,3.8165,3.8103,3.8103,0.0,0.0,0.0,3.6996,3.6505,3.6443,3.6405,3.6405,3.6405,3.6405,3.6405,3.6405,3.6405,3.6405,3.6405,3.6405,3.6358,3.6146,3.5715,3.5139,3.3953,3.341,3.3214,3.2641,3.2431,3.2431,3.2388,0.0,0.0,3.2038,3.1937,3.1793,3.1793,3.1793,3.1749,3.1749,3.1705,3.1705,3.1705,3.1356,3.1007,3.1007,3.0609,3.005,2.9581,2.9436,2.9232,2.8703,2.8595,2.8582,2.8522,2.7162,2.6027,2.5872,2.5819,2.5735,2.5504,2.5367,2.5068,2.4484,2.3993,0.0,2.2938,2.2562,2.2366,2.2366,2.2366,2.1989,2.1288,2.1914,2.1621,2.0206,2.0875,2.0875,2.0167,2.0875,2.1068,2.0789,1.9962,1.9529,0.0,0.0,0.0,0.0,0.0,0.0,0.0,0.0,0.0,0.0,0.0,0.0,0.0,0.0,0.0,3.7634,3.8155,3.853,3.8541,3.8881,3.8569,3.7038,3.7349,3.7726,3.7839,3.8366,3.8705,3.8705,3.912,3.917,3.873,3.8705,3.8442,3.7864,3.7412,3.7136,3.7023,3.6631,3.6405,3.6405,3.6405,0.0,3.6405,3.6405,3.6405,3.6405,3.6405,3.6405,3.6405,3.6323,3.5997,3.529,3.401,3.3619,3.3658,3.2922,3.2636,3.2636,3.2475,3.2356,3.23,3.23,3.2313,3.2257,3.2257,3.2257,0.0,3.1981,3.1937,3.1937,3.1937,3.1721,3.1604,3.1748,3.125,3.0742,3.0591,3.0242,2.9785,2.9256,2.9148,2.9015,2.8582,2.8219,2.7966,2.7926,2.7926,2.7886,2.7834,2.7179,2.6307,2.5301,2.4448,2.3569,2.2724,2.2606,2.2627,2.2835,2.2675,2.2403,2.2065,2.2215,2.214,2.1849,2.1989,2.1989,2.1849,2.1989,2.2027,2.1962,2.1469,2.1096,0.0,0.0,0.0,0.0,0.0,0.0,0.0,0.0,0.0,0.0,0.0,3.9237,4.0017,0.0,3.9335,3.9403,4.0487,4.0986,4.0035,4.0804,4.0918,3.9346,3.9669,3.9793,3.9269,4.0179,4.0629,4.0093,4.0299,4.0337,4.0055,3.9563,3.8894,3.804,3.7739,3.7324,3.6772,3.6543,3.6405,3.6405,3.6405,3.6405,3.6405,3.6405,3.6405,3.6405,3.6405,3.6405,3.6405,3.6405,3.6194,3.5843,3.4602,3.4002,3.3834,3.3139,3.2896,3.2896,3.2779,3.2649,3.255,3.255,3.2475,3.24,3.24,3.24,3.2344,3.2257,3.2213,3.2213,3.2213,3.2125,3.2069,3.2169,3.1831,3.1378,3.11,3.0822,3.0483,2.9839,2.9555,2.933,2.8943,2.8691,2.851,2.851,2.851,2.851,2.851,2.8072,2.7494,2.6628,2.5884,2.5136,2.4422,2.4112,2.4011,2.4131,2.4047,2.3745,2.322,2.3588,2.3452,2.2675,2.2999,2.2999,2.2638,2.2999,2.3121,2.2968,2.3143,2.2697,0.0,0.0,0.0,0.0,0.0,0.0,0.0,4.2485,4.2291,4.1848,4.1109,4.0803,4.1614,4.1538,4.1332,4.1282,4.2816,4.3385,4.1539,4.2425,4.2923,4.2025,4.1912,4.1652,4.0953,4.2024,4.2452,4.1568,4.1518,4.1518,4.1518,4.0756,3.9753,3.8524,3.8348,3.7769,3.6581,3.6468,3.6405,3.6405,3.6405,3.6405,3.6405,3.6405,3.6405,3.6405,3.6405,3.6405,3.6405,3.6405,3.6342,3.6107,3.5115,3.4387,3.3834,3.3282,3.3124,3.3124,3.3124,3.2939,3.2766,3.2766,3.268,3.2519,3.2519,3.2519,3.2519,3.2475,3.2475,3.2475,3.2475,3.2431,3.2388,3.2431,3.2257,3.196,3.154,3.1443,3.1254,3.0519,3.0172,2.9849,2.9451,2.9024,2.8671,2.8522,2.851,2.851,2.851,2.851,2.8306,2.7777,2.7306,2.6815,2.6154,2.5612,2.5312,2.5312,2.5312,2.5004,2.4373,2.4969,2.4719,2.3463,2.4047,2.4047,2.3438,2.4047,2.4204,2.3959,2.4586,2.4093,4.3651,4.3463,4.329,4.329,4.2895,4.2635,0.0,4.2776,4.2545,4.3015,4.2563,4.2339,4.2961,4.2623,4.2535,4.3468,4.382,4.4033,4.4117,4.4631,4.4967,4.4763,4.2994,4.2025,4.2484,4.2703,4.2744,4.2647,4.2647,4.2647,4.2647,4.2501,4.1754,4.0194,3.9685,3.8694,3.7147,3.6656,3.6405,3.6405,3.6405,3.6405,3.6405,3.6405,3.6405,3.6405,3.6405,3.6405,3.6405,3.6405,3.6069,3.5533,3.4919,3.4387,3.3834,3.3282,3.3124,3.3124,3.3124,3.3068,3.3081,3.3081,3.3038,3.3038,3.3038,3.3038,3.2982,3.2723,3.268,3.268,3.268,3.2519,3.2431,3.2636,3.2519,3.2332,3.2271,3.2258,3.2099,3.1559,3.1399,3.1001,2.9764,2.9505,2.923,2.8622,2.851,2.851,2.851,2.851,2.8306,2.7777,2.7669,2.7212,2.619,2.5612,2.5312,2.5312,2.5312,2.5276,2.5158,2.5229,2.5241,2.5052,2.5123,2.5123,2.5052,2.5123,2.5158,2.5087,2.5206,2.4778,4.3463,4.3384,4.329,4.329,4.3135,4.3,4.323,4.312,4.3015,4.3245,4.312,4.3015,4.3245,4.3105,4.32,4.4046,4.4523,4.4918,4.5334,4.5574,4.5754,4.5771,4.4622,4.3807,4.3679,4.4233,4.434,4.3735,4.3687,4.3687,4.3687,4.3129,4.2166,4.0796,4.0542,3.9768,3.8379,3.8129,3.8056,3.8011,3.7487,3.7222,3.7176,3.664,3.6405,3.6405,3.6405,3.6182,3.5893,3.5893,3.5567,3.4969,3.4462,3.411,3.3834,3.3282,3.3124,3.3124,3.3124,3.3124,3.3124,3.3124,3.3124,3.3124,3.3124,3.3124,3.3081,3.2939,3.2939,3.2939,3.2939,3.2865,3.2822,3.2896,3.2766,3.255,3.255,3.255,3.2488,3.2136,3.1926,3.1457,3.0474,2.9894,2.9371,2.8769,2.8578,2.851,2.851,2.851,2.8306,2.7777,2.7678,2.7284,2.619,2.5889,2.5636,2.5324,2.5312,2.5312,2.5312,2.5312,2.5312,2.5312,2.5312,2.5312,2.5312,2.5312,2.5468,2.5769,2.5769,2.5768,4.3329,4.329,4.329,4.329,4.329,4.329,4.329,4.329,4.329,4.329,4.329,4.329,4.329,4.329,4.3559,4.4451,4.4825,4.5293,4.5962,4.6024,4.6015,4.6035,4.5742,4.5329,4.4808,4.5444,4.5595,4.4805,4.4759,4.4759,4.4759,4.3878,4.278,4.1471,4.1265,4.054,3.921,3.921,3.921,3.921,3.8509,3.8206,3.816,3.7474,3.7163,3.715,3.673,3.6311,3.5884,3.572,3.5203,3.4449,3.43,3.4016,3.3621,3.3219,3.3124,3.3124,3.3124,3.3124,3.3124,3.3124,3.3124,3.3124,3.3124,3.3124,3.3124,3.3124,3.3124,3.3124,3.3124,3.3124,3.3124,3.3124,3.2939,3.281,3.281,3.281,3.2766,3.2605,3.2413,3.1995,3.121,3.0491,2.9805,2.9227,2.8873,2.8669,2.8578,2.8578,2.8473,2.8125,2.7917,2.7468,2.6759,2.6578,2.6324,2.5936,2.572,2.5599,2.5599,2.5419,2.5312,2.5312,2.5456,2.5528,2.5528,2.5685,2.5949,2.6322,2.6322,2.6622,4.3384,4.329,4.329,4.329,4.329,4.329,4.329,4.329,4.329,4.329,4.329,4.329,4.329,4.329,4.3723,4.505,4.4751,4.4811,4.61,4.6124,4.5925,4.5651,4.5962,4.6106,4.588,4.588,4.588,4.5835,4.5835,4.5835,4.5835,4.5226,4.4104,4.25,4.191,4.0826,3.921,3.921,3.921,3.921,3.9166,3.9166,3.9166,3.9121,3.9121,3.905,3.7611,3.6972,3.6907,3.623,3.5159,3.3998,3.4848,3.4341,3.3106,3.3124,3.3124,3.3124,3.3124,3.3124,3.3124,3.3124,3.3124,3.3124,3.3124,3.3124,3.3124,3.3124,3.3124,3.3124,3.3124,3.3124,3.3124,3.3124,3.3068,3.3081,3.3081,3.3081,3.3081,3.3081,3.3068,3.2825,3.2008,3.1431,3.0803,3.0068,2.9447,2.9013,2.8843,2.8803,2.887,2.9028,2.8433,2.8065,2.8206,2.7766,2.7447,2.7422,2.6761,2.6384,2.6384,2.5695,2.5312,2.5312,2.5817,2.6069,2.6069,2.6585,2.6861,2.6873,2.6873,2.715,4.3329,4.329,4.329,4.329,4.329,4.329,4.329,4.329,4.329,4.329,4.329,4.3424,4.3858,4.3589,4.3873,4.5693,4.5035,4.493,4.6726,4.652,4.6273,4.6415,4.6564,4.658,4.6373,4.606,4.588,4.588,4.588,4.5692,4.5242,4.501,4.4269,4.2898,4.2611,4.2067,4.1142,4.11,4.11,4.11,4.0446,3.9812,3.921,3.921,3.8993,3.857,3.8061,3.7407,3.6641,3.6427,3.5818,3.5078,3.5354,3.4848,3.3937,3.3937,3.3611,3.3124,3.3124,3.3124,3.3124,3.3124,3.3124,3.3124,3.3124,3.3124,3.3124,3.3124,3.3124,3.3124,3.3124,3.3124,3.3124,3.3124,3.3124,3.3124,3.3124,3.3124,3.3124,3.3124,3.3124,3.2893,3.2189,3.1527,3.0773,2.9735,2.9332,2.9091,2.9013,2.9013,2.9,2.9091,2.8893,2.8596,2.8318,2.8147,2.7877,2.7533,2.7275,2.7127,2.7127,2.6883,2.6749,2.6749,2.6797,2.682,2.682,2.6876,2.7078,2.7414,2.7414,2.7702,4.329,4.329,4.329,4.329,4.329,4.329,4.329,4.329,4.329,4.329,4.329,4.3424,4.3843,4.3574,4.3873,4.5663,4.484,4.4661,4.6681,4.6381,4.6117,4.6515,4.6783,4.68,4.6639,4.6328,4.6105,4.6001,4.6015,4.568,4.4922,4.469,4.4081,4.3021,4.2774,4.2484,4.2092,4.2092,4.2092,4.2092,4.1437,4.0802,4.023,4.0008,3.9688,3.9256,3.8503,3.7717,3.6975,3.6728,3.6224,3.5615,3.5949,3.5561,3.4814,3.4814,3.4483,3.3911,3.3313,3.3124,3.3124,3.3124,3.3124,3.3124,3.3124,3.3124,3.3124,3.3124,3.3124,3.3124,3.3124,3.3124,3.3124,3.3124,3.3124,3.3124,3.3124,3.3124,3.3124,3.3124,3.3124,3.2998,3.2591,3.1776,3.0832,2.9722,2.9443,2.9339,2.9339,2.9287,2.9236,2.9339,2.9248,2.91,2.8844,2.8857,2.8696,2.8325,2.8077,2.7928,2.7928,2.7656,2.7508,2.7508,2.7568,2.7566,2.749,2.7545,2.7707,2.8005,2.8005,2.8186,4.329,4.329,4.329,4.329,4.329,4.329,4.329,4.329,4.329,4.329,4.329,4.3305,4.3334,4.3319,4.3738,4.5125,4.4212,4.3992,4.5995,4.5723,4.5475,4.5964,4.6545,4.6844,4.6639,4.6639,4.6535,4.6254,4.6181,4.5785,4.4923,4.4269,4.3631,4.2977,4.2397,4.2092,4.2092,4.2092,4.2092,4.2092,4.2092,4.2078,4.202,4.1381,4.1062,4.0891,3.8865,3.7955,3.7884,3.7214,3.6478,3.5829,3.6635,3.6439,3.5655,3.5655,3.5655,3.5386,3.3797,3.3197,3.3167,3.3124,3.3124,3.3124,3.3124,3.3124,3.3124,3.3124,3.3124,3.3124,3.3124,3.3124,3.3124,3.3124,3.3124,3.3124,3.3124,3.3124,3.3124,3.3124,3.3124,3.3142,3.3079,3.2227,3.1143,3.002,2.9908,2.9908,2.9792,2.9599,2.9586,2.9818,2.9677,2.9625,2.9818,2.9869,2.983,2.9792,2.9163,2.8799,2.8761,2.8064,2.7669,2.7631,2.8086,2.828,2.8114,2.8587,2.8724,2.859,2.855,2.851,4.329,4.329,4.329,4.329,4.329,4.329,4.329,4.329,4.329,4.329,4.329,4.3439,4.3932,4.3618,4.3888,4.5768,4.4485,4.3992,4.5995,4.5723,4.5517,4.6162,4.6819,4.7164,4.7135,4.7121,4.699,4.6741,4.5991,4.5215,4.4485,4.3673,4.2963,4.2339,4.2179,4.2092,4.2092,4.2092,4.2092,4.2092,4.2092,4.1831,4.1337,4.1178,4.0583,3.9668,3.9126,3.8577,3.8102,3.7958,3.772,3.7553,3.7758,3.7323,3.657,3.657,3.6162,3.5534,3.5102,3.4566,3.3937,3.3326,3.3124,3.3124,3.3124,3.3124,3.3124,3.3124,3.3124,3.3124,3.3124,3.3124,3.3124,3.3124,3.3124,3.3124,3.3124,3.3124,3.3124,3.3124,3.3611,3.3791,3.2964,3.3041,3.2682,3.0902,3.1145,3.1121,2.9934,3.0228,3.0519,3.062,3.1082,3.1206,3.0645,3.062,3.0381,2.983,3.0139,3.0074,2.954,2.9858,2.9769,2.9238,2.9158,2.94,2.9935,2.9318,2.9314,2.9832,2.9067,2.8724,4.329,4.329,4.329,4.329,4.329,4.329,4.329,4.329,4.329,4.329,4.329,4.3409,4.3768,4.3544,4.3753,4.5214,4.4216,4.3783,4.5203,4.511,4.511,4.5798,4.6456,4.6995,4.7279,4.7309,4.7131,4.666,4.59,4.514,4.4451,4.351,4.2758,4.2272,4.2133,4.2092,4.2092,4.2092,4.2092,4.2092,4.2092,4.1744,4.1091,4.08,4.0133,3.9189,3.8884,3.8551,3.8202,3.8202,3.8202,3.8202,3.8202,3.7886,3.7491,3.7491,3.7155,3.6674,3.6306,3.5883,3.5345,3.4483,3.4191,3.4108,3.3768,3.3654,3.3569,3.3197,3.3368,3.3654,3.3654,3.3924,3.4121,3.3768,3.3654,3.3569,3.3197,3.3124,3.3197,3.3611,3.433,3.4552,3.3435,3.3584,3.3333,3.1662,3.1819,3.1796,3.0897,3.1169,3.1415,3.1415,3.1819,3.1928,3.1489,3.1415,3.1244,3.0835,3.1206,3.1244,3.0835,3.1206,3.1244,3.0835,3.0645,3.0745,3.1132,3.057,3.0279,3.0279,2.9716,2.9263,4.3275,4.329,4.329,4.329,4.329,4.329,4.329,4.329,4.329,4.329,4.329,4.329,4.329,4.329,4.3514,4.4212,4.3723,4.3529,4.4227,4.4317,4.4556,4.5214,4.5903,4.6546,4.7115,4.7174,4.6905,4.6232,4.5686,4.5119,4.4558,4.3548,4.2782,4.2447,4.2284,4.2175,4.2175,4.2175,4.2175,4.2133,4.2046,4.1654,4.0945,4.0278,3.9654,3.903,3.8449,3.8202,3.8202,3.8202,3.8202,3.8202,3.8202,3.8202,3.8202,3.8202,3.8202,3.8089,3.7323,3.7053,3.6922,3.5909,3.5615,3.5467,3.4786,3.4551,3.4384,3.3641,3.3979,3.4551,3.4551,3.5087,3.5427,3.4744,3.4551,3.4343,3.3611,3.3441,3.3683,3.4551,3.5291,3.5435,3.4383,3.4213,3.3813,3.2554,3.2381,3.2412,3.2412,3.229,3.2254,3.2254,3.234,3.2376,3.2268,3.2254,3.2182,3.211,3.2182,3.2182,3.211,3.2182,3.2182,3.211,3.211,3.2037,3.1978,3.1905,3.1429,3.0683,3.0545,3.0063,4.314,4.329,4.329,4.329,4.329,4.329,4.329,4.329,4.329,4.329,4.329,4.329,4.329,4.329,4.3514,4.4212,4.3723,4.3529,4.4227,4.4317,4.4556,4.5214,4.5903,4.6324,4.6444,4.6444,4.6217,4.5529,4.4727,4.422,4.4101,4.3245,4.2725,4.2662,4.2607,4.2581,4.2581,4.2581,4.25,4.2351,4.1796,4.1062,4.0249,3.9639,3.9,3.8376,3.826,3.8202,3.8202,3.8202,3.8202,3.8202,3.8202,3.8202,3.8202,3.8202,3.8202,3.8165,3.8037,3.7962,3.772,3.6108,3.5615,3.5574,3.5427,3.5386,3.5346,3.5224,3.5264,3.5386,3.5386,3.5507,3.5574,3.5427,3.5386,3.5346,3.5183,3.5183,3.5427,3.6294,3.657,3.6465,3.5829,3.5818,3.5417,3.4054,3.3944,3.4011,3.4011,3.3416,3.3003,3.3003,3.3604,3.3722,3.3087,3.3003,3.2755,3.2146,3.2684,3.2755,3.211,3.2684,3.272,3.211,3.211,3.2362,3.2967,3.2362,3.2254,3.267,3.1892,3.1095,4.2746,4.3075,4.329,4.329,4.329,4.329,4.329,4.329,4.329,4.329,4.329,4.329,4.329,4.329,4.3394,4.3708,4.3499,4.3409,4.3723,4.3768,4.4047,4.4706,4.508,4.5409,4.5753,4.5783,4.5514,4.484,4.4374,4.4169,4.4169,4.3326,4.2809,4.2688,4.2688,4.2688,4.2688,4.2688,4.2486,4.2041,4.1704,4.0964,3.9765,3.9474,3.8941,3.8202,3.8315,3.8366,3.8352,3.8464,3.8464,3.8366,3.8464,3.8464,3.8366,3.8366,3.8366,3.8366,3.8366,3.8277,3.8089,3.7347,3.7025,3.6869,3.6399,3.6281,3.6188,3.5735,3.5949,3.6281,3.6281,3.6596,3.683,3.6399,3.5949,3.5615,3.5615,3.5949,3.6399,3.6805,3.7246,3.742,3.6805,3.6793,3.6382,3.5031,3.4889,3.4791,3.4457,3.4079,3.3811,3.3811,3.4147,3.423,3.3859,3.3811,3.3673,3.3311,3.3638,3.3673,3.3311,3.3638,3.3673,3.3311,3.329,3.3465,3.3811,3.3465,3.3276,3.3178,3.2755,3.211,4.2321,4.2746,4.3125,4.326,4.329,4.329,4.329,4.3185,4.3135,4.3135,4.2976,4.2955,4.3065,4.3135,4.3125,4.3275,4.329,4.329,4.329,4.329,4.3544,4.4242,4.4317,4.4526,4.5035,4.5095,4.4811,4.4152,4.4107,4.4107,4.4107,4.3439,4.2996,4.285,4.2809,4.2809,4.2809,4.2809,4.2484,4.1755,4.1622,4.088,3.9557,3.9411,3.8984,3.8352,3.8516,3.8538,3.859,3.8723,3.8723,3.859,3.876,3.8686,3.8538,3.8538,3.8553,3.8516,3.8553,3.8441,3.8277,3.8441,3.8366,3.8089,3.7414,3.7169,3.7053,3.6346,3.6635,3.7169,3.7169,3.7682,3.8037,3.7323,3.6674,3.6148,3.6148,3.6674,3.7169,3.7169,3.772,3.8057,3.7578,3.7404,3.6954,3.5973,3.5581,3.5218,3.4675,3.4501,3.4414,3.4414,3.4414,3.4414,3.4414,3.4414,3.4414,3.4414,3.4414,3.4414,3.4414,3.4414,3.4414,3.4414,3.4414,3.4414,3.4414,3.4414,3.4079,3.3451,3.3451,3.3052,4.2081,4.244,4.262,4.314,4.329,4.329,4.329,4.288,4.2485,4.2485,4.2021,4.1743,4.2381,4.2485,4.2641,4.32,4.329,4.329,4.329,4.329,4.3544,4.4242,4.4317,4.4332,4.4407,4.4407,4.4122,4.3424,4.3379,4.3379,4.3379,4.3319,4.325,4.325,4.325,4.325,4.325,4.325,4.2803,4.1976,4.1412,4.066,3.9747,3.915,3.8804,3.8745,3.8745,3.8745,3.8782,3.8782,3.8782,3.8782,3.8782,3.8797,3.8745,3.8745,3.8649,3.8516,3.8723,3.8649,3.8478,3.8478,3.8366,3.8202,3.8089,3.8089,3.8075,3.8,3.8,3.8089,3.8089,3.8127,3.8165,3.8089,3.8,3.7962,3.7962,3.8037,3.8089,3.8089,3.8165,3.8188,3.813,3.7665,3.7259,3.7143,3.6162,3.5378,3.5319,3.4777,3.4414,3.4414,3.4414,3.4414,3.4414,3.4414,3.4414,3.4414,3.4414,3.4414,3.4414,3.4414,3.4414,3.4414,3.4414,3.4414,3.4414,3.4414,3.4366,3.4298,3.4298,3.3859,4.104,4.1512,4.1961,4.2581,4.2746,4.2746,4.2746,4.259,4.2291,4.1886,4.1602,4.1459,4.1767,4.2126,4.2485,4.2701,4.3075,4.329,4.329,4.329,4.3394,4.3648,4.3678,4.3678,4.3678,4.3678,4.3574,4.3319,4.329,4.329,4.329,4.329,4.329,4.329,4.329,4.329,4.329,4.294,4.2378,4.1628,4.0987,4.0219,3.938,3.9113,3.8907,3.8819,3.8943,3.898,3.898,3.9104,3.9104,3.898,3.9104,3.9104,3.898,3.898,3.8922,3.8885,3.8943,3.8833,3.8686,3.8811,3.8723,3.8538,3.8277,3.8277,3.8366,3.8366,3.8366,3.8366,3.8366,3.8277,3.8202,3.8202,3.8202,3.8202,3.8202,3.8277,3.8366,3.8366,3.8366,3.8366,3.8366,3.8162,3.7908,3.7529,3.7069,3.6456,3.5682,3.5243,3.4835,3.4443,3.4414,3.4414,3.4414,3.4414,3.4414,3.4414,3.4414,3.4414,3.4414,3.4414,3.4414,3.4414,3.4414,3.4414,3.4414,3.4414,3.4414,3.4414,3.4414,3.423,4.0352,4.0741,4.1287,4.1946,4.2111,4.2111,4.2111,4.1961,4.1692,4.119,4.0935,4.0861,4.1055,4.1662,4.2171,4.2366,4.291,4.329,4.329,4.329,4.329,4.329,4.329,4.329,4.329,4.329,4.329,4.329,4.329,4.329,4.329,4.329,4.329,4.329,4.329,4.329,4.329,4.2686,4.2066,4.1407,4.0711,3.9964,3.9177,3.9177,3.9104,3.898,3.9141,3.9177,3.9177,3.9337,3.9301,3.9177,3.9337,3.9301,3.9177,3.9177,3.9141,3.9104,3.9177,3.9068,3.8907,3.9068,3.9031,3.8907,3.8501,3.8464,3.859,3.859,3.859,3.859,3.859,3.8464,3.8389,3.8389,3.8315,3.8315,3.8352,3.8427,3.8516,3.859,3.859,3.859,3.859,3.859,3.8429,3.8011,3.7791,3.7351,3.6456,3.5883,3.5355,3.485,3.4651,3.4515,3.4414,3.4448,3.4448,3.4414,3.4414,3.4414,3.4414,3.4414,3.4414,3.4414,3.4414,3.4414,3.4414,3.4414,3.4414,3.4414,3.4414,3.4414,4.0232,4.0412,4.0561,4.122,4.1384,4.1384,4.1384,4.0891,4.0427,4.0412,3.9888,3.9634,4.0292,4.095,4.1647,4.2291,4.291,4.329,4.329,4.329,4.329,4.329,4.329,4.329,4.329,4.329,4.329,4.329,4.329,4.329,4.329,4.329,4.329,4.329,4.329,4.329,4.329,4.2686,4.2066,4.1407,4.0711,4.0053,3.9388,3.9388,3.9388,3.9388,3.9388,3.9388,3.9388,3.9388,3.9388,3.9388,3.9388,3.9388,3.9388,3.9388,3.9265,3.9141,3.9337,3.9265,3.9104,3.9104,3.9228,3.9301,3.8907,3.8797,3.8782,3.8782,3.8782,3.8782,3.8782,3.8797,3.8782,3.8782,3.8649,3.8553,3.8745,3.8649,3.8553,3.876,3.8782,3.8782,3.8782,3.8782,3.8782,3.8782,3.8266,3.7904,3.7904,3.6704,3.5839,3.5717,3.5217,3.4769,3.4414,3.4597,3.4597,3.4414,3.4414,3.4414,3.4414,3.4414,3.4414,3.4414,3.4414,3.4414,3.4414,3.4414,3.4414,3.4414,3.4414,3.4414,3.9679,3.9723,3.9888,4.0546,4.0711,4.0711,4.0711,4.0546,4.0277,3.9828,3.9574,3.9448,3.9694,4.0636,4.1444,4.1692,4.2611,4.329,4.329,4.3771,4.4105,4.4105,4.4105,4.4105,4.4105,4.363,4.329,4.329,4.329,4.329,4.329,4.329,4.329,4.329,4.329,4.312,4.2671,4.2051,4.1392,4.0711,4.0053,3.9619,3.9388,3.9388,3.9388,3.9388,3.9388,3.9388,3.9388,3.9388,3.9388,3.9388,3.9388,3.9388,3.9388,3.9388,3.9337,3.9301,3.9388,3.9337,3.9301,3.9301,3.9337,3.9388,3.9265,3.9104,3.9017,3.9017,3.9017,3.9017,3.9017,3.8907,3.8782,3.8782,3.8745,3.8723,3.8797,3.887,3.8922,3.898,3.9017,3.9017,3.9017,3.9017,3.9017,3.9017,3.8854,3.8572,3.8163,3.7606,3.7072,3.658,3.6098,3.5469,3.466,3.475,3.4783,3.4616,3.4597,3.4549,3.4414,3.4414,3.4414,3.4414,3.4414,3.4414,3.4414,3.4414,3.4414,3.4414,3.4414,3.4414,3.9388,3.9388,3.9514,3.9933,4.0023,4.0023,4.0023,4.0023,3.9903,3.9514,3.961,3.9824,3.9824,4.1136,4.2218,4.2218,4.3349,4.422,4.422,4.4624,4.4962,4.4962,4.4962,4.4962,4.4962,4.422,4.3732,4.3732,4.3472,4.329,4.329,4.329,4.3185,4.297,4.297,4.2776,4.2396,4.1459,4.0801,4.0382,3.9738,3.9388,3.9388,3.9388,3.9388,3.9388,3.9388,3.9388,0.0,3.9388,3.9388,3.9388,3.9388,3.9388,3.9388,3.9388,3.9388,3.9388,3.9388,3.9388,3.9388,3.9388,3.9388,3.9388,3.9388,3.9301,3.9228,3.9228,3.9228,3.9228,3.9228,3.9104,3.9017,3.9017,3.898,3.8943,3.9017,3.9068,3.9104,3.9177,3.9228,3.9228,3.9228,3.9228,3.9228,3.9228,3.9228,3.9079,3.8698,3.8323,3.7905,3.7455,3.6936,3.6283,3.5343,3.513,3.4949,3.4783,3.4798,3.4716,3.4601,3.4601,3.4601,3.4601,3.4549,3.4515,3.4515,3.4448,3.4414,3.4414,3.4414,3.4414,0.0,3.9388,3.9388,3.9388,3.9388,3.9388,3.9388,3.9388,0.0,3.9445,4.0021,4.0512,4.0581,4.2235,4.3611,4.3611,4.478,4.5697,4.5697,4.5733,4.5805,4.5841,4.5805,4.5769,4.5769,4.4999,4.451,4.451,4.3732,4.329,4.329,4.3245,4.2985,4.2425,4.2306,4.2261,4.2261,4.101,4.0382,4.0322,3.9709,3.9388,3.9388,3.9388,3.9388,3.9388,3.9388,3.9388,3.9388,3.9388,3.9388,3.9388,3.9388,3.9388,3.9388,3.9388,3.9388,3.9388,3.9388,3.9388,3.9388,3.9388,3.9388,3.9388,3.9388,3.9388,3.9388,3.9388,3.9388,3.9388,3.9388,3.9388,3.9388,3.9388,3.9265,3.9177,3.9337,3.9265,3.9177,3.9337,3.9388,3.9388,3.9388,3.9388,3.9388,3.9388,3.9388,3.9388,3.9388,3.8856,3.8431,3.8305,3.7814,3.7172,3.6406,3.5689,3.5207,3.4935,3.4935,3.4902,3.4902,3.4902,3.4902,3.4902,3.4783,3.4698,3.4698,3.4515,3.4414,3.4414,3.4414,3.4414,3.9388,0.0,3.9388,3.9388,3.9388,3.9388,0.0,3.9388,3.9553,4.0111,4.0374,4.065,4.116,4.2527,4.3611,4.3611,4.478,4.5697,4.5697,4.6182,4.6759,4.7387,4.6913,4.6534,4.6534,4.53,4.451,4.451,4.3732,4.329,4.329,4.2865,4.256,4.2396,4.1422,4.0861,4.0861,4.0561,4.0142,3.9649,3.9499,3.9388,3.9388,3.9388,3.9388,3.9388,3.9388,3.9388,3.9388,3.9388,3.9388,3.9388,3.9388,3.9388,3.9388,3.9388,3.9388,3.9388,3.9388,3.9388,3.9388,3.9388,3.9388,3.9388,3.9388,3.9388,3.9388,3.9388,3.9388,3.9388,3.9388,3.9388,3.9388,3.9388,3.9337,3.9337,3.9388,3.9337,3.9337,3.9388,3.9388,3.9388,3.9388,3.9388,3.9388,3.9388,3.9388,3.9388,3.9388,3.9239,3.9149,3.9113,3.8536,3.8093,3.7908,3.6843,3.5896,3.5177,3.5115,3.5082,3.4902,3.4902,3.4902,3.4902,3.4868,3.4817,3.4698,3.4664,3.4563,3.4414,3.4414,3.4414,3.9388,3.9388,3.9388,3.9388,3.9388,3.9388,3.9388,3.9646,4.0021,4.0409,4.1008,4.1669,4.238,4.3668,4.4704,4.5077,4.6029,4.674,4.674,4.7084,4.7521,4.7968,4.7638,4.7337,4.7337,4.6237,4.5556,4.5556,4.451,4.3713,4.341,4.2769,4.2126,4.1512,4.0771,4.0397,4.0397,4.0098,3.9768,3.9388,3.9388,3.9388,3.9388,3.9388,3.9388,3.9388,3.9388,3.9388,3.9388,3.9388,3.9388,3.9388,3.9388,3.9388,3.9388,3.9388,3.9388,3.9388,3.9388,3.9388,3.9388,3.9388,3.9388,3.9388,3.9388,3.9388,3.9388,3.9388,3.9388,3.9388,3.9388,3.9388,3.9388,3.9388,3.9388,3.9388,3.9388,3.9388,3.9388,3.9388,3.9388,3.9388,3.9388,3.9388,3.9388,3.9388,3.9388,3.9388,3.9388,3.9388,3.9388,3.9388,3.9095,3.8736,3.8422,3.7764,3.6922,3.5866,3.549,3.5294,3.518,3.518,3.5115,3.5034,3.5034,3.4949,3.4783,3.4783,3.4683,3.4549,3.4549,3.4481,3.946,3.946,3.946,3.9424,3.9388,3.9424,3.9553,4.0041,4.0581,4.0805,4.1787,4.289,4.3732,4.4957,4.6061,4.6775,4.752,4.8001,4.8001,4.8001,4.8001,4.8001,4.8001,4.8001,4.8001,4.7253,4.6811,4.6811,4.5389,4.426,4.3689,4.2765,4.1723,4.0596,4.0366,4.0247,4.0247,3.9694,3.9388,3.9388,3.9388,3.9388,3.9388,3.9388,3.9388,3.9388,3.9388,3.9388,3.9388,3.9388,3.9388,3.9388,3.9388,3.9388,3.9388,3.9388,3.9388,3.9388,3.9388,3.9388,3.9388,3.9388,3.9388,3.9388,3.9388,3.9388,3.9388,3.9388,3.9388,3.9388,3.9388,3.9388,3.9388,3.9388,3.9388,3.9388,3.9388,3.9388,3.9388,3.9388,3.9388,3.9388,3.9388,3.9388,3.9388,3.9388,3.9388,3.9388,3.9388,3.9388,3.9388,3.9388,3.9388,3.9185,3.8601,3.8452,3.7928,3.6851,3.6073,3.5609,3.5504,3.5504,3.5439,3.5261,3.5261,3.5148,3.4935,3.4935,3.4883,3.4731,3.4731,3.4631,3.9646,3.9646,3.9625,3.9445,3.9388,3.9553,4.0181,4.0409,4.0873,4.2173,4.263,4.3184,4.4478,4.5391,4.6169,4.6807,4.752,4.8001,4.8001,4.8001,4.8001,4.8001,4.8001,4.8001,4.8001,4.7253,4.6811,4.6811,4.5412,4.4551,4.4441,4.2587,4.1449,4.1235,4.0154,3.9574,3.9574,3.9433,3.9388,3.9388,3.9388,3.9388,3.9388,3.9388,3.9388,3.9388,3.9388,3.9388,3.9388,3.9388,3.9388,3.9388,3.9388,3.9388,3.9388,3.9388,3.9388,3.9388,3.9388,3.9388,3.9388,3.9388,3.9388,3.9388,3.9388,3.9388,3.9388,3.9388,3.9388,3.9388,3.9388,3.9388,3.9388,3.9388,3.9388,3.9388,3.9388,3.9388,3.9388,3.9388,3.9388,3.9388,3.9388,3.9388,3.9388,3.9388,3.9388,3.9388,3.9388,3.9388,3.9388,3.9388,3.9388,3.9379,3.9275,3.8721,3.8302,3.8108,3.6985,3.6088,3.5534,3.5504,3.5504,3.5439,3.5439,3.5359,3.5148,3.5148,3.5049,3.4868,3.4868,3.4783,3.9854,3.9854,3.9945,4.0181,4.02,4.0309,4.1145,4.1576,4.2045,4.2753,4.3525,4.4404,4.5457,4.6252,4.6987,4.7643,4.8043,4.8244,4.8115,4.8115,4.8082,4.8001,4.8001,4.8001,4.8001,4.7671,4.7274,4.6881,4.5835,4.4861,4.4159,4.2764,4.1662,4.0924,4.0298,3.9809,3.9409,3.9388,3.9388,3.9388,3.9388,3.9388,3.9388,3.9388,3.9388,3.9388,3.9388,3.9388,3.9388,3.9388,3.9388,3.9388,3.9388,3.9388,3.9388,3.9388,3.9388,3.9388,3.9388,3.9388,3.9388,3.9388,3.9388,3.9388,3.9388,3.9388,3.9388,3.9388,3.9388,3.9388,3.9388,3.9388,3.9388,3.9388,3.9388,3.9388,3.9388,3.9388,3.9388,3.9388,3.9388,3.9388,3.9388,3.9388,3.9388,3.9388,3.9388,3.9388,3.9388,3.9388,3.9388,3.9388,3.9388,3.9388,3.9388,3.9125,3.8631,3.7913,3.6985,3.6357,3.6043,3.5684,3.5504,3.5504,3.5504,3.5439,3.5359,3.5359,3.5261,3.5082,3.5082,3.4983,4.0066,4.0191,4.0474,4.116,4.1078,4.1028,4.2013,4.2644,4.3108,4.3471,4.4467,4.5513,4.6435,4.7192,4.783,4.8431,4.8515,4.8452,4.8292,4.8227,4.8163,4.8049,4.8033,4.8001,4.8001,4.7835,4.7504,4.6941,4.5996,4.5017,4.3974,4.3056,4.2045,4.1024,4.0668,4.0216,3.9646,3.9481,3.9388,3.9388,3.9388,3.9388,3.9388,3.9388,3.9388,3.9388,3.9388,3.9388,3.9388,3.9388,3.9388,3.9388,3.9388,3.9388,3.9388,3.9388,3.9388,3.9388,3.9388,3.9388,3.9388,3.9388,3.9388,3.9388,3.9388,3.9388,3.9388,3.9388,3.9388,3.9388,3.9388,3.9388,3.9388,3.9388,3.9388,3.9388,3.9388,3.9388,3.9388,3.9388,3.9388,3.9388,3.9388,3.9388,3.9388,3.9388,3.9388,3.9388,3.9388,3.9388,3.9388,3.9388,3.9388,3.9388,3.9388,3.9388,3.894,3.7943,3.7285,3.6791,3.6492,3.6013,3.5669,3.5504,3.5504,3.5504,3.5504,3.5504,3.5439,3.5261,3.5261,3.5148,4.0277,4.0749,4.1393,4.2205,4.169,4.1311,4.2644,4.2968,4.3408,4.4934,4.5328,4.5829,4.7258,4.7991,4.8416,4.8467,4.8515,4.8483,4.8483,4.8324,4.8195,4.8195,4.8099,4.8001,4.8001,4.7388,4.6957,4.6891,4.5584,4.4726,4.4627,4.3336,4.2539,4.2459,4.1176,4.0478,4.0409,3.9753,3.9388,3.9388,3.9388,3.9388,3.9388,3.9388,3.9388,3.9388,3.9388,3.9388,3.9388,3.9388,3.9388,3.9388,3.9388,3.9388,3.9388,3.9388,3.9388,3.9388,3.9388,3.9388,3.9388,3.9388,3.9388,3.9388,3.9388,3.9388,3.9388,3.9388,3.9388,3.9388,3.9388,3.9388,3.9388,3.9388,3.9388,3.9388,3.9388,3.9388,3.9388,3.9388,3.9388,3.9388,3.9388,3.9388,3.9388,3.9388,3.9388,3.9388,3.9388,3.9388,3.9388,3.9388,3.9388,3.9388,3.9388,3.9388,3.9379,3.9239,3.8631,3.7719,3.6537,3.6432,3.6133,3.5519,3.5504,3.5504,3.5504,3.5504,3.5504,3.5472,3.5472,3.5359,4.0922,4.1243,4.1706,4.2831,4.2831,4.28,4.3781,4.434,4.4846,4.5474,4.6313,4.7258,4.8301,4.8644,4.8798,4.8798,4.8798,4.8784,4.8707,4.8627,4.8468,4.8227,4.8179,4.7899,4.7355,4.7057,4.651,4.5582,4.5003,4.4489,4.4042,4.3504,4.3035,4.2617,4.1624,4.094,4.0512,3.9788,3.9388,3.9388,3.9388,3.9388,3.9388,3.9388,3.9388,3.9388,3.9388,3.9388,3.9388,3.9388,3.9388,3.9388,3.9388,3.9388,3.9388,3.9388,3.9388,3.9388,3.9388,3.9388,3.9388,3.9388,3.9388,3.9388,3.9388,3.9388,3.9388,3.9388,3.9388,3.9388,3.9388,3.9388,3.9388,3.9388,3.9388,3.9388,3.9388,3.9388,3.9388,3.9388,3.9388,3.9388,3.9388,3.9388,3.9388,3.9388,3.9388,3.9388,3.9388,3.9388,3.9388,3.9388,3.9388,3.9388,3.9388,3.9388,3.9388,3.9388,3.8766,3.8167,3.7689,3.6911,3.6372,3.6118,3.5714,3.5504,3.5504,3.5504,3.5504,3.5504,3.5504,3.5472,4.1376,4.1804,4.2363,4.3257,4.3676,4.4039,4.4772,4.5331,4.5771,4.6007,4.7225,4.8409,4.8917,4.9001,4.9001,4.9001,4.9001,4.897,4.8863,4.8849,4.8707,4.8436,4.8324,4.7944,4.707,4.6787,4.6109,4.4818,4.4473,4.4141,4.3615,4.3598,4.3402,4.2943,4.2221,4.1525,4.0805,4.0111,3.9625,3.9388,3.9388,3.9388,3.9388,3.9388,3.9388,3.9388,3.9388,3.9388,3.9388,3.9388,3.9388,3.9388,3.9388,3.9388,3.9388,3.9388,3.9388,3.9388,3.9388,3.9388,3.9388,3.9388,3.9388,3.9388,3.9388,3.9388,3.9388,3.9388,3.9388,3.9388,3.9388,3.9388,3.9388,3.9388,3.9388,3.9388,3.9388,3.9388,3.9388,3.9388,3.9388,3.9388,3.9388,3.9388,3.9388,3.9388,3.9388,3.9388,3.9388,3.9388,3.9388,3.9388,3.9388,3.9388,3.9388,3.9388,3.9388,3.9388,3.8975,3.8616,3.8407,3.7554,3.6985,3.6791,3.6148,3.5818,3.5818,3.5609,3.5504,3.5504,3.5504,3.5504,4.1525,4.2473,4.3512,4.3512,4.4076,4.4801,4.5534,4.572,4.5923,4.6667,4.7986,4.9001,4.9001,4.9001,4.9001,4.9001,4.9001,4.9001,4.9001,4.8894,4.8818,4.8818,4.8627,4.8136,4.7276,4.6526,4.5685,4.4768,4.4026,4.3598,4.3598,4.3598,4.3598,4.3598,4.2943,4.2253,4.1525,4.0839,4.0111,3.9424,3.9388,3.9388,3.9388,3.9388,3.9388,3.9388,3.9388,3.9388,3.9388,3.9388,3.9388,3.9388,3.9388,3.9388,3.9388,3.9388,3.9388,3.9388,3.9388,3.9388,3.9388,3.9388,3.9388,3.9388,3.9388,3.9388,3.9388,3.9388,3.9388,3.9388,3.9388,3.9388,3.9388,3.9388,3.9388,3.9388,3.9388,3.9388,3.9388,3.9388,3.9388,3.9388,3.9388,3.9388,3.9388,3.9388,3.9388,3.9388,3.9388,3.9388,3.9388,3.9388,3.9388,3.9388,3.9388,3.9388,3.9388,3.9388,3.9388,3.911,3.8422,3.8392,3.8078,3.7434,3.6806,3.6492,3.6492,3.5833,3.5534,3.5534,3.5534,3.5534,4.2078,4.2831,4.3601,4.4133,4.444,4.4801,4.5534,4.6109,4.6819,4.8088,4.8697,4.9001,4.9001,4.9001,4.9001,4.9001,4.9001,4.9001,4.9001,4.8987,4.8894,4.8818,4.8267,4.7522,4.6631,4.5774,4.495,4.4205,4.3803,4.3598,4.3598,4.3598,4.3598,4.3598,4.2943,4.2475,4.2285,4.1109,4.0374,4.0181,3.9646,3.9388,3.9388,3.9388,3.9388,3.9388,3.9388,3.9388,3.9388,3.9388,3.9388,3.9388,3.9388,3.9388,3.9388,3.9388,3.9388,3.9388,3.9388,3.9388,3.9388,3.9388,3.9388,3.9388,3.9388,3.9388,3.9388,3.9388,3.9388,3.9388,3.9388,3.9388,3.9388,3.9388,3.9388,3.9388,3.9388,3.9388,3.9388,3.9388,3.9388,3.9388,3.9388,3.9388,3.9388,3.9388,3.9388,3.9388,3.9388,3.9388,3.9388,3.9388,3.9388,3.9388,3.9388,3.9388,3.9388,3.9388,3.9388,3.9334,3.9125,3.8646,3.8302,3.8108,3.7464,3.7135,3.7135,3.6941,3.6851,3.6851,3.6851,3.6851,4.2395,4.3213,4.4047,4.4468,4.4615,4.4886,4.5889,4.6718,4.7581,4.8765,4.9001,4.9001,4.9001,4.9001,4.9001,4.9001,4.9001,4.9001,4.9001,4.9001,4.897,4.8894,4.8189,4.7386,4.6478,4.5604,4.4795,4.4035,4.3822,4.3734,4.3734,4.3628,4.3598,4.3598,4.3204,4.2881,4.2617,4.1754,4.1042,4.0478,4.0041,3.9681,3.9388,3.9388,3.9388,3.9388,3.9388,3.9388,3.9388,3.9388,3.9388,3.9388,3.9388,3.9388,3.9388,3.9388,3.9388,3.9388,3.9388,3.9388,3.9388,3.9388,3.9388,3.9388,3.9388,3.9388,3.9388,3.9388,3.9388,3.9388,3.9388,3.9388,3.9388,3.9388,3.961,3.9844,3.9844,4.0041,4.0235,4.0235,4.0235,4.0146,3.9879,3.9844,3.9753,3.9445,3.9388,3.9388,3.9388,3.9388,3.9517,3.9824,3.9844,3.9844,3.9844,3.9844,3.9717,3.9409,3.9388,3.9388,3.9388,3.902,3.8796,3.8796,3.8138,3.7808,3.7808,3.7539,3.7404,3.7404,3.7404,3.7404,4.252,4.3545,4.4615,4.4615,4.4699,4.5156,4.6481,4.7428,4.8176,4.8866,4.9001,4.9001,4.9001,4.9001,4.9001,4.9001,4.9001,4.9001,4.9001,4.9001,4.8984,4.8917,4.8257,4.7453,4.6511,4.574,4.4963,4.4176,4.3998,4.3927,4.3927,4.3734,4.3628,4.3628,4.3598,4.3295,4.271,4.2617,4.1917,4.0581,4.0512,4.0111,3.9424,3.9424,3.9388,3.9388,3.9388,3.9388,3.9388,3.9388,3.9388,3.9388,3.9388,3.9388,3.9388,3.9409,3.9424,3.9388,3.9409,3.9424,3.9388,3.9388,3.9388,3.9388,3.9388,3.9388,3.9388,3.9388,3.9388,3.9409,3.9409,3.9481,3.9517,3.9517,4.0021,4.0512,4.0512,4.1042,4.1492,4.1492,4.1492,4.1294,4.0718,4.0581,4.0339,3.961,3.9517,3.9517,3.9517,3.9445,3.9717,4.0512,4.0547,4.0512,4.0581,4.0581,4.0285,3.9553,3.9517,3.9481,3.9388,3.9388,3.9388,3.9388,3.8796,3.8482,3.8482,3.7883,3.7584,3.7584,3.7584,3.7584,4.252,4.3545,4.4615,4.4615,4.5478,4.6397,4.6718,4.7817,4.8815,4.8968,4.9001,4.9001,4.9001,4.9001,4.9001,4.9001,4.9001,4.9001,4.9001,4.9001,4.8798,4.8193,4.7496,4.6735,4.5949,4.5058,4.445,4.427,4.4126,4.4056,4.4056,4.391,4.3839,4.3839,4.3687,4.3539,4.3402,4.2865,4.2158,4.1294,4.0737,4.0181,3.9625,3.9481,3.9388,3.9388,3.9388,3.9388,3.9388,3.9388,3.9388,3.9388,3.9388,3.9388,3.9409,3.9589,3.9553,3.9409,3.9589,3.9517,3.9388,3.9388,3.9388,3.9388,3.9388,3.9388,3.9388,3.9388,3.9388,3.946,3.9589,4.0025,4.0413,4.0428,4.0478,4.0512,4.0512,4.1042,4.1492,4.1492,4.1492,4.1459,4.1294,4.1294,4.106,4.0389,4.025,4.025,4.025,3.9753,3.9879,4.116,4.0805,4.0703,4.1227,4.1294,4.1008,4.032,4.025,4.0021,3.9409,3.9388,3.9388,3.9388,3.9275,3.92,3.92,3.905,3.899,3.899,3.899,3.899,4.2426,4.3273,4.4179,4.4514,4.5432,4.6261,4.6261,4.7141,4.8054,4.8409,4.8765,4.9001,4.9001,4.9001,4.9001,4.9001,4.9001,4.9001,4.9001,4.8714,4.8342,4.7939,4.6955,4.6126,4.5737,4.4953,4.444,4.444,4.4298,4.4212,4.4212,4.4068,4.3998,4.3998,4.3822,4.3776,4.3835,4.3325,4.2632,4.1723,4.1327,4.0684,3.9839,3.9625,3.9481,3.9388,3.9388,3.9388,3.9388,3.9388,3.9388,3.9388,3.9388,3.9445,3.9553,3.9646,3.9696,3.9676,3.9696,3.9625,3.9517,3.9424,3.9445,3.9517,3.9424,3.9445,3.9517,3.9424,3.9445,3.9646,4.006,4.0516,4.0943,4.1245,4.1477,4.1575,4.1525,4.2013,4.2506,4.2506,4.2506,4.2412,4.2078,4.1722,4.1393,4.1042,4.0718,4.0512,4.0512,3.9859,3.995,4.136,4.1194,4.126,4.1949,4.2029,4.1722,4.1042,4.0684,4.032,3.995,3.9589,3.9388,3.9388,3.9388,3.9388,3.9388,3.9388,3.9388,3.9388,3.9388,3.9388,4.2173,4.2892,4.3676,4.4412,4.5145,4.5703,4.5703,4.6261,4.6972,4.7597,4.8308,4.8849,4.8984,4.9001,4.9001,4.9001,4.89,4.8815,4.8815,4.8189,4.7682,4.7547,4.6447,4.5652,4.5517,4.4942,4.4615,4.4615,4.444,4.4338,4.4338,4.4212,4.4126,4.4126,4.3969,4.3969,4.4097,4.3805,4.3141,4.2189,4.1868,4.1125,4.0011,3.9874,3.9696,3.9496,3.946,3.9445,3.9496,3.946,3.9445,3.9445,3.9445,3.9553,3.9717,3.9803,3.9874,3.996,3.9839,3.9803,3.9732,3.9568,3.9625,3.9732,3.9553,3.9625,3.9732,3.9568,3.9625,3.9915,4.0603,4.101,4.1377,4.2062,4.2645,4.2986,4.2694,4.3157,4.3628,4.3598,4.3628,4.3462,4.2881,4.2285,4.1852,4.1722,4.1227,4.0873,4.0873,4.0216,4.0305,4.1722,4.1754,4.1981,4.271,4.2772,4.2443,4.1722,4.1176,4.0737,4.0512,3.9915,3.9517,3.9388,3.9388,3.9388,3.9388,3.9388,3.9388,3.9388,3.9388,3.9388,4.1624,4.2552,4.3676,4.4412,4.5145,4.5703,4.5703,4.6261,4.6819,4.6921,4.753,4.8227,4.8883,4.9001,4.9001,4.9001,4.8477,4.8041,4.8041,4.7411,4.6701,4.6075,4.5821,4.5449,4.4818,4.4666,4.4615,4.4615,4.457,4.457,4.457,4.4384,4.4281,4.4281,4.4027,4.3969,4.4097,4.3939,4.3535,4.286,4.1868,4.0904,3.9996,4.0137,4.0101,3.9889,3.9732,3.9768,3.9905,3.9732,3.9646,3.9646,3.9646,3.9696,3.9753,4.0086,4.0137,4.0031,4.0172,4.0101,3.9975,3.9925,3.9925,3.996,3.9925,3.9925,3.996,3.9925,3.9925,4.0156,4.1008,4.1673,4.23,4.2986,4.3604,4.3856,4.2986,4.3355,4.3793,4.3628,4.3734,4.3763,4.3492,4.3539,4.3312,4.2585,4.2396,4.2317,4.2317,4.1689,4.1754,4.3157,4.2803,4.271,4.3402,4.3462,4.3174,4.2491,4.2349,4.1754,4.0547,4.0424,4.0041,3.9409,3.9388,3.9388,3.9388,3.9388,3.9388,3.9388,3.9388,3.9388,4.1393,4.2489,4.3571,4.3898,4.4534,4.5077,4.5077,4.5314,4.5669,4.6092,4.6447,4.6904,4.7631,4.7767,4.7767,4.7767,4.7496,4.7293,4.7293,4.665,4.6058,4.5737,4.5331,4.4942,4.4632,4.4615,4.4615,4.4615,4.4615,4.4615,4.4615,4.4514,4.4468,4.4468,4.4241,4.4212,4.4372,4.3759,4.2974,4.2029,4.1243,4.0646,4.0261,4.0296,4.0172,4.0011,3.9925,3.9925,3.996,3.9768,3.9681,3.9681,3.9681,3.9768,3.991,4.0191,4.0296,4.0261,4.0312,4.0242,4.0207,4.0474,4.0631,4.0768,4.1026,4.1194,4.126,4.116,4.1194,4.1444,4.2221,4.2693,4.3152,4.3873,4.4253,4.431,4.3768,4.3831,4.3998,4.3894,4.3969,4.3998,4.3894,4.3952,4.3881,4.3402,4.2988,4.2678,4.2617,4.1965,4.1884,4.2943,4.2772,4.2881,4.3522,4.3598,4.3462,4.3174,4.282,4.2126,4.1093,4.0703,4.0146,3.9409,3.9388,3.9388,3.9388,3.9388,3.9388,3.9388,3.9388,3.9388,4.1343,4.2237,4.3075,4.3406,4.3914,4.4367,4.4542,4.4615,4.4767,4.5314,4.5415,4.5585,4.6126,4.6532,4.6786,4.6786,4.6633,4.6515,4.6515,4.5889,4.5415,4.5415,4.4925,4.4615,4.4615,4.4615,4.4615,4.4615,4.4615,4.4615,4.4615,4.4615,4.4615,4.4615,4.4395,4.4412,4.4615,4.3877,4.2927,4.1868,4.1442,4.1075,4.0734,4.0646,4.042,4.0137,4.0101,4.0101,4.0101,3.9945,3.9859,3.9859,3.9859,3.9945,4.0101,4.0277,4.0401,4.0489,4.0401,4.047,4.0646,4.1008,4.136,4.1673,4.1997,4.2221,4.2332,4.2157,4.2237,4.252,4.3169,4.3439,4.3676,4.4412,4.4615,4.4542,4.4338,4.4196,4.4097,4.4097,4.4126,4.4155,4.4097,4.4126,4.4097,4.3969,4.3489,4.3094,4.2943,4.2443,4.2317,4.2803,4.2834,4.3066,4.3568,4.3598,4.3598,4.3598,4.3143,4.2443,4.1525,4.1209,4.0615,3.9681,3.9681,3.9589,3.9388,3.9388,3.9388,3.9388,3.9388,3.9388,4.1343,4.1558,4.1901,4.3166,4.3542,4.3735,4.444,4.4615,4.4615,4.4649,4.4666,4.4682,4.4716,4.5867,4.6786,4.6786,4.621,4.5771,4.5771,4.5111,4.4666,4.4666,4.4632,4.4615,4.4615,4.4615,4.4615,4.4615,4.4615,4.4615,4.4615,4.4615,4.4615,4.4615,4.4395,4.4412,4.4615,4.4542,4.415,4.3393,4.3363,4.2676,4.1459,4.1426,4.1091,4.047,4.0331,4.0366,4.0455,4.0331,4.0277,4.0277,4.0277,4.0277,4.0312,4.0436,4.0489,4.0489,4.0489,4.0904,4.1426,4.1459,4.1917,4.2458,4.2458,4.2489,4.2489,4.2489,4.2489,4.2629,4.3333,4.3482,4.3676,4.4412,4.4615,4.4542,4.4338,4.4196,4.4097,4.4097,4.4196,4.4253,4.4126,4.4212,4.4253,4.4097,4.4068,4.3981,4.3868,4.3793,4.3734,4.3552,4.3568,4.3552,4.3598,4.3598,4.3598,4.3598,4.3568,4.2927,4.1558,4.2158,4.1852,4.0478,4.0443,4.0091,3.9388,3.9388,3.9388,3.9388,3.9388,3.9388,4.0783,4.1176,4.1624,4.2078,4.2845,4.3571,4.3839,4.4265,4.4615,4.4615,4.4615,4.4615,4.4615,4.5038,4.541,4.541,4.5173,4.4976,4.4976,4.4784,4.4615,4.4615,4.4615,4.4615,4.4615,4.4615,4.4615,4.4615,4.4615,4.4615,4.4615,4.4615,4.4615,4.4615,4.4542,4.431,4.3914,4.3898,4.3558,4.2862,4.2862,4.2395,4.1492,4.1492,4.1109,4.0489,4.047,4.047,4.0489,4.0381,4.0312,4.0312,4.0312,4.0312,4.0312,4.0455,4.0489,4.0489,4.0489,4.0922,4.1575,4.1981,4.2614,4.3243,4.3693,4.3856,4.3856,4.3856,4.3856,4.3885,4.415,4.4207,4.4281,4.4542,4.4615,4.457,4.4514,4.4457,4.4429,4.4429,4.4457,4.4485,4.4429,4.4457,4.4412,4.4126,4.4097,4.4056,4.3927,4.3793,4.3734,4.3793,4.3674,4.3598,4.3598,4.3598,4.3598,4.3598,4.3598,4.3174,4.2253,4.2443,4.2158,4.116,4.1127,4.0805,4.0111,3.9625,3.9388,3.9388,3.9388,3.9388,4.0455,4.0836,4.1209,4.1459,4.2173,4.2953,4.3423,4.3869,4.431,4.4542,4.4615,4.4615,4.4615,4.4615,4.4615,4.4615,4.4615,4.4615,4.4615,4.4615,4.4615,4.4615,4.4615,4.4615,4.4615,4.4615,4.4615,4.4615,4.4615,4.4615,4.4615,4.4615,4.4615,4.4615,4.4615,4.4367,4.3869,4.3869,4.3663,4.3183,4.3183,4.2847,4.2173,4.1933,4.1459,4.0802,4.0593,4.0489,4.0489,4.0401,4.0366,4.0366,4.0366,4.0366,4.0366,4.047,4.0489,4.0524,4.0783,4.1276,4.1965,4.2614,4.3303,4.3972,4.444,4.4615,4.4615,4.4615,4.4615,4.4615,4.4615,4.4615,4.4615,4.4615,4.4615,4.4615,4.4615,4.4615,4.4615,4.4615,4.4615,4.4615,4.4615,4.4615,4.4514,4.4212,4.4184,4.4097,4.3927,4.3822,4.3776,4.3793,4.3734,4.3658,4.3598,4.3598,4.3598,4.3598,4.3598,4.3295,4.2617,4.282,4.2475,4.1525,4.1492,4.116,4.0512,4.0021,3.9646,3.9388,3.9388,3.9388,0.0,0.0,0.0,4.1309,4.1492,4.1836,4.3136,4.3482,4.3706,4.4412,4.457,4.4615,4.4615,4.4615,4.4615,4.4615,4.4615,4.4615,4.4615,4.4615,4.4615,4.4615,4.4615,4.4615,4.4615,4.4615,4.4615,4.4615,4.4615,4.4615,4.4615,4.4615,4.4615,4.4615,4.4615,4.4615,4.4615,4.4615,4.4615,4.4615,4.4615,4.4207,4.3482,4.2831,4.2173,4.1492,4.0836,4.0558,4.0558,4.0524,4.0524,4.0558,4.0558,4.0558,4.0524,4.0524,4.0524,4.0612,4.1276,4.1949,4.2645,4.3287,4.4001,4.4615,4.4615,4.4615,4.4615,4.4615,4.4615,4.4615,4.4615,4.4615,4.4615,4.4615,4.4615,4.4615,4.4615,4.4615,4.4615,4.4615,4.4615,4.4615,4.4615,4.4615,4.4542,4.4338,4.431,4.4212,4.3956,4.4027,4.3981,4.3658,4.3793,4.3839,4.3628,4.3598,4.3598,4.3598,4.3598,4.3295,4.2648,4.3265,4.2943,4.1558,4.1525,4.1194,4.0512,4.0478,4.0091,3.9388,3.9388,3.9388,4.0436,0.0,0.0,0.0,0.0,0.0,4.1965,4.2784,4.3571,4.3764,4.4236,4.4615,4.4615,4.4615,4.4615,4.4615,4.4615,4.4615,4.4615,4.4615,4.4615,4.4615,4.4615,4.4615,4.4615,4.4615,4.4615,4.4615,4.4615,4.4615,4.4615,4.4615,4.4615,4.4615,4.4615,4.4615,4.4615,4.4615,4.4615,4.4615,4.4615,4.4207,4.3482,4.3317,4.2862,4.2205,4.2013,4.1965,4.1901,4.1426,4.1525,4.1965,4.1965,4.1641,4.1209,4.1209,4.1209,4.1243,4.1426,4.2269,4.3257,4.3453,4.4001,4.4615,4.4615,4.4615,4.4615,4.4615,4.4615,4.4615,4.4615,4.4615,4.4615,4.4615,4.4615,4.4615,4.4615,4.4615,4.4615,4.4615,4.4615,4.4615,4.4615,4.4615,4.4542,4.4338,4.431,4.4281,4.4196,4.4126,4.4068,4.3981,4.391,4.3839,4.3628,4.3598,4.3598,4.3598,4.3598,4.3539,4.3342,4.3492,4.3204,4.2317,4.2285,4.1689,4.0512,3.995,3.9589,3.9388,3.9388,3.9388,4.0121,4.0366,4.0401,4.0401,0.0,0.0,4.1426,4.2109,4.2722,4.3045,4.3439,4.3798,4.4076,4.415,4.4236,4.4542,4.4615,4.4615,4.4615,4.4615,4.4615,4.4615,4.4615,4.4615,4.4615,4.4615,4.4615,4.4615,4.4615,4.4615,4.4615,4.4615,4.4615,4.4615,4.4615,4.4615,4.4615,4.4615,4.4615,4.4615,4.4615,4.4367,4.3943,4.3647,4.3287,4.2892,4.2614,4.2676,4.2892,4.2489,4.2395,4.252,4.252,4.2269,4.1933,4.1933,4.1933,4.1949,4.2237,4.2862,4.3542,4.3869,4.4236,4.4615,4.4615,4.4615,4.4615,4.4615,4.4615,4.4615,4.4615,4.4615,4.4615,4.4615,4.4615,4.4615,4.4615,4.4615,4.4615,4.4615,4.4615,4.4615,4.4615,4.4615,4.4542,4.4338,4.431,4.4281,4.4224,4.4212,4.4155,4.4097,4.4027,4.391,4.3734,4.3658,4.3598,4.3598,4.3598,4.3598,4.3598,4.3598,4.3265,4.2617,4.2617,4.19,4.0512,4.0091,3.9681,3.9388,3.9388,3.9388,3.9717,4.0137,4.0277,4.0277,4.0366,0.0,4.1209,4.1393,4.1641,4.2237,4.2458,4.2676,4.3287,4.3453,4.3706,4.4367,4.4542,4.4615,4.4615,4.4615,4.4615,4.4615,4.4615,4.4615,4.4615,4.4615,4.4615,4.4615,4.4615,4.4615,4.4615,4.4615,4.4615,4.4615,4.4615,4.4615,4.4615,4.4615,4.4615,4.4615,4.4615,4.4615,4.457,4.3914,4.3601,4.3571,4.2984,4.3075,4.3601,4.3601,4.3273,4.2738,4.2738,4.2676,4.2614,4.2614,4.2614,4.2707,4.3287,4.3542,4.3735,4.4384,4.4615,4.4615,4.4615,4.4615,4.4615,4.4615,4.4615,4.4615,4.4615,4.4615,4.4615,4.4615,4.4615,4.4615,4.4615,4.4615,4.4615,4.4615,4.4615,4.4615,4.4615,4.4615,4.4575,4.4485,4.4456,4.4433,4.439,4.4505,4.45,4.426,4.4243,4.4169,4.3927,4.3763,4.3658,4.3628,4.3628,4.3628,4.3598,4.3598,4.3265,4.2617,4.2522,4.1852,4.0615,4.0443,4.0056,3.9388,3.9388,3.9388,3.9717,4.0031,4.0066,4.0066,4.0066,0.0,4.0261,4.0836,4.1376,4.1525,4.2046,4.2552,4.266,4.3136,4.3542,4.3676,4.4207,4.4615,4.4615,4.4615,4.4615,4.4615,4.4615,4.4615,4.4615,4.4615,4.4615,4.4615,4.4615,4.4615,4.4615,4.4615,4.4615,4.4615,4.4615,4.4615,4.4615,4.4615,4.4615,4.4615,4.4615,4.4615,4.4615,4.444,4.4384,4.4367,4.4253,4.4253,4.4384,4.4384,4.431,4.4196,4.4196,4.3827,4.3287,4.3287,4.3287,4.3317,4.3436,4.3885,4.4412,4.4542,4.4615,4.4615,4.4615,4.4615,4.4615,4.4615,4.4615,4.4615,4.4615,4.4615,4.4615,4.4615,4.4615,4.4615,4.4615,4.4615,4.4615,4.4615,4.4615,4.4615,4.4615,4.4615,4.479,4.5324,4.5426,4.5628,4.619,4.6304,4.5992,4.5211,4.516,4.485,4.4118,4.4027,4.3969,4.3868,4.3839,4.3763,4.3598,4.3598,4.3265,4.2617,4.2013,4.1591,4.1294,4.0181,3.9553,3.9388,3.9388,3.9388,3.8855,3.9466,3.9839,3.9839,3.9925,0.0,0.0,4.0316,4.0631,4.0631,4.1042,4.1492,4.1836,4.2237,4.2614,4.2953,4.332,4.3663,4.4001,4.4384,4.4615,4.4615,4.4615,4.4615,4.4615,4.4615,4.4615,4.4615,4.4615,4.4615,4.4615,4.4615,4.4615,4.4615,4.4615,4.4615,4.4615,4.4615,4.4615,4.4615,4.4615,4.4615,4.4615,4.4615,4.4615,4.4615,4.4615,4.4615,4.4615,4.4615,4.4615,4.4615,4.4615,4.4367,4.4047,4.4047,4.4047,4.4047,4.4047,4.431,4.4615,4.4615,4.4615,4.4615,4.4615,4.4615,4.4615,4.4615,4.4615,4.4615,4.4615,4.4615,4.4615,4.4615,4.4615,4.4615,4.4615,4.4615,4.4615,4.4615,4.4919,4.5145,4.5145,4.5071,4.525,4.5992,4.6039,4.6114,4.6514,4.6565,4.6413,4.601,4.5811,4.542,4.47,4.4486,4.4218,4.378,4.3763,4.3704,4.3598,4.3598,4.3432,4.3113,4.2412,4.2045,4.2061,4.0634,3.995,3.995,3.9589,3.9388,3.8188,3.9017,3.9661,3.9661,3.9768,3.9889,0.0,0.0,0.0,4.0011,4.0172,4.0489,4.1057,4.1343,4.1626,4.206,4.2329,4.2658,4.3075,4.386,4.444,4.457,4.4615,4.4615,4.4615,4.4615,4.4615,4.4615,4.4615,4.4615,4.4615,4.4615,4.4615,4.4615,4.4615,4.4615,4.4615,4.4615,4.4615,4.4615,4.4615,4.4615,4.4615,4.4615,4.4615,4.4615,4.4615,4.4615,4.4615,4.4615,4.4615,4.4615,4.4615,4.4615,4.4615,4.4615,4.4615,4.4615,4.4615,4.4615,4.4615,4.4615,4.4615,4.4615,4.4615,4.4615,4.4615,4.4615,4.4615,4.4615,4.4615,4.4615,4.4615,4.4615,4.4615,4.4615,4.4615,4.4615,4.4649,4.4801,4.528,4.5703,4.5703,4.5672,4.5921,4.6645,4.6629,4.6622,4.6773,4.6759,4.6706,4.669,4.6444,4.6038,4.5453,4.5147,4.4696,4.3906,4.3857,4.3777,4.3598,4.3598,4.3598,4.3598,4.3066,4.271,4.2617,4.1343,4.065,4.0478,3.9753,3.9388,3.9031,3.9337,3.9409,3.9409,3.946,3.946,3.946,0.0,4.0011,4.0011,0.0,4.0489,4.0593,0.0,0.0,4.08,4.174,4.2325,4.1785,4.2832,4.3869,4.4514,4.4615,4.4615,4.4615,4.4615,4.4615,4.4615,4.4615,4.4615,4.4615,4.4615,4.4615,4.4615,4.4615,4.4615,4.4615,4.4615,4.4615,4.4615,4.4615,4.4615,4.4615,4.4615,4.4615,4.4615,4.4615,4.4615,4.4615,4.4615,4.4615,4.4615,4.4615,4.4615,4.4615,4.4615,4.4615,4.4615,4.4615,4.4615,4.4615,4.4615,4.4615,4.4615,4.4615,4.4615,4.4615,4.4615,4.4615,4.4615,4.4615,4.4615,4.4615,4.4615,4.4615,4.4615,4.4615,4.4615,4.4801,4.5449,4.5652,4.5703,4.5703,4.6198,4.6891,4.7652,4.7585,4.7698,4.8402,4.8344,4.8029,4.7376,4.7278,4.6963,4.6243,4.6146,4.5721,4.4803,4.4753,4.4411,4.3615,4.3598,4.3598,4.3598,4.3539,4.3204,4.2617,4.1787,4.1075,4.0478,3.9753,3.9388,3.8612,3.9046,3.9388,3.9388,3.9388,3.9388,3.9388,3.9532,3.9676,3.9803,0.0,0.0,0.0,0.0,0.0,0.0,4.0955,4.1398,4.147,4.1981,4.2738,4.3839,4.4338,4.4615,4.4615,4.4615,4.4615,4.4615,4.4615,4.4615,4.4615,4.4615,4.4615,4.4615,4.4615,4.4615,4.4615,4.4615,4.4615,4.4615,4.4615,4.4615,4.4615,4.4615,4.4615,4.4615,4.4615,4.4615,4.4615,4.4615,4.4615,4.4615,4.4615,4.4615,4.4615,4.4615,4.4615,4.4615,4.4615,4.4615,4.4615,4.4615,4.4615,4.4615,4.4615,4.4615,4.4615,4.4615,4.4615,4.4615,4.4615,4.4615,4.4615,4.4615,4.4615,4.4615,4.4615,4.4953,4.5331,4.5652,4.6397,4.6989,4.6989,4.7136,4.7531,4.8307,4.825,4.8226,4.8576,4.8452,4.8239,4.8065,4.7841,4.7511,4.6889,4.6712,4.6286,4.546,4.5426,4.5263,4.4887,4.4473,4.4241,4.4241,4.3813,4.3265,4.2617,4.1852,4.116,4.0478,3.9753,3.9388,3.8612,3.9031,3.9445,3.9409,3.9388,3.9388,3.9388,3.9445,3.9553,3.9732,3.9945,0.0,0.0,0.0,4.0428,4.0243,0.0,4.0619,4.0892,4.1283,4.1981,4.3347,4.4133,4.4615,4.4615,4.4615,4.4615,4.4615,4.4615,4.4615,4.4615,4.4615,4.4615,4.4615,4.4615,4.4615,4.4615,4.4615,4.4615,4.4615,4.4615,4.4615,4.4615,4.4615,4.4615,4.4615,4.4615,4.4615,4.4615,4.4615,4.4615,4.4615,4.4615,4.4615,4.4615,4.4615,4.4615,4.4615,4.4615,4.4615,4.4615,4.4615,4.4615,4.4615,4.4615,4.4615,4.4615,4.4615,4.4615,4.4615,4.4615,4.4615,4.4615,4.4615,4.4615,4.4666,4.4869,4.5314,4.5821,4.6227,4.7162,4.7956,4.8159,4.8068,4.8192,4.8748,4.869,4.8595,4.8595,4.8388,4.8324,4.8483,4.8244,4.7915,4.7528,4.7302,4.6891,4.6146,4.5897,4.5798,4.5798,4.5284,4.4986,4.4986,4.4273,4.3546,4.2864,4.2127,4.1383,4.073,4.0007,3.9694,3.9681,3.9681,3.9661,3.946,3.9388,3.9388,3.9388,3.9553,3.9732,3.996,4.0137,4.0331,4.047,4.0489,4.0274,3.9628,4.0074,0.0,0.0,4.0669,4.1981,4.3347,4.4133,4.4615,4.4615,4.4615,4.4615,4.4615,4.4615,4.4615,4.4615,4.4615,4.4615,4.4615,4.4615,4.4615,4.4615,4.4615,4.4615,4.4615,4.4615,4.4615,4.4615,4.4615,4.4615,4.4615,4.4615,4.4615,4.4615,4.4615,4.4615,4.4615,4.4615,4.4615,4.4615,4.4615,4.4615,4.4615,4.4615,4.4615,4.4615,4.4615,4.4615,4.4615,4.4615,4.4615,4.4615,4.4615,4.4615,4.4615,4.4615,4.4615,4.4615,4.4615,4.4615,4.4801,4.5517,4.5686,4.6126,4.7534,4.7855,4.8139,4.8849,4.8968,4.8968,4.9001,4.8894,4.8769,4.8769,4.8627,4.8483,4.8515,4.8324,4.8195,4.8162,4.8049,4.7653,4.6908,4.6179,4.5798,4.5798,4.5765,4.5748,4.5748,4.4983,4.4229,4.3582,4.276,4.2047,4.1332,4.0666,4.0367,3.9925,3.9889,3.9854,3.9661,3.9711,3.9711,3.946,3.9553,3.9732,3.9803,3.996,4.0172,4.0331,4.0436,4.0428,4.0197,4.0336,4.0413,0.0,4.0935,4.1673,4.2109,4.3183,4.4076,4.4542,4.4615,4.4615,4.4615,4.4615,4.4615,4.4615,4.4615,4.4615,4.4615,4.4615,4.4615,4.4615,4.4615,4.4615,4.4615,4.4615,4.4615,4.4615,4.4615,4.4615,4.4615,4.4615,4.4615,4.4615,4.4615,4.4615,4.4615,4.4615,4.4615,4.4615,4.4615,4.4615,4.4615,4.4615,4.4615,4.4615,4.4615,4.4615,4.4615,4.4615,4.4615,4.4615,4.4615,4.4615,4.4615,4.4615,4.4615,4.4615,4.4615,4.4615,4.4818,4.5551,4.6075,4.6718,4.7733,4.8308,4.8714,4.8968,4.9001,4.9001,4.9001,4.894,4.8925,4.8925,4.8801,4.8707,4.8707,4.8532,4.8388,4.8388,4.8227,4.8047,4.7781,4.7452,4.7255,4.7255,4.6792,4.6527,4.6527,4.5792,4.4789,4.3611,4.3333,4.2566,4.1422,4.1632,4.1512,4.0101,4.0101,4.0066,3.9854,3.9889,3.9925,3.9676,3.9696,3.9839,3.991,3.996,4.0081,4.0347,4.0401,4.042,4.0489,4.0489,4.0489,0.0,4.087,4.1243,4.1459,4.266,4.3676,4.4179,4.444,4.4615,4.4615,4.4615,4.4615,4.4615,4.4615,4.4615,4.4615,4.4615,4.4615,4.4615,4.4615,4.4615,4.4615,4.4615,4.4615,4.4615,4.4615,4.4615,4.4615,4.4615,4.4615,4.4615,4.4615,4.4615,4.4615,4.4615,4.4615,4.4615,4.4615,4.4615,4.4615,4.4615,4.4615,4.4615,4.4615,4.4615,4.4615,4.4615,4.4615,4.4649,4.4936,4.4818,4.4666,4.4908,4.4818,4.4615,4.4615,4.4818,4.5179,4.5923,4.6667,4.7411,4.8156,4.868,4.9001,4.9001,4.9001,4.9001,4.9001,4.9001,4.9001,4.9001,4.8909,4.8863,4.8818,4.8627,4.8452,4.8324,4.8212,4.8147,4.8147,4.8066,4.8001,4.8001,4.7537,4.7289,4.7289,4.6535,4.57,4.4737,4.4494,4.3712,4.2516,4.2954,4.2771]}]]